[[{"header":{"parameterUnit":"m.s-1","parameterCategory":1,"la1":30.6,"la2":29.2853,"lo1":-89.7004,"lo2":-87.6739,"dy":0.0162,"dx":0.0183,"nx":112,"ny":82,"refTime":"2024-06-15T12:00:00:Z","depth":0,"parameterNumber":2,"parameterNumberName":"U-component_of_WINDS"},"data":[0.0,0.0,0.0,0.0,0.0,0.0,0.0,0.0,0.0,0.0,0.0,0.0,0.0,0.0,0.0,0.0,0.0,0.0,0.0,0.0,0.0,0.0,0.0,0.0,0.0,0.0,0.0,0.0,0.0,0.0,0.0,0.0,0.0,0.0,0.0,0.0,0.0,0.0,0.0,0.0,0.0,0.0,0.0,0.0,0.0,0.0,0.0,0.0,0.0,0.0,0.0,0.0,0.0,0.0,0.0,0.0,0.0,0.0,0.0,0.0,0.0,0.0,0.0,0.0,0.0,0.0,0.0,0.0,0.0,0.0,0.0,0.0,0.0,0.0,0.0,0.0,0.0,0.0,0.0,0.0,0.0,0.0,0.0,0.0,0.0,0.0,0.0,0.0,0.0,0.0,0.0433,0.1577,0.0682,0.0,0.0,0.0,0.0,0.0,0.0,0.0,0.0,0.0,0.0,0.0,0.0,0.0,0.0,0.0,0.0,0.0,0.0,0.0,0.0,0.0,0.0,0.0,0.0,0.0,0.0,0.0,0.0,0.0,0.0,0.0,0.0,0.0,0.0,0.0,0.0,0.0,0.0,0.0,0.0,0.0,0.0,0.0,0.0,0.0,0.0,0.0,0.0,0.0,0.0,0.0,0.0,0.0,0.0,0.0,0.0,0.0,0.0,0.0,0.0,0.0,0.0,0.0,0.0,0.0,0.0,0.0,0.0,0.0,0.0,0.0,0.0,0.0,0.0,0.0,0.0,0.0,0.0,0.0,0.0,0.0,0.0,0.0,0.0,0.0,0.0,0.0,0.0,0.0,0.0,0.0,0.0,0.0,0.0,0.0,0.0,0.0,0.0,0.0,0.0,0.0,0.0,0.0,0.0,0.0,0.0,0.0,0.0,0.0,0.0101,0.0291,0.0121,0.0,0.0,0.0,0.0,0.0,0.0,0.0,0.0,0.0,0.0,0.0,0.0,0.0,0.0,0.0,0.0,0.0,0.0,0.0,0.0,0.0,0.0,0.0,0.0,0.0,0.0,0.0,0.0,0.0,0.0,0.0,0.0,0.0,0.0,0.0,0.0,0.0,0.0,0.0,0.0,0.0,0.0,0.0,0.0,0.0,0.0,0.0,0.0,0.0,0.0,0.0,0.0,0.0,0.0,0.0,0.0,0.0,0.0,0.0,0.0,0.0,0.0,0.0,0.0,0.0,0.0,0.0,0.0,0.0,0.0,0.0,0.0,0.0,0.0,0.0,0.0,0.0,0.0,0.0,0.0,0.0,0.0,0.0,0.0,0.0,0.0,0.0,0.0,0.0,0.0,0.0,0.0,0.0,0.0,0.0,0.0,0.0,0.0,0.0,0.0,0.0,0.0,0.0,0.0,0.0,0.0,0.0,0.0,0.1034,0.0797,0.006,0.0,0.0,0.0,0.0,0.0,0.0,0.0,0.0,0.0,0.0,0.0,0.0,0.0,0.0,0.0,0.0,0.0,0.0,0.0,0.0,0.0,0.0,0.0,0.0,0.0,0.0,0.0,0.0,0.0,0.0,0.0,0.0,0.0,0.0,0.0,0.0,0.0,0.0,0.0,0.0,0.0,0.0,0.0,0.0,0.0,0.0,0.0,0.0,0.0,0.0,0.0,0.0,0.0,0.0,0.0,0.0,0.0,0.0,0.0,0.0,0.0,0.0,0.0,0.0,0.0,0.0,0.0,0.0,0.0,0.0,0.0,0.0,0.0,0.0,0.0,0.0,0.0,0.0,0.0,0.0,0.0,0.0,0.0,0.0,0.0,0.0,0.0,0.0,0.0,0.0,0.0,0.0,0.0,0.0,0.0,0.0,0.0,0.0,0.0,0.0,0.0,0.0,0.0,0.0,0.0,0.0,0.0,0.0,0.0,0.1172,0.1514,0.012,0.0,0.0,0.0,0.0,0.0,0.0,0.0,0.0,0.0,0.0,0.0,0.0,0.0,0.0,0.0,0.0,0.0,0.0,0.0,0.0,0.0,0.0,0.0,0.0,0.0,0.0,0.0,0.0,0.0,0.0,0.0,0.0,0.0,0.0,0.0,0.0,0.0,0.0,0.0,0.0,0.0,0.0,0.0,0.0,0.0,0.0,0.0,0.0,0.0,0.0,0.0,0.0,0.0,0.0,0.0,0.0,0.0,0.0,0.0,0.0,0.0,0.0,0.0,0.0,0.0,0.0,0.0,0.0,0.0,0.0,0.0,0.0,0.0,0.0,0.0,0.0,0.0,0.0,0.0,0.0,0.0,0.0,0.0,0.0,0.0,0.0,0.0,0.0,0.0,0.0,0.0,0.0,0.0,0.0,0.0,0.0,0.0,0.0,0.0,0.0,0.0,0.0,0.0,0.0,0.0,0.0,0.0,0.0,0.0,0.1268,0.1598,0.0184,0.0,0.0,0.0,0.0,0.0,0.0,0.0,0.0,0.0,0.0,0.0,0.0,0.0,0.0,0.0,0.0,0.0,0.0,0.0,0.0,0.0,0.0,0.0,0.0,0.0,0.0,0.0,0.0,0.0,0.0,0.0,0.0,0.0,0.0,0.0,0.0,0.0,0.0,0.0,0.0,0.0,0.0,0.0,0.0,0.0,0.0,0.0,0.0,0.0,0.0,0.0,0.0,0.0,0.0,0.0,0.0,0.0,0.0,0.0,0.0,0.0,0.0,0.0,0.0,0.0,0.0,0.0,0.0,0.0,0.0,0.0,0.0,0.0,0.0,0.0,0.0,0.0,0.0,0.0,0.0,0.0,0.0,0.0,0.0,0.0,0.0,0.0,0.0,0.0,0.0,0.0,0.0,0.0,0.0,0.0,0.0,0.0,0.0,0.0,0.0,0.0,0.0,0.0,0.0,0.0,0.0,0.0,0.0,0.0,0.0489,0.0641,0.0061,0.0,0.0,0.0,0.0,0.0,0.0,0.0,0.0,0.0,0.0,0.0,0.0,0.0,0.0,0.0,0.0,0.0,0.0,0.0,0.0,0.0,0.0,0.0,0.0,0.0,0.0,0.0,0.0,0.0,0.0,0.0,0.0,0.0,0.0,0.0,0.0,0.0,0.0,0.0,0.0,0.0,0.0,0.0,0.0,0.0,0.0,0.0,0.0,0.0,0.0,0.0,0.0,0.0,0.0,0.0,0.0,0.0,0.0,0.0,0.0,0.0,0.0,0.0,0.0,0.0,0.0,0.0,0.0,0.0,0.0,0.0,0.0,0.0,0.0,0.0,0.0,0.0,0.0,0.0,0.0,0.0,0.0,0.0,0.0,0.0,0.0,0.0,0.0,0.0,0.0,0.0,0.0,0.0,0.0,0.0,0.0,0.0,0.0,0.0,0.0,0.0,0.0,0.0,0.0,0.0,0.0,0.0,0.0,0.0,0.0,0.0,0.0,0.0,0.0,0.0,0.0,0.0,0.0,0.0,0.0,0.0,0.0,0.0,0.0,0.0,0.0,0.0,0.0,0.0,0.0,0.0,0.0,0.0,0.0,0.0,0.0,0.0,0.0,0.0,0.0,0.0,0.0,0.0,0.0,0.0,0.0,0.0,0.0,0.0,0.0,0.0,0.0,0.0,0.0,0.0,0.0,0.0,0.0,0.0,0.0,0.0,0.0,0.0,0.0,0.0,0.0,0.0,0.0,0.0,0.0,0.0,0.0,0.0,0.0,0.0,0.0,0.0,0.0,0.0,0.0,0.0,0.0,0.0,0.0,0.0,0.0,0.0,0.0,0.0,0.0,0.0,0.0,0.0,0.0,0.0,0.0,0.0,0.0,0.0,0.0,0.0,0.0,0.0,0.0,0.0,0.0,0.0,0.0,0.0,0.0,0.0,0.0,0.0,0.0,0.0,0.0,0.0,0.0,0.0,0.0,0.0,0.0,0.0,0.0,0.0,0.0,0.0,0.0,0.0,0.0,0.0,0.0,0.0,0.0,0.0,0.0,0.0,0.0,0.0,0.0,0.0,0.0,0.0,0.0,0.0,0.0,0.0,0.0,0.0,0.0,0.0,0.0,0.0,0.0,0.0,0.0,0.0,0.0,0.0,0.0,0.0,0.0,0.0,0.0,0.0,0.0,0.0,0.0,0.0,0.0,0.0,0.0,0.0,0.0,0.0,0.0,0.0,0.0,0.0,0.0,0.0,0.0,0.0,0.0,0.0,0.0,0.0,0.0,0.0,0.0,0.0,0.0,0.0,0.0,0.0,0.0,0.0,0.0,0.0,0.0,0.0,0.0,0.0,0.0,0.0,0.0,0.0,0.0,0.0,0.0,0.0,0.0,0.0,0.0,0.0,0.0,0.0,0.0,0.0,0.0,0.0,0.0,0.0,0.0,0.0,0.0,0.0,0.0,0.0,0.0,0.0,0.0,0.0,0.0,0.0,0.0,0.0,0.0,0.0,0.0,0.0,0.0,0.0,0.0,0.0,0.0,0.0,0.0,0.0,0.0,0.0,0.0,0.0,0.0,0.0,0.0,0.0,0.0,0.0,0.0,0.0,0.0,0.0,0.0,0.0,0.0,0.0,0.0,0.0,0.0,0.0,0.0,0.0,0.0,0.0,0.0,0.0,0.0,0.0,0.0,0.0,0.0,0.0,0.0,0.0,0.0,0.0,0.0,0.0,0.0,0.0,0.0,0.0,0.0,0.0,0.0,0.0,0.0,0.0,0.0,0.0,0.0,0.0,0.0,0.0,0.0,0.0,0.0,0.0,0.0,0.0,0.0,0.0,0.0,0.0,0.0,0.0,0.0,0.0,0.0,0.0,0.0,0.0,0.0,0.0,0.0,0.0,0.0,0.0,0.0,0.0,0.0,0.0,0.0,0.0,0.0,0.0,0.0,0.0,0.0,0.0,0.0,0.0,0.0,0.0,0.0,0.0,0.0,0.0,0.0,0.0,0.0,0.0,0.0,0.0,0.0,0.0,0.0,0.0,0.0,0.0,0.0,0.0,0.0,0.0,0.0,0.0,0.0,0.0,0.0,0.0,0.0,0.0,0.0,0.0,0.0,0.0,0.0,0.0,0.0,0.0,0.0,0.0,0.0,0.0,0.0,0.0,0.0,0.0,0.0,0.0,0.0,0.0,0.0,0.0,0.0,0.0,0.0,0.0,0.0,0.0,0.0,0.0,0.0,0.0,0.0,0.0,0.0,0.0,0.0,0.0,0.0,0.0,0.0,0.0,0.0,0.0,0.0,0.0,0.0,0.0,0.0,0.0,0.0,0.0,0.0,0.0,0.0,0.0,0.0,0.0,0.0,0.0,0.0,0.0,0.0,0.0,0.0,0.0,0.0,0.0,0.0,0.0,0.0,0.0,0.0,0.0,0.0,0.0,0.0,0.0,0.0,0.0,0.0,0.0,0.0,0.0,0.0,0.0,0.0,0.0,0.0,0.0,0.0,0.0,0.0,0.0,0.0,0.0,0.0,0.0,0.0,0.0,0.0,0.0,0.0,0.0,0.0,0.0,0.0,0.0,0.0,0.0,0.0,0.0,0.0,0.0,0.0,0.0,0.0,0.0,0.0,0.0,0.0,0.0,0.0,0.0,0.0,0.0,0.0,0.0,0.0,0.0,0.0,0.0,0.0,0.0,0.0,0.0,0.0,0.0,0.0,0.0,0.0,0.0,0.0,0.0,0.0,0.0,0.0,0.0,0.0,0.0,0.0,0.0,0.0,0.0,0.0,0.0,0.0,0.0,0.0,0.0,0.0,0.0,0.0,0.0,0.0,0.0,0.0,0.0,0.0,0.0,0.0,0.0,0.0,0.0,0.0,0.0,0.0,0.0,0.0,0.0,0.0,0.0,0.0,0.0,0.0,0.0,0.0,0.0,0.0,0.0,0.0,0.0,0.0,0.0,0.0,0.0,0.0,0.0,0.0,0.0,0.0,0.0,0.0,0.0,0.0,0.0,0.0,0.0,0.0,0.0,0.0,0.0,0.0,0.0,0.0,0.0,0.0,0.0,0.0,0.0,0.0,0.0,0.0,0.0,0.0,0.0,0.0,0.0,0.0,0.0,0.0,0.0,0.0,0.0,0.0,0.0,0.0,0.0,0.0,0.0,0.0,0.0,0.0,0.0,0.0,0.0,0.0,0.0,0.0,0.0,0.0,0.0,0.0,0.0,0.0,0.0,0.0,0.0,0.0,0.0,0.0,0.0,0.0,0.0,0.0,0.0,0.0,0.0,0.0,0.0,0.0,0.0,0.0,0.0,0.0,0.0,0.0,0.0,0.0,0.0,0.0,0.0,0.0,0.0,0.0,0.0,0.0,0.0,0.0,0.0,0.0,0.0,0.0,0.0,0.0,0.0,0.0,0.0,0.0,0.0,0.0,0.0,0.0,0.0,0.0,0.0,0.0,0.0,0.0,0.0,0.0,0.0,0.0,0.0,0.0,0.0,0.0,-0.0663,0.0,0.0,0.0,0.0,0.0,0.0,0.0,0.0,0.0,0.0,0.0,0.0,0.0,0.0,0.0,0.0,0.0,0.0,0.0,0.0,0.0,0.0,0.0,0.0,0.0,0.0,0.0,0.0,0.0,0.0,0.0,0.0,0.0,0.0,0.0,0.0,0.0,0.0,0.0,0.0,0.0,0.0,0.0,0.0,0.0,0.0,0.0,0.0,0.0,0.0,0.0,0.0,0.0,0.0,0.0,0.0,0.0,0.0,0.0,0.0,0.0,0.0,0.0,0.0,0.0,0.0,0.0,0.0,0.0,0.0,0.0,0.0,0.0,0.0,0.0,0.0,0.0,0.0,0.0,0.0,0.0,0.0,0.0,0.0,0.0,0.0,0.0,0.0,0.0,0.0,0.0,0.0,0.0,0.0,0.0,0.0,0.0,0.0,0.0,0.0,0.0,0.0,0.0,0.0,0.0,0.0,0.0,0.0,0.0,-0.0121,-0.0407,-0.1522,-0.2285,0.0,0.0,0.0,0.0,0.0,0.0,0.0,0.0,0.0,0.0,0.0,0.0,0.0,0.0,0.0,0.0,0.0,0.0,0.0,0.0,0.0,0.0,0.0,0.0,0.0,0.0,0.0,0.0,0.0,0.0,0.0,0.0,0.118,0.0467,0.0,0.0,0.0,0.0,0.0,0.0,0.0,0.0,0.0,0.0,0.0,0.0,0.0,0.0,0.0,0.0,0.0,0.0,0.0,0.0,0.0,0.0,0.0,0.0,0.0,0.0,0.0,0.0,0.0,0.0,0.0,0.0,0.0,0.0,0.0,0.0,0.0,0.0,0.0,0.0,0.0,0.0,0.0,0.0,0.0,0.0,0.0,0.0,0.0,0.0,0.0,0.0,0.0,0.0,0.0,0.0,0.0,0.0,0.0,0.0,0.0,0.0,0.0,0.0,0.0,0.0,0.0,0.0,0.0,0.0,0.0,0.0,0.0,0.0,-0.0612,-0.2095,-0.2195,-0.2839,-0.4281,-0.4238,0.0,0.0,0.0,0.0,0.0,0.0,0.0,0.0,0.0,0.0,0.0,0.0,0.0,0.0,0.0,0.0,0.0,0.0,0.0,0.0,0.0,0.0,0.0,0.0,0.0,0.0,0.0,0.0,0.0,0.0811,0.0437,0.0048,0.0,0.0,0.0,0.0,0.0,0.0,0.0,0.0,0.0,0.0,0.0,0.0,0.0,0.0,0.0,0.0,0.0,0.0,0.0,0.0,-0.0075,-0.1191,-0.1711,-0.1785,-0.3028,-0.3539,-0.341,-0.2135,-0.1658,-0.1655,0.0,0.0,0.0,0.0,-0.0677,-0.1635,-0.1616,-0.2356,-0.3265,-0.3267,0.0,0.0,0.0,0.0,0.0,0.0,0.0,-0.0236,-0.1364,-0.1624,-0.189,-0.3017,-0.3249,-0.3259,-0.3239,-0.3256,-0.2594,-0.0444,0.0,0.0,0.0,0.0,0.0,0.0,0.0,0.0,0.0,0.0,0.0,0.0,0.0,-0.0396,-0.1356,-0.14,-0.2118,-0.3733,-0.4564,-0.5217,-0.58,-0.6347,-0.6401,0.0,0.0,0.0,0.0,0.0,0.0,0.0,0.0,0.0,0.0,0.0,0.0,0.0,0.0,0.0,0.0,0.0,0.0,0.0,0.0,0.0,0.0,0.0,0.0,0.0,0.0,0.0,0.0,0.0,0.0,0.0,0.0,0.0,0.0,0.0,0.0,0.0,0.0,0.0,0.0,0.0,0.0,0.0,0.0,0.0,0.0,0.0,0.0,0.0,-0.054,-0.0848,-0.0926,-0.3079,-0.3999,-0.4074,-0.5648,-0.6618,-0.6958,-0.4678,-0.3789,-0.3757,-0.3696,-0.2819,-0.1519,-0.1498,-0.2375,-0.3618,-0.3654,-0.4565,-0.5814,-0.5782,-0.5728,-0.581,-0.6589,0.0,0.0,0.0,0.0,-0.1811,-0.3241,-0.3652,-0.3986,-0.547,-0.5798,-0.5798,-0.5798,-0.5817,-0.497,-0.2044,-0.1457,-0.1352,-0.0851,-0.0748,0.0,-0.0761,-0.0743,-0.0905,-0.1394,-0.1438,-0.14,-0.141,-0.1411,-0.1862,-0.3109,-0.322,-0.3857,-0.5479,-0.657,-0.7205,-0.7409,-0.8173,-0.8357,-0.7834,0.0,0.0,0.0,0.0,0.0,0.0,0.0,0.0,0.0,0.0,0.0,0.0,0.0,0.0,0.0,0.0,0.0,0.0,0.0,0.0,0.0,0.0,0.0,0.0,0.0,0.0,0.0,0.0,0.0,0.0,0.0,0.0,0.0,0.0,0.0,0.0,0.0,0.0,0.0,0.0,0.0,0.0,0.0,0.0,0.0,0.0,0.0,0.0,-0.2104,-0.3153,-0.3315,-0.5489,-0.6535,-0.6525,-0.6462,-0.7566,-0.9089,-0.7011,-0.6158,-0.613,-0.5889,-0.5811,-0.5682,-0.5572,-0.5597,-0.5685,-0.5653,-0.5729,-0.5812,-0.5812,-0.5811,-0.6333,-0.9368,-0.8084,0.0,0.0,-0.6588,-0.5554,-0.5594,-0.5675,-0.5699,-0.5784,-0.5805,-0.5805,-0.5805,-0.5827,-0.5736,-0.5556,-0.5529,-0.4948,-0.3066,0.0,-0.2745,-0.2745,-0.2759,-0.3344,-0.5099,-0.5302,-0.5298,-0.5168,-0.5095,-0.5132,-0.525,-0.5049,-0.5672,-0.7334,-0.7256,-0.7795,-0.9393,-0.9094,-0.8764,-0.8445,-0.7855,0.0,0.0,0.0,0.0,0.0,0.0,0.0,0.0,0.0,0.0,0.0,0.0,0.0,0.0,0.0,0.0,0.0,0.0,0.0,0.0,0.0,0.0,0.0,0.0,0.0,0.0,0.0,0.0,0.0,0.0,0.0,0.0,0.0,0.0,0.0,0.0,0.0,0.0,0.0,0.0,0.0,0.0,0.0,0.0,-0.1378,-0.2111,-0.2191,-0.4457,-0.5506,-0.5587,-0.7686,-0.8657,-0.8733,-1.011,-1.1116,-1.1659,-1.0915,-0.9612,-0.8181,-0.8068,-0.7284,-0.6184,-0.6141,-0.6945,-0.7954,-0.7824,-0.8596,-0.9621,-0.9431,-0.9376,-0.9594,-1.0609,-0.9379,-0.7665,-0.8123,-0.7096,-0.6052,-0.7313,-0.7634,-0.8007,-0.9208,-0.9507,-0.9507,-0.9507,-0.9512,-0.9564,-0.9543,-0.7502,-0.5601,-0.4901,-0.4751,-0.4782,-0.4756,-0.4795,-0.4977,-0.5658,-0.5718,-0.5653,-0.5576,-0.5498,-0.5919,-0.6836,-0.6795,-0.7365,-0.8922,-0.8805,-0.8921,-0.9327,-1.0055,-1.0343,-1.005,-1.0654,-1.0323,0.0,0.0,0.0,0.0,0.0,0.0,0.0,0.0,0.0,0.0,0.0,0.0,0.0,0.0,0.0,0.0,0.0,0.0,0.0,0.0,0.0,0.0,0.0,0.0,0.0,0.0,0.0,0.0,0.0,0.0,0.0,0.0,0.0,0.0,-0.0764,-0.118,-0.1218,-0.1956,-0.2381,-0.2408,-0.1663,-0.1579,-0.2409,-0.307,-0.3817,-0.4643,-0.6873,-0.795,-0.8028,-1.0142,-1.1114,-1.119,-1.2498,-1.303,-1.303,-1.2983,-1.2003,-1.0491,-1.0328,-0.9505,-0.8332,-0.83,-0.904,-1.0156,-1.0002,-1.0792,-1.187,-1.1619,-1.1538,-1.1511,-1.1362,-1.0524,-0.9521,-0.9521,-0.8647,-0.8054,-0.9357,-0.9646,-1.0011,-1.1253,-1.1619,-1.1619,-1.1619,-1.1619,-1.1619,-1.1619,-0.9524,-0.7548,-0.6905,-0.6778,-0.6739,-0.6719,-0.6762,-0.7009,-0.753,-0.7632,-0.7891,-0.8386,-0.834,-0.8929,-1.0543,-0.9767,-0.9915,-1.1555,-1.0703,-1.0381,-1.089,-1.1548,-1.1763,-1.1612,-1.2248,-1.2272,-1.1554,0.0,0.0,0.0,0.0,0.0,0.0,0.0,0.0,0.0,0.0,0.0,0.0,0.0,0.0,0.0,0.0,0.0,0.0,0.0,0.0,0.0,0.0,0.0,0.0,0.0,0.0,0.0,0.0,0.0,0.0,-0.0076,-0.0079,-0.008,-0.2343,-0.3692,-0.3692,-0.5845,-0.7103,-0.709,-0.4937,-0.4764,-0.7094,-0.4937,-0.4937,-0.7266,-0.9511,-1.0634,-1.0634,-1.2665,-1.3634,-1.3614,-1.3315,-1.3186,-1.3166,-1.303,-1.2969,-1.2935,-1.2637,-1.2427,-1.2284,-1.2135,-1.2081,-1.2142,-1.2142,-1.2067,-1.204,-1.1884,-1.1837,-1.1803,-1.1667,-1.1619,-1.1619,-1.1619,-1.1619,-1.1619,-1.1619,-1.1619,-1.1619,-1.1619,-1.1619,-1.1619,-1.1619,-1.1619,-1.1619,-1.1619,-1.1619,-1.1058,-0.9199,-0.8894,-0.8857,-0.8815,-0.889,0.0,-1.1192,-1.151,-1.2238,-1.3908,-1.3789,-1.4339,-1.6237,-1.3992,-1.3271,-1.5144,-1.2812,-1.2212,-1.4099,-1.3507,-1.3122,-1.3176,-1.2628,-1.2726,-1.3508,0.0,0.0,0.0,0.0,0.0,0.0,0.0,0.0,0.0,0.0,0.0,0.0,0.0,0.0,0.0,0.0,0.0,0.0,0.0,0.0,0.0,0.0,0.0,0.0,0.0,0.0,0.0,0.0,0.0,0.0,-0.1435,-0.2432,-0.2565,-0.4728,-0.6038,-0.6169,-0.6709,-0.7073,-0.7094,-0.649,-0.649,-0.7094,-0.8129,-0.8908,-0.9597,-1.1847,-1.2889,-1.2882,-1.3455,-1.3729,-1.3627,-1.3539,-1.3444,-1.3336,-1.3295,-1.3214,-1.3098,-1.2908,-1.2739,-1.2603,-1.2562,-1.2413,-1.223,-1.223,-1.2155,-1.2054,-1.2013,-1.1925,-1.1823,-1.1782,-1.1701,-1.1619,-1.1619,-1.1619,-1.1619,-1.1619,-1.1619,-1.1619,-1.1619,-1.1619,-1.1619,-1.1619,-1.1619,-1.1619,-1.1619,-1.2674,-1.3428,-1.294,-1.2861,-1.3263,-1.4614,-1.4859,-1.5017,-1.5472,-1.5588,-1.5696,-1.5885,-1.5789,-1.5835,-1.6035,-1.5114,-1.4617,-1.4791,-1.378,-1.337,-1.3836,-1.4647,-1.5596,-1.6596,-1.611,-1.5719,0.0,0.0,0.0,0.0,0.0,0.0,0.0,0.0,0.0,0.0,0.0,0.0,0.0,0.0,0.0,0.0,0.0,0.0,0.0,0.0,0.0,0.0,0.0,0.0,0.0,0.0,-0.0377,-0.125,-0.143,-0.1776,-0.2794,-0.4047,-0.4919,-0.5094,-0.7166,-0.8509,-0.8614,-0.9531,-1.0083,-1.0083,-0.9118,-0.9118,-1.0083,-1.0431,-1.1134,-1.2097,-1.342,-1.4034,-1.4034,-1.3966,-1.3892,-1.381,-1.3743,-1.3634,-1.3498,-1.3498,-1.3403,-1.3254,0.0,0.0,0.0,0.0,-1.2623,-1.2467,-1.24,-1.2318,-1.2237,-1.2176,-1.2094,-1.2013,-1.1945,-1.187,-1.1803,-1.1803,-1.1803,-1.1803,-1.1803,-1.1803,-1.1789,-1.1721,-1.1708,-1.1694,-1.1633,-1.1619,-1.1828,-1.2602,-1.3658,0.0,-1.6535,-1.6122,-1.5953,-1.6987,-1.7187,-1.7147,-1.7127,-1.7197,-1.7436,-1.7992,-1.7941,-1.8037,-1.8545,-1.7323,0.0,0.0,0.0,-1.5121,-1.5482,-1.6302,0.0,0.0,0.0,0.0,0.0,-1.7515,0.0,0.0,-1.6336,-1.6062,0.0,0.0,0.0,0.0,0.0,0.0,0.0,0.0,0.0,0.0,0.0,0.0,0.0,0.0,0.0,0.0,-0.0215,-0.0374,-0.0391,-0.0631,-0.142,-0.3072,-0.3566,-0.4648,-0.6707,-0.7116,-0.7366,-0.7533,-0.9701,-1.1079,-1.1095,-1.3154,0.0,0.0,0.0,-1.2148,-1.4299,-1.2148,-1.2148,-1.4299,-1.4299,-1.4299,-1.4292,-1.4156,-1.4089,-1.4061,-1.3926,-1.3783,-1.3654,-1.3634,-1.3539,-1.3383,-1.3234,-1.3098,-1.2969,-1.2813,-1.2759,-1.2732,-1.2583,0.0,0.0,-1.2359,-1.2305,-1.2264,-1.2128,-1.2074,-1.2135,-1.2135,-1.2135,-1.2135,-1.2135,-1.2135,-1.2026,-1.1891,-1.1843,-1.1796,-1.1674,-1.177,-1.2395,-1.4077,-1.4787,-1.6122,-1.9495,-1.8648,-1.7537,-1.7675,-1.7743,-1.7806,-1.7665,-1.7753,-1.8497,-2.0154,-2.0078,0.0,-2.2231,-2.0106,-1.9361,-2.0966,-1.8437,-1.7254,-1.8169,-1.8209,-1.8222,-1.8195,-1.8531,-1.8931,-1.947,-1.9733,-1.992,-1.9907,-1.8023,-1.7836,0.0,0.0,0.0,0.0,0.0,0.0,0.0,0.0,0.0,0.0,0.0,0.0,0.0,0.0,0.0,0.0,-0.148,-0.2643,-0.2773,-0.4275,-0.4898,-0.3431,-0.5049,-0.6376,-0.6863,-0.865,-0.9869,-0.9981,-1.2114,-1.3504,-1.3621,-1.4013,-1.4299,-1.4299,-1.385,-1.385,-1.4299,-1.385,-1.385,-1.4299,-1.4299,0.0,-1.4299,-1.4272,-1.419,-1.4068,-1.4041,-1.3939,-1.379,-1.3675,-1.3539,-1.3383,-1.3234,-1.3152,-1.3112,-1.2969,-1.2915,-1.2895,-1.2739,-1.2684,-1.2664,-1.2508,-1.2386,-1.2284,-1.2257,-1.2162,0.0,-1.2135,-1.2135,-1.2135,-1.2135,-1.2135,-1.2054,-1.2026,-1.1925,-1.1823,-1.1796,-1.2835,-1.3943,-1.4361,-1.6887,-1.9217,-1.9982,-1.9773,-2.0039,-2.1521,-2.1765,-2.179,-2.1726,-2.1777,-2.1864,-2.1904,-2.1906,-2.191,-2.2084,-2.1396,-2.0882,-2.0788,-1.9747,-1.9272,-1.9452,-1.9679,-1.9693,-1.9466,-1.9746,-1.984,-1.972,-2.0254,-2.0628,-2.0842,-2.0201,-1.9933,0.0,0.0,0.0,0.0,0.0,0.0,0.0,0.0,0.0,0.0,0.0,0.0,0.0,0.0,0.0,0.0,-0.1924,-0.3338,-0.3397,-0.6295,-0.8003,-0.6891,-0.7885,-0.9093,-1.036,-1.156,-1.2352,-1.2483,-1.3627,-1.4326,-1.4401,-1.4475,-1.4523,-1.4523,-1.4523,-1.4523,-1.4523,-1.4523,-1.4523,-1.4523,-1.4523,-1.4482,-1.4407,-1.4407,-1.4326,-1.4183,-1.4183,-1.4102,-1.3939,-1.3722,-1.3587,-1.3498,-1.3349,-1.3288,-1.3268,-1.3119,-1.3064,-1.3044,-1.2895,-1.2793,-1.2718,-1.2637,-1.2515,-1.2393,-1.2393,-1.2345,-1.2284,-1.2284,-1.2284,-1.2284,-1.2284,-1.2284,-1.2264,-1.2196,-1.2115,-1.2236,-1.3094,-1.3922,-1.5114,-1.6916,-1.8787,-2.0409,-2.1321,-2.1527,-2.1803,-2.2791,-2.2928,-2.2928,-2.2928,-2.2928,-2.2806,-2.2659,-2.2645,-2.2579,-2.2432,-2.2151,-2.1737,-2.1212,-2.0842,-2.0615,-2.0468,-2.0601,-2.0601,-2.0454,-2.0748,-2.0815,-2.0681,-2.1122,-2.1403,-2.155,-2.155,-2.139,0.0,0.0,0.0,0.0,0.0,0.0,0.0,0.0,0.0,0.0,0.0,0.0,0.0,0.0,0.0,0.0,-0.191,-0.3553,-0.395,-0.7506,-1.0282,-1.0909,-1.0941,-1.1789,-1.3867,-1.4095,-1.4177,-1.4333,-1.4448,-1.4523,-1.4557,-1.4672,-1.474,-1.474,-1.474,-1.474,-1.474,-1.474,-1.474,-1.474,-1.474,-1.4672,-1.4557,-1.4523,-1.4448,-1.434,-1.4312,-1.4211,-1.4055,-1.381,-1.3682,-1.3614,-1.3492,-1.3424,-1.3383,-1.3261,-1.3214,-1.32,-1.3051,-1.2922,-1.2807,-1.2752,-1.2644,-1.2542,-1.2508,-1.2501,-1.2501,-1.2501,-1.2501,-1.2501,-1.2501,-1.2501,-1.2474,-1.2359,-1.2311,-1.2745,-1.4457,-1.5052,-1.6243,-1.9539,-2.0445,-2.1113,-2.2654,-2.2928,-2.2928,-2.2928,-2.2928,-2.2928,-2.2928,-2.2928,-2.2928,-2.2928,-2.2928,-2.2928,-2.2928,-2.2592,-2.2218,-2.175,-2.1735,-2.1523,-2.1283,-2.1283,-2.1283,-2.1283,-2.151,-2.1695,-2.1695,-2.1924,-2.2071,-2.2071,-2.2365,-2.2352,0.5173,0.3588,0.1729,0.0509,0.0174,0.0121,0.0,0.0,0.0,0.0,0.0,0.0,0.0,0.0,0.0,0.0,-0.1866,-0.403,-0.6013,-0.8471,-1.0909,-1.2991,-1.3298,-1.3621,-1.4055,-1.4197,-1.4333,-1.4475,-1.4502,-1.457,-1.4706,-1.4733,-1.474,-1.474,-1.474,-1.474,-1.474,-1.474,-1.474,-1.474,-1.474,-1.4733,-1.4713,-1.457,-1.4502,-1.4482,-1.4353,-1.4211,-1.4068,-1.4034,-1.3865,-1.3627,-1.3607,-1.3519,-1.3397,-1.3383,-1.3376,-1.3356,-1.32,-1.3139,-1.3078,-1.2813,-1.2718,-1.2678,-1.2542,-1.2501,-1.2501,-1.2501,-1.2501,-1.2501,-1.2501,-1.2501,-1.2501,-1.2481,-1.2379,-1.2802,-1.4835,-1.625,-1.7857,-2.0039,-2.1622,-2.2654,-2.2859,-2.2928,-2.2928,-2.2928,-2.2928,-2.2928,-2.2928,-2.2928,-2.2928,-2.2928,-2.2928,-2.2928,-2.2928,-2.2592,-2.2392,-2.2325,-2.2084,-2.1924,-2.1884,-2.1884,-2.1884,-2.1884,-2.1924,-2.1937,-2.1937,-2.2231,-2.2378,-2.2378,-2.2672,-2.2659,0.3637,0.2081,0.0582,0.0121,0.0,0.0,0.0,0.0,0.0,0.0,0.0,0.0,0.0,0.0,0.0,0.0,-0.2998,-0.5712,-0.6553,-0.9859,-1.2508,-1.3415,-1.3627,-1.381,-1.4048,-1.4211,-1.436,-1.4502,-1.459,-1.4713,-1.4869,-1.495,-1.4997,-1.4997,-1.4997,-1.4997,-1.4997,-1.4997,-1.4997,-1.4997,-1.4997,-1.4957,-1.4869,-1.4808,-1.4679,-1.4502,-1.436,-1.4265,-1.4197,-1.4109,-1.4,-1.3871,-1.3695,-1.3593,-1.3526,-1.3437,-1.3403,-1.339,-1.3329,-1.3247,-1.3152,-1.303,-1.2868,-1.2718,-1.2657,-1.2569,-1.2501,-1.2501,-1.2501,-1.2501,-1.2501,-1.2501,-1.2501,-1.2501,-1.2454,-1.3221,-1.6253,-1.7423,-1.8684,-2.1583,-2.2649,-2.3073,-2.2968,-2.2928,-2.2928,-2.2928,-2.2928,-2.2928,-2.2928,-2.2928,-2.2928,-2.2928,-2.2928,-2.2928,-2.2928,-2.2752,-2.2672,-2.2672,-2.2565,-2.2498,-2.2498,-2.2498,-2.2498,-2.2498,-2.2498,-2.2498,-2.2498,-2.2619,-2.2672,-2.2686,-2.2806,-2.2792,0.1961,0.0797,0.0,0.0,0.0,-0.0142,-0.071,-0.0865,-0.1034,-0.1612,-0.1719,-0.158,-0.0957,-0.0896,-0.0913,-0.1008,-0.381,-0.6384,-0.7495,-1.053,-1.2759,-1.3327,-1.3498,-1.3682,-1.398,-1.415,-1.4333,-1.4557,-1.4679,-1.4828,-1.5018,-1.5126,-1.5181,-1.5181,-1.5181,-1.5181,-1.5181,-1.5181,-1.5181,-1.5181,-1.5181,-1.5126,-1.5025,-1.4991,-1.4801,-1.4509,-1.4401,-1.434,-1.4292,-1.4183,-1.4109,-1.4048,-1.3838,-1.3702,-1.3614,-1.3505,-1.3437,-1.3403,-1.3403,-1.3329,-1.3227,-1.3186,-1.303,-1.2847,-1.2807,-1.2684,-1.2562,-1.2562,-1.2535,-1.2501,-1.2501,-1.2501,-1.2501,-1.2501,-1.2501,-1.3538,-1.7396,-1.813,-1.918,-2.2853,-2.3434,-2.326,-2.3033,-2.2926,-2.2928,-2.2928,-2.2928,-2.2928,-2.2928,-2.2928,-2.2928,-2.2928,-2.2928,-2.2928,-2.2928,-2.2928,-2.2928,-2.2928,-2.2928,-2.2928,-2.2928,-2.2928,-2.2928,-2.2928,-2.2928,-2.2928,-2.2928,-2.2928,-2.2928,-2.2928,-2.2928,-2.2928,0.0458,0.006,0.0,0.0,0.0,-0.0515,-0.2512,-0.2994,-0.3621,-0.5693,-0.6076,-0.549,-0.3425,-0.3006,-0.3147,-0.3435,-0.3641,-0.5197,-0.962,-1.0121,-1.097,-1.3148,-1.3403,-1.3526,-1.3817,-1.3987,-1.4258,-1.4699,-1.474,-1.4869,-1.516,-1.5181,-1.5181,-1.5181,-1.5181,-1.5181,-1.5181,-1.5181,-1.5181,-1.5181,-1.5181,-1.5181,-1.5174,-1.5031,-1.4801,-1.4509,-1.4509,-1.4428,-1.4299,-1.4292,-1.4204,-1.4068,-1.4061,-1.3885,-1.3627,-1.3627,-1.3532,-1.3403,-1.3403,-1.3397,-1.337,-1.322,-1.3166,-1.3132,-1.2996,-1.2847,-1.2725,-1.2725,-1.2617,-1.2501,-1.2501,-1.2501,-1.2501,-1.2501,-1.2501,-1.3645,-1.773,-1.8315,-1.9276,-2.3357,-2.3714,-2.3327,-2.3313,-2.306,-2.2928,-2.2928,-2.2928,-2.2928,-2.2928,-2.2928,-2.2928,-2.2928,-2.2928,-2.2928,-2.2928,-2.2928,-2.2928,-2.2928,-2.2928,-2.2928,-2.2928,-2.2928,-2.2928,-2.2928,-2.2928,-2.2928,-2.2928,-2.2928,-2.2928,-2.2928,-2.2928,-2.2928,0.0122,0.0,-0.0338,-0.1694,-0.2058,-0.2578,-0.4752,-0.5257,-0.5358,-0.5955,-0.6045,-0.5739,-0.4927,-0.4857,-0.4981,-0.5363,-0.6899,-0.8535,-1.0053,-1.1738,-1.2841,-1.3213,-1.3431,-1.3593,-1.3688,-1.3926,-1.4258,-1.4706,-1.474,-1.4869,-1.5167,-1.5181,-1.5181,-1.5181,-1.5181,-1.5181,-1.5181,-1.5181,-1.5181,-1.5181,-1.5181,-1.5181,-1.5174,-1.5038,-1.4855,-1.4658,-1.4557,-1.4428,-1.4299,-1.4299,-1.4272,-1.4211,-1.4109,-1.4014,-1.3899,-1.3702,-1.3593,-1.3539,-1.3437,-1.3403,-1.339,-1.3342,-1.3254,-1.3166,-1.3119,-1.2996,-1.2861,-1.2759,-1.2691,-1.263,-1.2528,-1.2501,-1.2501,-1.2501,-1.2501,-1.3259,-1.5998,-1.753,-1.9169,-2.1702,-2.3156,-2.3781,-2.3394,-2.3247,-2.31,-2.2968,-2.2928,-2.2928,-2.2928,-2.2928,-2.2928,-2.2928,-2.2928,-2.2366,-2.1183,-2.216,-2.2366,-2.1113,-2.2229,-2.2928,-2.2928,-2.2928,-2.2928,-2.2928,-2.2928,-2.2928,-2.2928,-2.2928,-2.2928,-2.2928,-2.2928,-2.2928,-0.091,-0.1088,-0.1618,-0.3742,-0.423,-0.477,-0.6945,-0.7358,-0.7517,-0.8148,-0.8049,-0.7668,-0.6817,-0.6751,-0.6903,-0.7313,-0.893,-1.0399,-1.1328,-1.2895,-1.379,-1.3451,-1.3539,-1.3675,-1.3777,-1.396,-1.4238,-1.4631,-1.4706,-1.4848,-1.5092,-1.5153,-1.5181,-1.5181,-1.5181,-1.5181,-1.5181,-1.5181,-1.5181,-1.5181,-1.5181,-1.5181,-1.5181,-1.5086,-1.4936,-1.4733,-1.4638,-1.4482,-1.4299,-1.4299,-1.4299,-1.4292,-1.419,-1.4122,-1.4048,-1.3858,-1.3722,-1.3607,-1.3451,-1.3403,-1.3403,-1.3403,-1.3336,-1.3254,-1.3254,-1.3152,-1.3017,-1.2915,-1.2813,-1.2705,-1.261,-1.2542,-1.2501,-1.2501,-1.3035,-1.4099,-1.6142,-1.8194,-2.0186,-2.2067,-2.3374,-2.4088,-2.3701,-2.3554,-2.338,-2.3073,-2.3033,-2.2993,-2.2873,-2.2928,-2.2928,-2.2928,-2.2297,-2.139,-2.0201,-2.0548,-2.034,-1.9147,-2.019,-2.117,-2.1872,-2.1885,-2.2229,-2.2859,-2.2928,-2.2928,-2.2928,-2.2928,-2.2928,-2.2928,-2.2928,-2.2928,-0.2747,-0.3252,-0.3765,-0.5919,-0.6452,-0.7011,-0.9109,-0.9433,-0.9889,-1.1865,-1.1891,-1.0966,-0.9159,-0.8753,-0.9022,-0.9598,-1.0046,-1.1117,-1.3425,-1.3816,-1.3793,-1.3838,-1.3743,-1.3777,-1.4068,-1.4095,-1.4217,-1.4502,-1.4658,-1.4808,-1.497,-1.5113,-1.5181,-1.5181,-1.5181,-1.5181,-1.5181,-1.5181,-1.5181,-1.5181,-1.5181,-1.5181,-1.5181,-1.5181,-1.5025,-1.4753,-1.474,-1.4577,-1.4312,-1.4306,-1.4299,-1.4299,-1.4299,-1.4211,-1.4082,-1.4075,-1.3892,-1.362,-1.3464,-1.341,-1.3403,-1.3403,-1.3403,-1.3403,-1.3403,-1.3302,-1.3186,-1.3173,-1.305,-1.2903,-1.2889,-1.2851,-1.2817,-1.2811,-1.4253,-1.6218,-1.8194,-2.0155,-2.2124,-2.4105,-2.4322,-2.4209,-2.4209,-2.3968,-2.3674,-2.3394,-2.3354,-2.3233,-2.2968,-2.2928,-2.2928,-2.2928,-2.1252,-2.0051,-1.9982,-1.8229,-1.7178,-1.7037,-1.7178,-1.8019,-1.9843,-2.0051,-2.0963,-2.2722,-2.2859,-2.2928,-2.2928,-2.2928,-2.2928,-2.2928,-2.2928,-2.2928,-0.5128,-0.5367,-0.5971,-0.8107,-0.8573,-0.9161,-1.1121,-1.1543,-1.1547,-1.1635,-1.1355,-1.0825,-1.006,-1.1478,-1.2919,-1.3579,-1.5758,-1.7018,-1.6337,-1.6534,-1.6065,-1.4281,-1.4082,-1.4197,-1.438,-1.4401,-1.4475,-1.4665,-1.4719,-1.4855,-1.5113,-1.516,-1.5181,-1.5181,-1.5181,-1.5181,-1.5181,-1.5181,-1.5181,-1.5181,-1.5181,-1.5181,-1.5181,-1.5181,-1.5086,-1.4903,-1.4787,-1.4631,-1.4448,-1.4346,-1.4299,-1.4299,-1.4299,-1.4278,-1.4231,-1.4116,-1.3953,-1.377,-1.362,-1.3498,-1.3403,-1.3403,-1.3403,-1.3403,-1.3403,-1.337,-1.3315,-1.3207,-1.4319,-1.5385,-1.512,-1.6173,-1.7318,-1.7093,-1.7436,-1.7967,-1.8497,-2.0155,-2.1751,-2.2285,-2.3344,-2.4209,-2.4209,-2.3968,-2.3741,-2.3674,-2.3661,-2.346,-2.2995,-2.2928,-2.2928,-2.2928,-2.1252,-1.9495,-1.8089,-1.7458,-1.6615,-1.5203,-1.6404,-1.7388,-1.7949,-1.9356,-2.034,-2.0825,-2.216,-2.2928,-2.2928,-2.2928,-2.2928,-2.2928,-2.2928,-2.2928,-0.7225,-0.8239,-0.9479,-1.1562,-1.2644,-1.3415,-1.4104,-1.4132,-1.3745,-1.2903,-1.2546,-1.225,-1.1811,-1.3396,-1.4965,-1.5575,-1.7849,-1.9283,-1.8597,-1.8077,-1.7318,-1.6003,-1.5017,-1.4523,-1.4604,-1.4611,-1.4672,-1.4828,-1.4841,-1.4916,-1.5079,-1.5147,-1.5181,-1.5181,-1.5181,-1.5181,-1.5181,-1.5181,-1.5181,-1.5181,-1.5181,-1.5181,-1.5181,-1.5181,-1.5106,-1.4964,-1.4808,-1.4652,-1.4502,-1.436,-1.4299,-1.4299,-1.4299,-1.4299,-1.4292,-1.4204,-1.4075,-1.3919,-1.3777,-1.3627,-1.3492,-1.3424,-1.3403,-1.3403,-1.3403,-1.4052,-1.4766,-1.475,-1.6201,-1.775,-1.7428,-1.8126,-1.8922,-1.8623,-1.9252,-1.993,-1.993,-2.1527,-2.2893,-2.2893,-2.3667,-2.4396,-2.4396,-2.4262,-2.4102,-2.3981,-2.3968,-2.3794,-2.3313,-2.3153,-2.3006,-2.2873,-2.1252,-1.9286,-1.7388,-1.6404,-1.5141,-1.3309,-1.4156,-1.5495,-1.7107,-1.8229,-1.9634,-2.1321,-2.2366,-2.2928,-2.2928,-2.2928,-2.2928,-2.2928,-2.2928,-2.2928,-0.9548,-1.1485,-1.3348,-1.537,-1.6973,-1.7836,-1.7005,-1.6235,-1.5471,-1.4326,-1.3756,-1.3457,-1.324,-1.4428,-1.5765,-1.6717,-1.8508,-1.9969,-2.0641,-1.9552,-1.8707,-1.8494,-1.6822,-1.5588,-1.5244,-1.5251,-1.5216,-1.5083,-1.4997,-1.4997,-1.4997,-1.5113,-1.5181,-1.5181,-1.5181,-1.5181,-1.5181,-1.5181,-1.5181,-1.5181,-1.5181,-1.5181,-1.5181,-1.5181,-1.5106,-1.4964,-1.4808,-1.4652,-1.4502,-1.436,-1.4299,-1.4299,-1.4299,-1.4299,-1.4299,-1.4299,-1.4204,-1.4048,-1.3892,-1.3749,-1.3607,-1.3451,-1.3403,-1.3486,-1.3728,-1.511,-1.6647,-1.6975,-1.8546,-2.004,-1.9734,-1.9839,-1.9849,-1.9508,-2.0812,-2.2023,-2.1987,-2.3339,-2.4636,-2.4636,-2.4636,-2.4636,-2.4636,-2.4636,-2.4556,-2.4302,-2.4262,-2.4155,-2.3861,-2.3527,-2.322,-2.2953,-2.1264,-1.9426,-1.7739,-1.5628,-1.38,-1.2395,-1.2115,-1.3523,-1.7037,-1.7458,-1.9147,-2.2435,-2.2791,-2.2928,-2.2928,-2.2928,-2.2928,-2.2928,-2.2928,-2.2928,-1.3717,-1.4629,-1.5446,-1.7502,-1.8101,-1.7869,-1.6887,-1.5341,-1.3809,-1.2544,-1.1097,-1.0349,-1.1334,-1.3529,-1.6151,-1.8777,-2.1706,-2.3502,-2.3236,-2.3399,-2.2946,-2.1432,-2.1042,-2.0244,-1.8391,-1.813,-1.732,-1.5327,-1.5147,-1.5147,-1.5147,-1.5167,-1.5181,-1.5181,-1.5181,-1.5181,-1.5181,-1.5181,-1.5181,-1.5181,-1.5181,-1.5181,-1.5181,-1.5181,-1.5106,-1.4964,-1.4808,-1.4652,-1.4502,-1.436,-1.4299,-1.4299,-1.4299,-1.4299,-1.4299,-1.4299,-1.4204,-1.4048,-1.3892,-1.3749,-1.3607,-1.3451,-1.3403,-1.3728,-1.5514,-1.6319,-1.6975,-1.8851,-2.0846,-2.2453,-2.2201,-2.3453,-2.4637,-2.4123,-2.4233,-2.4393,-2.4158,-2.4341,-2.4636,-2.4636,-2.4636,-2.4636,-2.4636,-2.4636,-2.4549,-2.4569,-2.4556,-2.4449,-2.4168,-2.3661,-2.33,-2.3247,-2.1319,-1.9982,-1.9634,-1.6404,-1.4929,-1.6131,-1.4787,-1.4929,-1.7107,-1.8718,-1.9912,-2.0548,-2.2091,-2.2928,-2.2928,-2.2928,-2.2928,-2.2928,-2.2928,-2.2928,-1.4824,-1.6223,-1.7559,-1.9479,-2.0365,-2.0215,-1.7994,-1.653,-1.4973,-1.2589,-1.1549,-1.1185,-1.146,-1.3332,-1.5365,-1.7032,-1.942,-2.1557,-2.3186,-2.3033,-2.2503,-2.1896,-2.1005,-2.0143,-1.9048,-1.7763,-1.7032,-1.7118,-1.5924,-1.5181,-1.5181,-1.5181,-1.5181,-1.5181,-1.5181,-1.5181,-1.5181,-1.5181,-1.5181,-1.5181,-1.5181,-1.5181,-1.5181,-1.5181,-1.5106,-1.4964,-1.4808,-1.4652,-1.4502,-1.436,-1.4299,-1.4299,-1.4299,-1.4299,-1.4299,-1.4299,-1.4251,-1.4156,-1.3919,-1.3797,-1.3702,-1.3478,-1.3403,-1.3811,-1.5917,-1.7384,-1.876,-2.0958,-2.314,-2.4777,-2.45,-2.5231,-2.5852,-2.5411,-2.5304,-2.5224,-2.493,-2.4863,-2.4823,-2.4663,-2.4636,-2.4636,-2.4636,-2.4636,-2.4636,-2.4636,-2.4636,-2.4583,-2.4449,-2.4048,-2.3728,-2.3581,-2.2634,-2.1604,-2.0592,-1.8877,-1.7684,-1.7501,-1.6638,-1.6874,-1.8659,-1.9565,-2.0548,-2.1527,-2.2435,-2.2928,-2.2928,-2.2928,-2.2928,-2.2928,-2.2928,-2.2953,-1.4941,-1.7019,-1.8898,-2.0229,-2.1629,-2.1795,-1.8474,-1.7291,-1.5932,-1.2638,-1.187,-1.1719,-1.1579,-1.27,-1.3984,-1.4952,-1.6338,-1.8707,-2.2541,-2.182,-2.1515,-2.3104,-2.1092,-1.9882,-2.0437,-1.8228,-1.7398,-1.8778,-1.6565,-1.5181,-1.5181,-1.5181,-1.5181,-1.5181,-1.5181,-1.5181,-1.5181,-1.5181,-1.5181,-1.5181,-1.5181,-1.5181,-1.5181,-1.5181,-1.5086,-1.4916,-1.4794,-1.4638,-1.4455,-1.4346,-1.4299,-1.4299,-1.4299,-1.4299,-1.4299,-1.4299,-1.4299,-1.4339,-1.4456,-1.418,-1.379,-1.3985,-1.3811,-1.3894,-1.6492,-1.8516,-2.0473,-2.306,-2.5092,-2.6333,-2.6106,-2.613,-2.5972,-2.5678,-2.5558,-2.5451,-2.5224,-2.5117,-2.501,-2.4783,-2.4676,-2.4636,-2.4636,-2.4636,-2.4636,-2.4636,-2.4636,-2.4636,-2.4636,-2.4436,-2.4209,-2.3981,-2.3848,-2.3171,-2.1629,-2.1114,-2.0373,-1.9107,-1.8585,-1.9129,-2.0714,-2.0783,-2.1452,-2.2859,-2.2928,-2.2928,-2.2928,-2.2926,-2.2966,-2.2966,-2.3033,-2.3193,-1.5227,-1.6907,-1.8587,-1.8577,-1.9576,-1.9692,-1.6509,-1.5481,-1.4354,-1.1223,-0.9453,-0.8857,-1.0272,-1.093,-1.2126,-1.5007,-1.5909,-1.7872,-2.2433,-2.1676,-2.2521,-2.7705,-2.4643,-2.3014,-2.5309,-2.3289,-2.0991,-1.9048,-1.6565,-1.5181,-1.5181,-1.5181,-1.5181,-1.5181,-1.5181,-1.5181,-1.5181,-1.5181,-1.5181,-1.5181,-1.5181,-1.5181,-1.5181,-1.5181,-1.5031,-1.476,-1.4746,-1.4577,-1.4319,-1.4306,-1.4299,-1.4299,-1.4299,-1.4299,-1.4299,-1.4299,-1.4299,-1.4516,-1.6245,-1.5446,-1.4039,-1.579,-1.5028,-1.4217,-1.8363,-1.9745,-2.0797,-2.4933,-2.6228,-2.6386,-2.636,-2.6346,-2.6279,-2.5985,-2.5705,-2.5504,-2.5478,-2.5264,-2.5077,-2.5037,-2.4823,-2.4636,-2.4636,-2.4636,-2.4636,-2.4636,-2.4636,-2.4636,-2.4636,-2.4609,-2.4583,-2.4556,-2.4088,-2.3696,-2.3554,-2.1916,-2.1545,-2.3145,-2.1593,-2.1328,-2.2937,-2.2994,-2.2945,-2.2873,-2.2928,-2.2928,-2.2928,-2.314,-2.3287,-2.3287,-2.3567,-2.3701,-1.4894,-1.5993,-1.6972,-1.7822,-1.8888,-1.8676,-1.4657,-1.4103,-1.3407,-0.9705,-0.8421,-0.8208,-0.8857,-0.9158,-0.9836,-1.1288,-1.1854,-1.3448,-1.7296,-1.7718,-1.9262,-2.3591,-2.2923,-2.32,-2.5911,-2.393,-2.2096,-2.1175,-1.8778,-1.7398,-1.7398,-1.6011,-1.5181,-1.5181,-1.5181,-1.5181,-1.5181,-1.5181,-1.5181,-1.5181,-1.5181,-1.5181,-1.5181,-1.5092,-1.4943,-1.4733,-1.4645,-1.4489,-1.4299,-1.4299,-1.4299,-1.4299,-1.4299,-1.4299,-1.4299,-1.4299,-1.5168,-1.6506,-1.6922,-1.7468,-1.7727,-1.6848,-1.6893,-1.7638,-1.9339,-1.9907,-2.0797,-2.5171,-2.6386,-2.6386,-2.6386,-2.6386,-2.636,-2.6239,-2.6132,-2.5985,-2.5825,-2.5692,-2.5558,-2.5371,-2.5237,-2.5104,-2.493,-2.4903,-2.4836,-2.4663,-2.4636,-2.4636,-2.4636,-2.4636,-2.4636,-2.4636,-2.4436,-2.4289,-2.4289,-2.3533,-2.3383,-2.3963,-2.3287,-2.3086,-2.3607,-2.3594,-2.3541,-2.3407,-2.3407,-2.3407,-2.3407,-2.3527,-2.3594,-2.3594,-2.3714,-2.3861,-1.3808,-1.4778,-1.552,-1.6003,-1.6896,-1.6604,-1.2663,-1.26,-1.2342,-0.8729,-0.7988,-0.7988,-0.7988,-0.8167,-0.8404,-0.8804,-0.9157,-1.059,-1.4015,-1.5018,-1.671,-2.025,-2.0897,-2.2058,-2.4609,-2.3406,-2.2831,-2.3564,-2.136,-1.9697,-1.8964,-1.7211,-1.5924,-1.5181,-1.5181,-1.5181,-1.5181,-1.5181,-1.5181,-1.5181,-1.5181,-1.5181,-1.5174,-1.5038,-1.4889,-1.4733,-1.4577,-1.4428,-1.4299,-1.4299,-1.4299,-1.4299,-1.4299,-1.4299,-1.4299,-1.4299,-1.5308,-1.6863,-1.7741,-1.868,-1.9404,-1.8711,-1.9167,-1.9988,-2.0635,-2.0878,-2.1603,-2.533,-2.6386,-2.6386,-2.6386,-2.6386,-2.6386,-2.6386,-2.6386,-2.6333,-2.6132,-2.609,-2.5892,-2.5678,-2.5571,-2.5451,-2.5237,-2.5211,-2.5104,-2.481,-2.477,-2.473,-2.4649,-2.4636,-2.4636,-2.4636,-2.4636,-2.4636,-2.4636,-2.4636,-2.4556,-2.4342,-2.4329,-2.4195,-2.3915,-2.3901,-2.3861,-2.3768,-2.3768,-2.3768,-2.3768,-2.3861,-2.3901,-2.3901,-2.3981,-2.4142,-1.1901,-1.3225,-1.4588,-1.2377,-1.2702,-1.2906,-1.0417,-1.0732,-1.0844,-0.8513,-0.7988,-0.7988,-0.7988,-0.8167,-0.837,-0.8662,-0.9089,-1.0635,-1.4133,-1.4647,-1.6091,-1.9885,-1.9534,-1.9775,-2.1581,-2.2219,-2.3564,-2.5957,-2.3941,-2.1452,-1.9056,-1.8871,-1.7763,-1.5275,-1.5181,-1.5181,-1.5181,-1.5181,-1.5181,-1.5181,-1.5181,-1.5181,-1.5174,-1.5038,-1.4889,-1.4733,-1.4577,-1.4428,-1.4299,-1.4299,-1.4299,-1.4299,-1.4299,-1.4299,-1.4299,-1.4299,-1.4204,-1.4735,-1.8875,-1.8838,-1.7648,-2.168,-2.1603,-2.0312,-2.2407,-2.306,-2.354,-2.574,-2.6386,-2.6386,-2.6386,-2.6386,-2.6386,-2.6386,-2.6386,-2.6386,-2.6386,-2.6159,-2.6037,-2.6037,-2.5718,-2.5518,-2.5504,-2.5504,-2.5411,-2.5117,-2.5077,-2.497,-2.4676,-2.4636,-2.4636,-2.4636,-2.4636,-2.4636,-2.4636,-2.4636,-2.4636,-2.4636,-2.4636,-2.4502,-2.4209,-2.4195,-2.4062,-2.3781,-2.3768,-2.3768,-2.3768,-2.4062,-2.4195,-2.4209,-2.4489,-2.4549,-1.0571,-1.1247,-1.1723,-1.0875,-1.166,-1.2016,-0.9708,-1.0248,-1.0587,-0.8442,-0.7988,-0.7988,-0.7988,-0.8029,-0.8343,-0.9055,-0.9286,-0.9968,-1.1703,-1.382,-1.5892,-1.7571,-2.1421,-2.4845,-2.7068,-2.7504,-2.7883,-2.8719,-2.6411,-2.4021,-2.1452,-1.9789,-1.7763,-1.5275,-1.5181,-1.5181,-1.5181,-1.5181,-1.5181,-1.5181,-1.5181,-1.5133,-1.5031,-1.4882,-1.4733,-1.4577,-1.4428,-1.434,-1.4299,-1.4299,-1.4299,-1.4299,-1.4299,-1.4299,-1.4299,-1.4299,-1.6189,-1.8821,-1.9878,-2.1739,-2.3562,-2.3222,-2.3632,-2.4191,-2.338,-2.314,-2.354,-2.5819,-2.6386,-2.6386,-2.6386,-2.6386,-2.6386,-2.6386,-2.6386,-2.6386,-2.6386,-2.6319,-2.6253,-2.6253,-2.6172,-2.6052,-2.5852,-2.5812,-2.5718,-2.5424,-2.5371,-2.5264,-2.497,-2.4943,-2.4863,-2.4589,-2.4636,-2.4636,-2.4636,-2.4636,-2.4636,-2.4636,-2.4636,-2.4596,-2.4502,-2.4502,-2.4449,-2.4369,-2.4369,-2.4369,-2.4369,-2.4449,-2.4502,-2.4502,-2.4596,-2.4636,-0.9733,-1.0012,-1.0195,-1.0012,-1.0538,-1.0666,-0.9259,-0.9478,-0.9636,-0.8306,-0.7988,-0.7988,-0.7988,-0.8478,-0.8881,-0.9051,-0.9681,-1.0263,-1.0579,-1.398,-1.735,-1.9855,-2.2744,-2.5731,-2.8982,-2.8832,-2.8899,-2.9824,-2.8436,-2.6502,-2.4021,-2.1544,-1.9149,-1.6658,-1.5643,-1.5181,-1.5181,-1.5181,-1.5181,-1.5181,-1.5181,-1.5106,-1.4964,-1.4808,-1.4658,-1.4502,-1.436,-1.4299,0.0,-1.4299,-1.4299,-1.4387,-1.5256,-1.5601,-1.569,-1.6553,-1.8545,-2.083,-2.1452,-2.3259,-2.532,-2.4572,-2.5251,-2.6149,-2.4761,-2.435,-2.4602,-2.5977,-2.6386,-2.6386,-2.6386,-2.6386,-2.6386,-2.6386,-2.6386,-2.6386,-2.6386,-2.6386,-2.6386,-2.6386,-2.6386,-2.6333,-2.6146,-2.6119,-2.6026,-2.5718,-2.5678,-2.5571,-2.5277,-2.5237,-2.513,-2.4836,-2.4796,-2.4756,-2.4649,-2.4636,-2.4636,-2.4636,-2.4636,-2.4636,-2.4636,-2.4636,-2.4636,-2.4636,-2.4636,-2.4636,-2.4636,-2.4636,-2.4636,-2.4636,-2.4636,-2.4636,0.0,-0.9483,-0.9707,-0.97,-0.9388,-0.9105,-0.8906,-0.856,0.0,-0.8022,-0.7988,-0.8002,-0.8029,-0.9226,-0.9847,-0.8765,-1.0158,-1.1209,-1.0826,-1.5005,-2.0,-2.5348,-2.3605,-2.3656,-2.7891,-2.7183,-2.7431,-2.9734,-2.9913,-2.8809,-2.632,-2.3838,-2.136,-1.8964,-1.6471,-1.5181,-1.5181,-1.5181,-1.5181,-1.5181,-1.5174,-1.5092,-1.495,-1.4794,-1.4638,-1.4489,-1.4353,-1.4299,-1.4299,-1.4299,-1.4387,-1.4734,-1.6984,-1.7929,-1.8279,-2.0443,-2.1023,-2.1139,-2.3075,-2.3575,-2.37,-2.574,-2.6386,-2.6386,-2.6386,-2.6386,-2.6386,-2.6386,-2.6386,-2.6386,-2.6386,-2.6386,-2.6386,-2.6386,-2.6386,-2.6386,-2.6386,-2.6386,-2.6386,-2.6386,-2.6386,-2.6386,-2.6386,-2.6386,-2.6306,-2.6104,-2.6063,-2.5879,-2.5585,-2.5545,-2.5438,-2.5144,-2.509,-2.497,-2.469,-2.4649,-2.4636,-2.4636,-2.4636,-2.4636,-2.4636,-2.4636,-2.4636,-2.4636,-2.4636,-2.4636,-2.4636,-2.4636,-2.4636,-2.4636,-2.4636,-2.4636,-0.8099,0.0,-0.8608,-0.8433,-0.8465,-0.8438,0.0,-0.8262,-0.8228,-0.8022,-0.7988,-0.8096,-0.8492,-0.9515,-1.0189,-0.97,-1.0882,-1.2197,-1.3325,-1.7105,-2.1141,-2.4891,-2.5226,-2.6241,-2.8916,-2.9073,-2.9272,-2.9824,-2.9913,-2.8809,-2.632,-2.3838,-2.136,-1.8964,-1.6471,-1.5181,-1.5181,-1.5181,-1.5181,-1.5181,-1.5072,-1.4943,-1.4787,-1.4638,-1.4489,-1.4346,-1.4312,-1.4299,-1.4299,-1.4299,-1.5344,-1.7071,-1.7588,-1.8889,-2.0443,-2.0962,-2.197,-2.3075,-2.3667,-2.4564,-2.574,-2.6228,-2.6386,-2.6386,-2.6386,-2.6386,-2.6386,-2.6386,-2.6386,-2.6386,-2.6386,-2.6386,-2.6386,-2.6386,-2.6386,-2.6386,-2.6386,-2.6386,-2.6386,-2.6386,-2.6386,-2.6386,-2.6386,-2.6386,-2.6373,-2.6306,-2.6293,-2.6186,-2.5892,-2.5852,-2.5745,-2.5438,-2.5211,-2.505,-2.4983,-2.477,-2.4636,-2.4636,-2.4636,-2.4636,-2.4636,-2.4636,-2.4636,-2.4636,-2.4636,-2.4636,-2.4636,-2.4636,-2.4636,-2.4636,-2.4636,-2.4636,-0.7773,-0.8038,-0.8269,-0.8248,-0.8303,-0.8343,-0.8262,-0.8201,-0.814,-0.8008,-0.7988,-0.8083,-0.8452,-0.9684,-1.0679,-1.0794,-1.2327,-1.4519,-1.7501,-2.0075,-2.2939,-2.6339,-2.7159,-2.8106,-2.9584,-2.982,-2.9913,-2.9913,-2.9913,-2.9272,-2.7973,-2.5582,-2.3106,-2.0622,-1.8135,-1.6385,-1.5181,-1.5181,-1.5147,-1.5086,-1.5011,-1.4855,-1.4631,-1.5614,-1.6016,-1.5946,-1.6992,-1.7509,-1.7509,-1.7509,-1.82,-1.9488,-2.0529,-2.1739,-2.2955,-2.3984,-2.4867,-2.5425,-2.5425,-2.5805,-2.6386,-2.6386,-2.6386,-2.6386,-2.6386,-2.6386,-2.6386,-2.6386,-2.6386,-2.6386,-2.6386,-2.6386,-2.6386,-2.6386,-2.6386,-2.6386,-2.6386,-2.6386,-2.6386,-2.6386,-2.6386,-2.6386,-2.6386,-2.6386,-2.6386,-2.6386,-2.6386,-2.6333,-2.6172,-2.6159,-2.6039,-2.5745,-2.5571,-2.5424,-2.5291,-2.513,-2.493,-2.4649,-2.4636,-2.4636,-2.4636,-2.4636,-2.4636,-2.4636,-2.4636,-2.4636,-2.4636,-2.4636,-2.4636,-2.4562,-2.4783,-2.4836,-0.8357,-0.8728,-0.891,-0.8501,-0.8445,-0.8472,-0.8425,-0.8221,-0.7988,-0.7988,-0.8008,-0.8147,-0.8397,-0.9839,-1.1087,-1.156,-1.3948,-1.7099,-2.1089,-2.3026,-2.5025,-2.7682,-2.8572,-2.9232,-2.974,-2.982,-2.9847,-2.9847,-2.9847,-2.9847,-2.9847,-2.7423,-2.5128,-2.3054,-2.063,-1.8324,-1.6219,-1.5507,-1.5079,-1.4936,-1.5278,-1.5308,-1.513,-1.7396,-1.8435,-1.8453,-2.0356,-2.1221,-2.1221,-2.1221,-2.1394,-2.1911,-2.3909,-2.4947,-2.5458,-2.7396,-2.7736,-2.7255,-2.7161,-2.68,-2.6386,-2.6386,-2.6386,-2.6386,-2.6386,-2.6386,-2.6386,-2.6386,-2.6386,-2.6386,-2.6386,-2.6386,-2.6386,-2.6386,-2.6386,-2.6386,-2.6386,-2.6386,-2.6386,-2.6386,-2.6386,-2.6386,-2.6386,-2.6386,-2.6386,-2.6386,-2.6386,-2.6386,-2.6386,-2.6386,-2.6293,-2.613,-2.5985,-2.5852,-2.5598,-2.5545,-2.5456,-2.5228,-2.4864,-2.469,-2.4562,-2.4676,-2.469,-2.4636,-2.4636,-2.4663,-2.4703,-2.4703,-2.473,-2.477,-2.5024,-2.5294,-1.101,-1.1892,-1.1609,-0.8794,-0.8296,-0.8418,-0.8167,-0.8022,-0.7988,-0.7988,-0.8147,-0.8431,-0.9089,-1.0329,-1.1191,-1.0898,-1.4697,-1.8269,-1.999,-2.3925,-2.6388,-2.5446,-2.7465,-2.9072,-2.9165,-2.9406,-2.9553,-2.9553,-2.9553,-2.9553,-2.9553,-2.6955,-2.5411,-2.5261,-2.2709,-2.1083,-2.0724,-1.6934,-1.4923,-1.4774,-1.6603,-1.7486,-1.7509,-1.9706,-2.0732,-2.0702,-2.1048,-2.1221,-2.1221,-2.1221,-2.2342,-2.4166,-2.4605,-2.5896,-2.7675,-2.7772,-2.7549,-2.7201,-2.6694,-2.6466,-2.6386,-2.6386,-2.6386,-2.6386,-2.6386,-2.6386,-2.6386,-2.6386,-2.6386,-2.6386,-2.6386,-2.6386,-2.6386,-2.6386,-2.6386,-2.6386,-2.6386,-2.6386,-2.6386,-2.6386,-2.6386,-2.6386,-2.6386,-2.6386,-2.6386,-2.6386,-2.6386,-2.6386,-2.6386,-2.6386,-2.6373,-2.6333,-2.6106,-2.601,-2.5892,-2.5651,-2.6212,-2.7894,-2.6093,-2.4903,-2.4649,-2.4877,-2.489,-2.4636,-2.4636,-2.4756,-2.501,-2.501,-2.5144,-2.5371,-2.5424,-2.6412,-1.0342,-1.1002,-1.0893,-0.8902,-0.9504,-1.0562,-1.0405,-0.9523,-0.8743,-0.8655,-0.8696,-0.8954,-0.9408,-1.0239,-1.1366,-1.2835,-1.5985,-1.8971,-2.111,-2.3615,-2.5532,-2.65,-2.7781,-2.8684,-2.9005,-2.9165,-2.9245,-2.9245,-2.9245,-2.9245,-2.9245,-2.8037,-2.677,-2.5553,-2.4363,-2.2991,-2.153,-1.95,-1.8433,-1.8348,-1.9319,-1.9827,-1.9803,-2.205,-2.3126,-2.3126,-2.4423,-2.502,-2.502,-2.502,-2.5629,-2.6588,-2.6588,-2.7279,-2.8167,-2.7629,-2.7281,-2.6961,-2.6533,-2.6386,-2.6386,-2.6386,-2.6386,-2.6386,-2.6386,-2.6386,-2.6386,-2.6386,-2.6386,-2.6386,-2.6386,-2.6386,-2.6386,-2.6386,-2.6386,-2.6386,-2.6386,-2.6386,-2.6386,-2.6386,-2.6386,-2.6386,-2.6386,-2.6386,-2.6386,-2.6386,-2.6386,-2.6386,-2.6386,-2.6386,-2.6386,-2.6386,-2.6266,-2.6186,-2.6186,-2.7051,-2.7875,-2.8582,-2.8626,-2.8044,-2.6797,-2.6926,-2.6346,-2.4877,-2.5037,-2.5104,-2.5077,-2.5237,-2.5978,-2.715,-2.7321,-2.8519,-0.983,-1.0518,-1.0907,-1.0174,-1.0948,-1.187,-1.1801,-1.0442,-0.9286,-0.9306,-0.9398,-0.9501,-0.972,-1.031,-1.1754,-1.4638,-1.669,-1.8926,-2.1816,-2.2506,-2.3773,-2.6233,-2.7012,-2.7571,-2.8078,-2.8578,-2.8938,-2.8938,-2.8938,-2.8938,-2.8938,-2.8871,-2.7965,-2.6173,-2.6025,-2.5097,-2.3054,-2.2967,-2.2444,-2.1386,-2.1921,-2.2089,-2.2084,-2.4423,-2.5556,-2.5641,-2.7448,-2.8221,-2.8221,-2.8221,-2.8221,-2.8221,-2.8221,-2.814,-2.7966,-2.7428,-2.7028,-2.6694,-2.6466,-2.6386,-2.6386,-2.6386,-2.6386,-2.6386,-2.6386,-2.6386,-2.6386,-2.6386,-2.6386,-2.6386,-2.6386,-2.6386,-2.6386,-2.6386,-2.6386,-2.6386,-2.6386,-2.6386,-2.6386,-2.6386,-2.6386,-2.6386,-2.6386,-2.6386,-2.6386,-2.6386,-2.6386,-2.6386,-2.6386,-2.6386,-2.6386,-2.6386,-2.6386,-2.6623,-2.7083,-2.9371,-3.0665,-3.0222,-3.1234,-3.1079,-2.9374,-2.9361,-2.8507,-2.6645,-2.6796,-2.6838,-2.6758,-2.6909,-2.7885,-2.9531,-2.9716,-3.0871,-1.1629,-1.3177,-1.4082,-1.3813,-1.2124,-1.0415,-0.9923,-0.9344,-0.9067,-0.9659,-0.989,-1.0101,-1.0202,-1.0948,-1.2366,-1.4857,-1.5983,-1.7494,-2.0309,-2.0864,-2.1194,-2.1622,-2.3641,-2.5054,-2.5338,-2.7314,-2.8644,-2.8644,-2.8644,-2.8644,-2.8644,-2.8364,-2.8252,-2.836,-2.8095,-2.7936,-2.7741,-2.7741,-2.5483,-2.1241,-2.3417,-2.4446,-2.452,-2.6842,-2.7968,-2.7968,-2.8136,-2.8221,-2.8221,-2.8221,-2.8221,-2.8221,-2.8221,-2.7899,-2.7321,-2.7281,-2.6907,-2.6413,-2.64,-2.6386,-2.6386,-2.6386,-2.6386,-2.6386,-2.6386,-2.6386,-2.6386,-2.6386,-2.6386,-2.6386,-2.6386,-2.6386,-2.6386,-2.6386,-2.6386,-2.6386,-2.6386,-2.6386,-2.6386,-2.6386,-2.6386,-2.6386,-2.6386,-2.6386,-2.6386,-2.6386,-2.6386,-2.6386,-2.6386,-2.6386,-2.6386,-2.6386,-2.6386,-2.7162,-2.906,-3.2776,-3.5032,-3.5035,-3.3405,-3.2126,-3.1375,-3.1597,-3.1523,-3.1162,-3.1179,-3.1269,-3.1505,-3.1521,-3.1792,-3.2195,-3.2228,-3.3364,-1.012,-1.1121,-1.1765,-1.0932,-1.1771,-1.255,-1.1817,-1.0849,-1.0186,-1.0408,-1.0717,-1.09,-1.0962,-1.1552,-1.2393,-1.3422,-1.4139,-1.5487,-1.8148,-1.8636,-1.9351,-2.1018,-2.1998,-2.2557,-2.2643,-2.3442,-2.396,-2.396,-2.396,-2.466,-2.6142,-2.6043,-2.6723,-2.831,-2.8288,-2.8221,-2.8221,-2.8221,-2.7279,-2.5543,-2.6406,-2.6842,-2.6927,-2.7799,-2.8221,-2.8221,-2.8221,-2.8221,-2.8221,-2.8221,-2.8221,-2.8221,-2.8221,-2.7872,-2.7268,-2.7268,-2.6894,-2.6386,-2.6386,-2.6386,-2.6386,-2.6386,-2.6386,-2.6386,-2.6386,-2.6386,-2.6386,-2.6386,-2.6386,-2.6386,-2.6386,-2.6386,-2.6386,-2.6386,-2.6386,-2.6386,-2.6386,-2.6386,-2.6386,-2.6386,-2.6386,-2.6386,-2.6386,-2.6386,-2.6386,-2.6386,-2.6386,-2.6386,-2.6386,-2.6386,-2.6847,-2.814,-2.9449,-3.1038,-3.3003,-3.4584,-3.6035,-3.7345,-3.6737,-3.5629,-3.4105,-3.4154,-3.3455,-3.1911,-3.2052,-3.2118,-3.2035,-3.2175,-3.3036,-3.4376,-3.4376,-3.544,-0.8956,-0.9927,-1.0871,-1.0016,-1.2028,-1.3986,-1.3356,-1.2382,-1.1543,-1.1248,-1.1355,-1.1477,-1.1525,-1.1945,-1.2338,-1.2481,-1.3051,-1.4125,-1.5924,-1.6275,-1.6959,-1.8772,-1.9568,-2.0029,-2.0086,-2.0789,-2.1221,-2.1221,-2.1221,-2.2256,-2.4605,-2.4691,-2.5811,-2.8136,-2.8221,-2.8221,-2.8221,-2.8221,-2.8221,-2.8221,-2.8221,-2.8221,-2.8221,-2.8221,-2.8221,-2.8221,-2.8221,-2.8221,-2.8221,-2.8221,-2.8167,-2.8003,-2.8003,-2.7642,-2.7121,-2.7121,-2.6814,-2.6386,-2.6386,-2.6386,-2.6386,-2.6386,-2.6386,-2.6386,-2.6386,-2.6386,-2.6386,-2.6386,-2.6386,-2.6386,-2.6386,-2.6386,-2.6386,-2.6386,-2.6386,-2.6386,-2.6386,-2.6386,-2.6386,-2.6386,-2.6386,-2.6386,-2.6386,-2.6386,-2.6623,-2.7227,-2.7384,-2.7619,-2.8232,-2.831,-2.8842,-3.0207,-3.2184,-3.4001,-3.5348,-3.6109,-3.7106,-3.8501,-3.8574,-3.7951,-3.6571,-3.6497,-3.5685,-3.4158,-3.4329,-3.4346,-3.4066,-3.4346,-3.5142,-3.6497,-3.6497,-3.7272,-0.8671,-1.0373,-1.2496,-1.2246,-1.3136,-1.4064,-1.3831,-1.3526,-1.3,-1.2042,-1.1721,-1.1667,-1.1809,-1.2081,-1.2338,-1.2481,-1.3132,-1.3627,-1.3627,-1.3749,-1.3899,-1.4048,-1.6121,-1.756,-1.7738,-1.9836,-2.1135,-2.1135,-2.1135,-2.217,-2.452,-2.4691,-2.5726,-2.8136,-2.8221,-2.8221,-2.8221,-2.8221,-2.8221,-2.8221,-2.8221,-2.8221,-2.8221,-2.8221,-2.8221,-2.8221,-2.8221,-2.8221,-2.8221,-2.8221,-2.7963,-2.7696,-2.7696,-2.7335,-2.6827,-2.6827,-2.664,-2.6386,-2.6386,-2.6386,-2.6386,-2.6386,-2.6386,-2.6386,-2.6386,-2.6386,-2.6386,-2.6386,-2.6386,-2.6386,-2.6386,-2.6386,-2.6386,-2.6386,-2.6386,-2.6386,-2.6386,-2.6386,-2.6386,-2.6386,-2.6386,-2.6386,-2.6386,-2.6386,-2.7083,-2.9138,-2.9449,-3.0207,-3.2277,-3.2505,-3.2505,-3.2505,-3.4301,-3.5497,-3.5497,-3.7419,-3.8574,-3.8574,-3.8574,-3.8574,-3.8574,-3.8574,-3.8574,-3.8574,-3.8574,-3.8574,-3.8574,-3.8574,-3.8574,-3.8574,-3.8574,-3.8574,-0.8023,-0.8903,-1.0163,-0.9913,-1.1889,-1.3896,-1.4042,-1.4087,-1.4119,-1.4388,-1.3133,-1.2381,-1.3877,-1.3205,-1.2454,-1.2494,-1.2956,-1.3383,-1.36,-1.3668,-1.3743,-1.3892,-1.45,-1.4987,-1.5155,-1.5772,-1.6253,-1.6378,-1.6386,-1.8025,-2.1998,-2.2256,-2.4069,-2.8052,-2.8221,-2.8221,-2.8221,-2.8221,-2.8221,-2.8221,-2.8221,-2.8221,-2.8221,-2.8221,-2.8221,-2.8221,-2.8221,-2.8221,-2.8207,-2.7923,-2.7655,-2.7402,-2.7402,-2.7161,-2.6827,-2.6827,-2.664,-2.6386,-2.6386,-2.6386,-2.6386,-2.6386,-2.6386,-2.6386,-2.6386,-2.6386,-2.6386,-2.6386,-2.6386,-2.6386,-2.6386,-2.6386,-2.6386,-2.6386,-2.6386,-2.6386,-2.6386,-2.6386,-2.6386,-2.6386,-2.6386,-2.6386,-2.6386,-2.7541,-2.8686,-2.9293,-3.0669,-3.1803,-3.2429,-3.3775,-3.4601,-3.4601,-3.6423,-3.7658,-3.7658,-3.8263,-3.8574,-3.8574,-3.8574,-3.8574,-3.8574,-3.8574,-3.8574,-3.8574,-3.8574,-3.8574,-3.8574,-3.8574,-3.8574,-3.8574,-3.8574,-3.8574,-0.8541,-0.9541,-1.0963,-1.0881,-1.2306,-1.4156,-1.5438,-1.5882,-1.6068,-1.6633,-1.5604,-1.4993,-1.6412,-1.5802,-1.5159,-1.5306,-1.4872,-1.4624,-1.4742,-1.4027,-1.3593,-1.3736,-1.3756,-1.3817,-1.3966,-1.398,-1.4021,-1.4109,-1.5038,-1.7227,-2.0918,-2.2031,-2.4337,-2.8052,-2.8221,-2.8167,-2.7963,-2.7963,-2.7993,-2.7872,-2.7872,-2.7872,-2.7886,-2.7909,-2.7963,-2.7963,-2.7926,-2.7856,-2.7949,-2.7655,-2.7348,-2.7094,-2.7094,-2.6907,-2.6653,-2.6653,-2.6547,-2.6386,-2.6386,-2.6386,-2.6386,-2.6386,-2.6386,-2.6386,-2.6386,-2.6386,-2.6386,-2.6386,-2.6386,-2.6386,-2.6386,-2.6386,-2.6386,-2.6386,-2.6386,-2.6386,-2.6386,-2.6386,-2.6386,-2.6386,-2.6386,-2.6386,-2.6386,-2.7384,-2.8764,-3.0361,-3.3095,-3.4918,-3.4918,-3.5979,-3.6719,-3.6719,-3.7878,-3.8574,-3.8574,-3.8574,-3.8574,-3.8574,-3.8574,-3.8574,-3.8574,-3.8574,-3.8574,-3.8574,-3.8574,-3.8574,-3.8574,-3.8574,-3.8574,-3.8574,-3.8574,-3.8574,-0.9595,-1.1191,-1.3381,-1.3492,-1.3839,-1.4886,-1.7546,-1.8482,-1.8841,-1.8898,-1.855,-1.853,-1.9101,-1.9137,-1.9145,-1.9551,-1.8133,-1.6893,-1.6893,-1.5193,-1.3943,-1.3839,-1.3852,-1.383,-1.381,-1.3824,-1.391,-1.4094,-1.6183,-1.8574,-2.1112,-2.3365,-2.5652,-2.8056,-2.814,-2.7936,-2.7669,-2.7655,-2.7522,-2.7268,-2.7268,-2.7268,-2.7268,-2.7535,-2.7655,-2.7642,-2.7375,-2.7402,-2.7602,-2.7335,-2.7054,-2.6787,-2.6787,-2.6613,-2.6386,-2.6386,-2.6386,-2.6386,-2.6386,-2.6386,-2.6386,-2.6386,-2.6386,-2.6386,-2.6386,-2.6386,-2.6386,-2.6386,-2.6386,-2.6386,-2.6386,-2.6386,-2.6386,-2.6386,-2.6386,-2.6386,-2.6386,-2.6544,-2.6689,-2.6689,-2.6847,-2.6925,-2.6925,-2.7097,-2.8666,-3.2588,-3.6293,-3.8633,-3.8633,-3.8594,-3.8574,-3.8574,-3.8574,-3.8574,-3.8574,-3.8574,-3.8574,-3.8574,-3.8574,-3.8574,-3.8574,-3.8574,-3.8574,-3.8574,-3.8574,-3.8574,-3.8574,-3.8574,-3.8574,-3.8574,-3.8574,-3.8574,-0.88,-0.9495,-1.0613,-1.1113,-1.4207,-1.7434,-1.8285,-2.0986,-2.2818,-2.1279,-1.9661,-1.9049,-2.0748,-2.0003,-1.9199,-1.929,-1.9244,-1.9176,-1.9176,-1.877,-1.7892,-1.6139,-1.5974,-1.5308,-1.3823,-1.3675,-1.4394,-1.6281,-1.6916,-1.8959,-2.2988,-2.3712,-2.509,-2.7455,-2.7455,-2.7428,-2.7362,-2.7362,-2.7321,-2.7268,-2.7268,-2.7268,-2.7268,-2.7335,-2.7362,-2.7362,-2.7295,-2.7175,-2.7001,-2.6947,-2.6747,-2.648,-2.648,-2.644,-2.6386,-2.6386,-2.6386,-2.6386,-2.6386,-2.6386,-2.6386,-2.6386,-2.6386,-2.6386,-2.6386,-2.6386,-2.6386,-2.6386,-2.6386,-2.6386,-2.6386,-2.6386,-2.6386,-2.6386,-2.6386,-2.6386,-2.6386,-2.7605,-2.8749,-2.8749,-3.0053,-3.1207,-3.1207,-3.2813,-3.5029,-3.7915,-3.8757,-3.9062,-3.9062,-3.8789,-3.8574,-3.8574,-3.8574,-3.8574,-3.8574,-3.8574,-3.8574,-3.8574,-3.8574,-3.8574,-3.8574,-3.8574,-3.8574,-3.8574,-3.8574,-3.8574,-3.8574,-3.8574,-3.8574,-3.8574,-3.8574,-3.8574,-0.8891,-0.9695,-1.0973,-1.2224,-1.5336,-1.8446,-1.9606,-2.2337,-2.4327,-2.3264,-2.2198,-2.2148,-2.421,-2.3932,-2.3681,-2.4772,-2.4443,-2.369,-2.2791,-2.1849,-2.0572,-1.8435,-1.82,-1.7755,-1.6717,-1.6642,-1.709,-1.8348,-1.9522,-2.1242,-2.3563,-2.4845,-2.6013,-2.7268,-2.7268,-2.7201,-2.7054,-2.7054,-2.6987,-2.6841,-2.6841,-2.6841,-2.6854,-2.6987,-2.7054,-2.7041,-2.6907,-2.6841,-2.6814,-2.6667,-2.6533,-2.6386,-2.6386,-2.6386,-2.6386,-2.6386,-2.6386,-2.6386,-2.6386,-2.6386,-2.6386,-2.6386,-2.6386,-2.6386,-2.6386,-2.6386,-2.6386,-2.6386,-2.6386,-2.6426,-2.656,-2.66,-2.6627,-2.6774,-2.66,-2.6702,-2.7619,-2.8686,-2.9666,-3.0669,-3.1743,-3.2555,-3.272,-3.4696,-3.6524,-3.7615,-3.8432,-3.8906,-3.8906,-3.8711,-3.8574,-3.8574,-3.8574,-3.8574,-3.8574,-3.8574,-3.8574,-3.8574,-3.8574,-3.8574,-3.8574,-3.8574,-3.8574,-3.8574,-3.8574,-3.8574,-3.8574,-3.8574,-3.8574,-3.8574,-3.8574,-3.8574,-0.8428,-0.9787,-1.1752,-1.4061,-1.632,-1.8571,-2.0646,-2.2926,-2.463,-2.4983,-2.5024,-2.5649,-2.7482,-2.8159,-2.9001,-3.0811,-2.9943,-2.8459,-2.6815,-2.5335,-2.3708,-2.1643,-2.1136,-2.0856,-2.0442,-2.014,-2.0069,-2.0393,-2.2358,-2.3713,-2.4037,-2.607,-2.7121,-2.7121,-2.7121,-2.7001,-2.6747,-2.6747,-2.6627,-2.6386,-2.6386,-2.6386,-2.64,-2.664,-2.6747,-2.6734,-2.6493,-2.6533,-2.6734,-2.6493,-2.6386,-2.6386,-2.6386,-2.6386,-2.6386,-2.6386,-2.6386,-2.6386,-2.6386,-2.6386,-2.6386,-2.6386,-2.6386,-2.6386,-2.6386,-2.6386,-2.6386,-2.6386,-2.6386,-2.644,-2.668,-2.6747,-2.6827,-2.7121,-2.6814,-2.7007,-2.9145,-2.9847,-3.0763,-3.284,-3.3526,-3.3839,-3.4137,-3.565,-3.6751,-3.6364,-3.7682,-3.8691,-3.8711,-3.8633,-3.8574,-3.8574,-3.8574,-3.8574,-3.8574,-3.8574,-3.8574,-3.8574,-3.8574,-3.8574,-3.8574,-3.8574,-3.8574,-3.8574,-3.8574,-3.8574,-3.8574,-3.8574,-3.8574,-3.8574,-3.8574,-3.8574,-0.5285,-0.6971,-0.9832,-1.3542,-1.6106,-1.8268,-2.031,-2.2563,-2.4671,-2.6343,-2.6936,-2.723,-2.7492,-2.9158,-3.0509,-3.0776,-3.0852,-3.0769,-3.0473,-3.0553,-2.9806,-2.7664,-2.6246,-2.461,-2.2658,-2.0894,-2.0635,-2.2487,-2.3015,-2.4,-2.5964,-2.6321,-2.6507,-2.6507,-2.6507,-2.6493,-2.6453,-2.6453,-2.6426,-2.6386,-2.6386,-2.6386,-2.6386,-2.6426,-2.6453,-2.644,-2.6413,-2.6413,-2.644,-2.64,-2.6386,-2.6386,-2.6386,-2.6386,-2.6386,-2.6386,-2.6386,-2.6386,-2.6386,-2.6386,-2.6386,-2.6386,-2.6386,-2.6386,-2.6386,-2.6386,-2.6386,-2.6386,-2.6386,-2.64,-2.644,-2.6453,-2.652,-2.6814,-2.6827,-2.7376,-2.9842,-3.1779,-3.3664,-3.5775,-3.7666,-3.882,-3.8495,-3.8913,-3.9467,-3.9641,-3.9362,-3.916,-3.9297,-3.8887,-3.8574,-3.8574,-3.8574,-3.8574,-3.8574,-3.8574,-3.8574,-3.8574,-3.8574,-3.8574,-3.8574,-3.8574,-3.8574,-3.8574,-3.8574,-3.8574,-3.8574,-3.8574,-3.8574,-3.8574,-3.8574,-3.8574,-0.5887,-0.7185,-0.9462,-1.4576,-1.6736,-1.8382,-2.1491,-2.3086,-2.4514,-2.629,-2.7593,-2.8937,-3.0402,-3.1452,-3.2491,-3.3563,-3.4836,-3.5323,-3.4157,-3.516,-3.5256,-3.3173,-3.168,-3.0442,-2.9457,-2.6831,-2.5635,-2.6529,-2.5621,-2.533,-2.6386,-2.6386,-2.6386,-2.6386,-2.6386,-2.6386,-2.6386,-2.6386,-2.6386,-2.6386,-2.6386,-2.6386,-2.6386,-2.6386,-2.6386,-2.6386,-2.6386,-2.6386,-2.6386,-2.6386,-2.6386,-2.6386,-2.6386,-2.6386,-2.6386,-2.6386,-2.6386,-2.6386,-2.6386,-2.6386,-2.6386,-2.6386,-2.6386,-2.6623,-2.7762,-2.8076,-2.8296,-2.9526,-2.9836,-2.9571,-2.859,-2.8332,-2.8128,-2.7459,-2.7148,-2.7378,-2.8641,-3.1376,-3.4528,-3.7518,-3.8874,-3.9453,-3.9238,-3.9375,-3.9551,-3.9668,-3.9219,-3.8887,-3.8945,-3.873,-3.8574,-3.8574,-3.8574,-3.8672,-3.8906,-3.8711,-3.8672,-3.8906,-3.8711,-3.8574,-3.8574,-3.8574,-3.8574,-3.8574,-3.8574,-3.8574,-3.8574,-3.8574,-3.8574,-3.8574,-3.8574,-3.8574,-0.5668,-0.6764,-0.8564,-1.4095,-1.6352,-1.811,-2.1572,-2.31,-2.42,-2.5967,-2.7868,-2.9951,-3.248,-3.3367,-3.4253,-3.5792,-3.732,-3.7868,-3.6358,-3.8024,-3.8753,-3.7213,-3.6227,-3.5532,-3.5065,-3.2384,-3.0268,-2.9314,-2.7955,-2.6925,-2.6465,-2.6386,-2.6386,-2.6386,-2.6386,-2.6386,-2.6386,-2.6386,-2.6386,-2.6386,-2.6386,-2.6702,-2.7148,-2.7148,-2.7148,-2.7162,-2.6623,-2.6386,-2.6386,-2.6386,-2.6386,-2.6386,-2.6386,-2.6386,-2.6386,-2.6386,-2.6386,-2.6386,-2.6386,-2.6386,-2.6386,-2.6386,-2.6412,-2.6659,-2.8181,-2.9374,-3.0608,-3.2495,-3.2968,-3.2637,-3.0996,-3.0199,-2.9468,-2.8462,-2.7663,-2.7527,-2.8874,-3.2029,-3.5547,-3.8607,-3.9394,-3.9473,-3.9238,-3.9297,-3.9355,-3.9277,-3.9062,-3.8887,-3.8809,-3.8867,-3.8867,-3.875,-3.8848,-3.9043,-3.9355,-3.9082,-3.9043,-3.9355,-3.8965,-3.873,-3.873,-3.8633,-3.8574,-3.8574,-3.8574,-3.8574,-3.8574,-3.8574,-3.8574,-3.8574,-3.8574,-3.8574,-0.2455,-0.4005,-0.606,-1.0334,-1.3906,-1.7009,-1.9455,-2.1716,-2.3885,-2.5834,-2.7779,-2.9799,-3.1765,-3.3897,-3.5412,-3.5957,-3.6103,-3.6103,-3.6035,-3.7827,-3.9155,-3.9088,-3.9114,-3.8478,-3.6802,-3.5154,-3.2645,-2.9123,-2.9115,-2.8374,-2.6465,-2.6386,-2.6386,-2.6386,-2.6386,-2.6386,-2.6386,-2.6386,-2.6386,-2.6386,-2.6386,-2.7384,-2.9216,-2.9216,-2.9216,-2.9138,-2.7227,-2.6386,-2.6386,-2.6386,-2.6386,-2.6386,-2.6386,-2.6386,-2.6386,-2.6386,-2.6386,-2.6386,-2.6386,-2.6386,-2.6386,-2.6386,-2.6435,-2.6425,-2.6503,-2.9286,-3.2631,-3.4008,-3.4381,-3.4101,-3.274,-3.0931,-2.9475,-2.974,-2.8255,-2.8019,-3.2348,-3.5356,-3.7686,-3.8983,-3.9883,-4.0195,-3.9336,-3.957,-3.9766,-3.9453,-3.9648,-3.9726,-3.9414,-3.9648,-3.9668,-3.9219,-3.957,-3.9844,-3.9863,-3.9844,-3.9844,-3.9863,-3.9434,-3.916,-3.916,-3.8789,-3.8574,-3.8574,-3.8574,-3.8574,-3.8574,-3.8574,-3.8574,-3.8574,-3.8574,-3.8574,-0.2226,-0.307,-0.4649,-0.946,-1.1787,-1.4025,-1.8173,-2.0135,-2.1868,-2.4899,-2.6161,-2.7804,-3.1083,-3.3737,-3.5449,-3.5586,-3.6743,-3.7709,-3.7709,-3.9252,-4.0909,-4.1942,-4.1394,-4.1111,-4.1639,-3.8182,-3.5364,-3.4018,-3.1811,-2.9791,-2.7994,-2.7931,-2.7487,-2.6465,-2.6386,-2.6386,-2.6386,-2.6386,-2.6386,-2.6386,-2.7684,-2.8686,-2.9449,-3.0746,-3.136,-3.1284,-2.9216,-2.7605,-2.6386,-2.6386,-2.6386,-2.6386,-2.6386,-2.6386,-2.6386,-2.6386,-2.6386,-2.6386,-2.6386,-2.6386,-2.6386,-2.6386,-2.6398,-2.6697,-2.8521,-3.0022,-3.1715,-3.3856,-3.4782,-3.4723,-3.2986,-3.2944,-3.3037,-3.1811,-3.169,-3.232,-3.4364,-3.5584,-3.6918,-3.9196,-3.9668,-3.9726,-3.9883,-3.9902,-4.0039,-4.0488,-4.0176,-3.9863,-3.9746,-3.9824,-3.9824,-3.9668,-3.9805,-4.0,-4.0273,-4.0059,-4.0019,-4.0273,-3.9883,-3.9512,-3.9219,-3.9062,-3.8848,-3.8574,-3.8574,-3.8574,-3.8574,-3.8574,-3.8574,-3.8574,-3.8574,-3.9188,-0.1453,-0.211,-0.3471,-0.7566,-0.9655,-1.176,-1.5993,-1.7794,-1.9523,-2.2685,-2.3979,-2.5532,-2.8793,-3.1461,-3.3669,-3.5131,-3.659,-3.7591,-3.7688,-3.9256,-4.0731,-4.1861,-4.1772,-4.204,-4.3217,-4.0382,-3.7972,-3.6727,-3.4394,-3.2036,-2.9743,-2.9124,-2.8057,-2.6452,-2.6386,-2.6386,-2.6386,-2.6386,-2.6386,-2.6386,-2.8411,-2.9787,-3.0515,-3.2538,-3.3524,-3.3398,-3.2032,-2.9898,-2.7384,-2.6702,-2.6386,-2.6386,-2.6386,-2.6386,-2.6386,-2.6386,-2.6386,-2.6386,-2.6386,-2.6386,-2.6386,-2.6386,-2.6372,-2.6762,-2.8573,-2.9094,-2.9669,-3.2408,-3.4139,-3.4897,-3.3782,-3.4526,-3.4975,-3.2944,-3.3171,-3.4151,-3.5274,-3.5605,-3.6457,-3.8983,-3.9434,-3.9551,-3.9941,-4.0059,-4.0351,-4.1074,-4.0684,-4.0273,-4.0117,-4.0234,-4.0273,-4.0117,-4.0234,-4.043,-4.0723,-4.0488,-4.0449,-4.0723,-4.0351,-3.9961,-3.9648,-3.9355,-3.9062,-3.8789,-3.8652,-3.8574,-3.8574,-3.8574,-3.8574,-3.8574,-3.8574,-3.989,0.0,0.0,0.0,-0.4478,-0.7322,-1.0193,-1.2788,-1.4808,-1.6838,-1.9182,-2.1213,-2.3107,-2.5017,-2.7091,-3.0001,-3.4375,-3.5151,-3.5373,-3.5734,-3.7287,-3.8378,-3.8531,-4.0018,-4.1117,-4.1181,-4.1542,-4.0209,-3.6573,-3.6599,-3.516,-3.1439,-2.9667,-2.8057,-2.6452,-2.6386,-2.6386,-2.6386,-2.6386,-2.6465,-2.6544,-2.8533,-3.0607,-3.2657,-3.4667,-3.5548,-3.5571,-3.5497,-3.323,-2.9371,-2.7305,-2.6465,-2.6465,-2.6386,-2.6386,-2.6386,-2.6386,-2.6386,-2.6386,-2.6386,-2.6386,-2.6386,-2.6386,-2.6432,-2.6421,-2.6423,-2.6432,-2.6947,-2.9715,-3.239,-3.4649,-3.5386,-3.5571,-3.5124,-3.3171,-3.2657,-3.3171,-3.5199,-3.599,-3.6716,-3.8306,-3.9316,-3.9824,-3.9531,-4.0059,-4.0684,-4.1113,-4.1172,-4.1016,-4.0586,-4.0918,-4.1016,-4.0586,-4.0918,-4.1172,-4.1172,-4.1172,-4.1172,-4.1172,-4.0781,-4.0527,-4.0527,-3.9687,-3.9219,-3.9199,-3.8789,-3.8574,-3.8574,-3.8574,-3.8574,-3.8574,-3.872,-4.0657,0.0,0.0,0.0,0.0,0.0,0.0,-0.9761,-1.2043,-1.416,-1.6487,-1.7697,-1.8921,-2.1059,-2.1962,-2.3747,-2.7932,-2.997,-3.1164,-3.1548,-3.1996,-3.3353,-3.6147,-3.6904,-3.8253,-4.0902,-4.0127,-3.903,-3.7991,-3.6873,-3.53,-3.3019,-3.0277,-2.8057,-2.6452,-2.6386,-2.6386,-2.6386,-2.6386,-2.7162,-2.8608,-3.0686,-3.274,-3.4751,-3.6775,-3.777,-3.7658,-3.6109,-3.4001,-3.1513,-2.9449,-2.8608,-2.8452,-2.7004,-2.6386,-2.6386,-2.6386,-2.6386,-2.6386,-2.6386,-2.6386,-2.6386,-2.6386,-2.6385,-2.6397,-2.6439,-2.6385,-2.6946,-2.9741,-3.1722,-3.3799,-3.6902,-3.7731,-3.7585,-3.7051,-3.6904,-3.7051,-3.7658,-3.7827,-3.8224,-3.9359,-3.998,-4.043,-4.0644,-4.0859,-4.1035,-4.1152,-4.1172,-4.1133,-4.1016,-4.1094,-4.1133,-4.1016,-4.1094,-4.1172,-4.1172,-4.1172,-4.1172,-4.1172,-4.1055,-4.0859,-4.0527,-4.0,-3.9551,-3.9199,-3.8789,-3.8574,-3.8574,-3.8574,-3.8574,-3.8647,-4.1347,-4.3324,0.0,0.0,-0.0335,-0.1837,0.0,0.0,-0.6948,-0.8414,-0.9957,-1.2316,-1.3019,-1.388,-1.5982,-1.7029,-1.8306,-2.0754,-2.2939,-2.5593,-2.9175,-2.9688,-3.0566,-3.2775,-3.323,-3.4729,-3.8373,-3.7926,-3.7739,-3.8531,-3.7642,-3.5703,-3.2576,-3.0681,-2.855,-2.609,-2.6026,-2.6026,-2.6026,-2.6026,-2.669,-2.8032,-3.0925,-3.2978,-3.4376,-3.7272,-3.8574,-3.8501,-3.6423,-3.4826,-3.3549,-3.0577,-2.8905,-2.7997,-2.6847,-2.6386,-2.6386,-2.6386,-2.6386,-2.6544,-2.7384,-2.7079,-2.6646,-2.8411,-2.859,-2.8175,-2.8813,-2.8934,-2.9237,-3.0898,-3.2508,-3.4482,-3.7766,-3.9136,-3.955,-3.8773,-3.9188,-3.955,-3.8793,-3.8711,-3.8945,-3.9277,-3.9844,-4.0371,-4.0742,-4.1016,-4.1172,-4.1172,-4.1172,-4.1172,-4.1172,-4.1172,-4.1172,-4.1172,-4.1172,-4.1172,-4.1172,-4.1172,-4.1172,-4.1172,-4.1172,-4.1055,-4.0801,-4.0391,-3.9941,-3.9492,-3.9062,-3.8828,-3.8828,-3.8652,-3.8574,-3.872,-4.2791,-4.4766,0.0,0.0,-0.0341,-0.1833,-0.209,0.0,-0.4319,-0.48,-0.5384,-0.7552,-0.8103,-0.8734,-1.0465,-1.2194,-1.3456,-1.3653,-1.5298,-1.9345,-2.7299,-2.8386,-2.8555,-2.9015,-2.9379,-3.0909,-3.4308,-3.4874,-3.577,-3.7478,-3.7673,-3.5606,-3.0766,-3.0493,-2.8915,-2.5581,-2.5518,-2.5518,-2.5518,-2.5518,-2.5792,-2.6357,-2.9959,-3.1949,-3.2591,-3.6497,-3.8117,-3.7805,-3.6201,-3.5274,-3.4526,-3.0884,-2.8374,-2.6689,-2.6465,-2.6544,-2.6689,-2.6689,-2.6847,-2.7305,-2.8953,-2.8468,-2.7608,-3.0792,-3.1183,-3.0801,-3.2668,-3.2918,-3.2759,-3.2834,-3.4408,-3.6534,-3.8389,-4.0228,-4.1205,-3.9622,-4.0443,-4.1205,-3.955,-3.936,-3.9318,-3.9056,-3.9504,-4.0039,-4.0273,-4.0801,-4.1172,-4.1172,-4.1172,-4.1172,-4.1172,-4.1172,-4.1172,-4.1172,-4.1172,-4.1172,-4.1172,-4.1172,-4.1172,-4.1172,-4.1172,-4.1172,-4.1172,-4.0762,-4.0351,-3.9961,-3.9512,-3.9351,-3.9628,-3.8994,-3.8818,-3.9149,-4.3558,-4.5512,0.0,0.0,-0.0102,-0.0399,-0.1156,0.0,-0.249,-0.3404,-0.447,-0.5398,-0.566,-0.5996,-0.6774,-0.7234,-0.7949,-0.9444,-1.1366,-1.4882,-2.1315,-2.2237,-2.345,-2.6792,-2.7231,-2.8095,-3.0327,-3.0875,-3.1167,-3.1582,-3.1792,-3.0939,-2.8615,-2.8483,-2.7554,-2.5581,-2.5518,-2.5518,-2.5518,-2.5518,-2.6357,-2.8129,-2.9139,-3.0505,-3.2226,-3.4907,-3.5217,-3.3792,-3.4975,-3.3607,-3.05,-2.9743,-2.9138,-2.8686,-2.7004,-2.7384,-2.8827,-2.8827,-2.9913,-3.1175,-3.0543,-3.0722,-3.093,-2.8377,-2.8943,-3.1326,-3.6008,-3.5876,-3.4214,-3.4737,-3.7413,-4.0238,-4.0708,-4.2171,-4.3473,-4.3149,-4.3288,-4.3495,-4.3079,-4.1884,-4.1007,-4.1276,-4.0793,-4.041,-4.0469,-4.0859,-4.1172,-4.1172,-4.1172,-4.1172,-4.1172,-4.1172,-4.1172,-4.1172,-4.1172,-4.1172,-4.1172,-4.1172,-4.1172,-4.1172,-4.1172,-4.1172,-4.1172,-4.0762,-4.0488,-4.041,-3.998,-4.0529,-4.2073,-4.0071,-4.0104,-4.2022,-4.4507,-4.6603,0.0,0.0,0.0,0.0,-0.0464,0.0,0.0,-0.1512,-0.2072,-0.2383,-0.2493,-0.2605,-0.2868,-0.3674,-0.4654,-0.5625,-0.7403,-1.0057,-1.4022,-1.7013,-1.9642,-2.1632,-2.2051,-2.3253,-2.6076,-2.6668,-2.771,-2.9765,-3.0016,-2.9431,-2.7803,-2.7671,-2.6878,-2.5139,-2.5077,-2.5077,-2.5077,-2.5077,-2.5657,-2.6847,-2.8028,-2.9244,-3.0609,-3.2725,-3.3303,-3.2505,-3.2489,-3.1268,-2.9293,-2.8296,-2.7919,-2.7919,-2.7919,-2.9138,-3.0977,-3.0977,-3.159,-3.2565,-3.2877,-3.3211,-3.3374,-3.2682,-3.3418,-3.5048,-3.776,-3.824,-3.7962,-3.8273,-4.0503,-4.2731,-4.2731,-4.4094,-4.5186,-4.4299,-4.4778,-4.5186,-4.4322,-4.3335,-4.2796,-4.3035,-4.309,-4.2505,-4.0774,-4.0879,-4.1172,-4.1172,-4.1172,-4.1172,-4.1172,-4.1172,-4.1172,-4.1172,-4.1172,-4.1172,-4.1172,-4.1172,-4.1172,-4.1172,-4.1172,-4.1172,-4.1172,-4.0957,-4.0742,-4.0527,-4.1038,-4.192,-4.3142,-4.291,-4.3273,-4.4286,-4.6709,-4.8779,-0.0473,-0.0737,-0.0966,-0.0872,-0.0694,-0.0472,0.0,0.0,0.0,-0.0328,-0.0389,-0.0394,-0.04,-0.1698,-0.2622,-0.2385,-0.3959,-0.5759,-0.7296,-1.1835,-1.5362,-1.6422,-1.7168,-1.8752,-2.1798,-2.2558,-2.4638,-2.8922,-2.9135,-2.8723,-2.7946,-2.8038,-2.7143,-2.5212,-2.5139,-2.4991,-2.4636,-2.4636,-2.4756,-2.4997,-2.6726,-2.7775,-2.8424,-3.0502,-3.1404,-3.1284,-2.9975,-2.9216,-2.8686,-2.7083,-2.6623,-2.7162,-2.8764,-3.0669,-3.2581,-3.2944,-3.3339,-3.3885,-3.5566,-3.5756,-3.5741,-3.87,-3.9795,-3.9991,-3.9714,-4.0657,-4.182,-4.182,-4.3196,-4.4641,-4.4641,-4.5996,-4.6955,-4.5548,-4.6288,-4.6955,-4.548,-4.5095,-4.505,-4.4778,-4.5296,-4.486,-4.199,-4.1702,-4.1753,-4.125,-4.1172,-4.1172,-4.1172,-4.183,-4.2196,-4.1985,-4.2196,-4.235,-4.235,-4.235,-4.235,-4.235,-4.1985,-4.1753,-4.1753,-4.1405,-4.1016,-4.0644,-4.2248,-4.3394,-4.4198,-4.6179,-4.6891,-4.6623,-4.9227,-5.1235,-0.2234,-0.3351,-0.4435,-0.4088,-0.3202,-0.2263,-0.1868,0.0,-0.0317,-0.1539,0.0,-0.1791,-0.1795,0.0,0.0,-0.053,-0.1986,-0.3277,-0.35,-0.5567,-0.8852,-1.3722,-1.5923,-1.7179,-1.7506,-1.8878,-2.1671,-2.6444,-2.6406,-2.7165,-2.9309,-2.9791,-2.9115,-2.7215,-2.7143,-2.6357,-2.4636,-2.4636,-2.4649,-2.469,-2.5167,-2.5615,-2.5941,-2.8303,-2.8534,-2.7162,-2.8764,-2.8374,-2.6689,-2.6465,-2.7462,-2.906,-2.9293,-3.0669,-3.2733,-3.4526,-3.6349,-3.797,-3.8136,-3.819,-3.87,-4.2295,-4.4213,-4.4841,-4.3791,-4.3634,-4.3772,-4.3772,-4.5118,-4.6465,-4.6465,-4.7863,-4.9242,-4.9047,-4.9112,-4.9242,-4.9047,-4.8809,-4.8314,-4.7282,-4.6652,-4.5989,-4.5145,-4.4841,-4.3869,-4.154,-4.1172,-4.1172,-4.1172,-4.4193,-4.5945,-4.4752,-4.5648,-4.6315,-4.6315,-4.6315,-4.6315,-4.6315,-4.4752,-4.3794,-4.3794,-4.2119,-4.1152,-4.1094,-4.3028,-4.4849,-4.6595,-4.8629,-4.9558,-4.9558,-5.1358,-5.3233,-0.3876,-0.4571,-0.5164,-0.4651,-0.3649,-0.2672,-0.2115,-0.0984,-0.0361,-0.1741,0.0,0.0,0.0,0.0,0.0,0.0,-0.1316,-0.2101,-0.1337,-0.4141,-0.7357,-1.0179,-1.1228,-1.3037,-1.6348,-1.8195,-2.1129,-2.5855,-2.5674,-2.6605,-2.9576,-2.9843,-2.9672,-2.9115,-2.9115,-2.8197,-2.6284,-2.6284,-2.5712,-2.4636,-2.4756,-2.5064,-2.5518,-2.653,-2.6771,-2.6544,-2.853,-2.8905,-2.8218,-2.9449,-3.0438,-3.1268,-3.2472,-3.3456,-3.4451,-3.6497,-3.7878,-3.8574,-3.8574,-3.8574,-3.9215,-4.2892,-4.4445,-4.5142,-4.6817,-4.6536,-4.5659,-4.5659,-4.7022,-4.8648,-4.9543,-5.0397,-5.1205,-5.2174,-5.2359,-5.2359,-5.2359,-5.2279,-5.2095,-5.1612,-5.1817,-5.1962,-5.1765,-4.8662,-4.5849,-4.4699,-4.4548,-4.4849,-4.5648,-4.7175,-4.7613,-4.6367,-4.6662,-4.7029,-4.7029,-4.7029,-4.7029,-4.7029,-4.5201,-4.4096,-4.4096,-4.2196,-4.1172,-4.1172,-4.4247,-4.6146,-4.7029,-5.0127,-5.2159,-5.3181,-5.3875,-5.6122,-0.5733,-0.621,-0.6621,-0.5873,-0.4846,-0.3892,-0.3239,-0.1766,-0.1032,-0.2841,-0.2538,0.0,0.0,0.0,-0.1666,-0.0727,0.0,-0.1804,-0.1168,-0.3905,-0.6249,-0.6972,-0.7854,-1.0489,-1.5774,-1.726,-2.0173,-2.5768,-2.5785,-2.7246,-3.1346,-3.1389,-3.1358,-3.1565,-3.123,-3.0184,-2.8285,-2.8285,-2.7273,-2.5419,-2.5419,-2.5411,-2.5398,-2.5398,-2.6013,-2.7181,-2.8632,-2.9668,-3.0361,-3.1896,-3.2505,-3.2733,-3.4676,-3.5497,-3.5738,-3.7805,-3.8574,-3.8574,-3.8574,-3.9273,-4.0524,-4.3257,-4.4798,-4.6274,-4.9847,-4.9338,-4.7617,-4.8118,-4.9207,-5.0563,-5.1678,-5.2332,-5.2944,-5.4089,-5.4386,-5.4386,-5.4386,-5.4741,-5.4918,-5.4446,-5.6017,-5.7249,-5.6931,-5.2304,-4.865,-4.865,-4.865,-4.9344,-5.1247,-5.1202,-5.0898,-5.0521,-5.017,-4.9983,-4.9983,-4.9983,-4.9582,-4.8557,-4.6764,-4.5254,-4.4172,-4.2713,-4.1753,-4.1172,-4.4998,-4.7029,-4.7029,-5.0928,-5.3987,-5.6114,-5.6114,-5.8439,-0.7765,-0.8986,-1.0089,-0.9027,-0.7859,-0.6776,-0.6062,-0.3828,-0.2748,-0.5559,-0.3928,-0.2431,-0.384,-0.2971,0.0,0.0,-0.1998,0.0,0.0,-0.3985,-0.4205,-0.4582,-0.753,-1.1049,-1.4968,-1.4842,-1.7925,-2.6153,-2.6633,-2.9415,-3.5956,-3.5605,-3.5112,-3.4785,-3.3655,-3.2158,-3.0239,-3.0239,-2.9258,-2.7433,-2.7433,-2.6602,-2.509,-2.509,-2.6522,-2.8894,-2.897,-3.0282,-3.2429,-3.2505,-3.2505,-3.2733,-3.4676,-3.5497,-3.5738,-3.7805,-3.8574,-3.8574,-3.8574,-4.0975,-4.3917,-4.4072,-4.6512,-5.0013,-5.3263,-5.2056,-4.9822,-5.1367,-5.1865,-5.1927,-5.1989,-5.3187,-5.4327,-5.4386,-5.4386,-5.4386,-5.4386,-5.556,-5.6194,-5.4682,-5.757,-5.9898,-5.8742,-5.5309,-5.2698,-5.2698,-5.2698,-5.392,-5.7277,-5.679,-5.6892,-5.9042,-5.8292,-5.766,-5.766,-5.766,-5.6137,-5.2528,-5.0712,-4.8049,-4.4247,-4.4021,-4.3151,-4.125,-4.4998,-4.7029,-4.7029,-5.0928,-5.4634,-5.7941,-5.7941,-5.9607,-0.9748,-1.0345,-1.0711,-0.9761,-0.8539,-0.7322,-0.65,-0.501,-0.4256,-0.5977,-0.5759,-0.5355,-0.5656,-0.5299,0.0,0.0,0.0,0.0,0.0,-0.4766,-0.6078,-0.804,-0.978,-1.1777,-1.4154,-1.6342,-2.0053,-2.605,-2.7401,-2.9965,-3.4692,-3.4679,-3.4746,-3.5207,-3.4864,-3.3898,-3.2246,-3.2246,-3.1245,-2.9329,-2.8068,-2.732,-2.6903,-2.5664,-2.6396,-2.8656,-3.0288,-3.2176,-3.425,-3.5869,-3.6516,-3.659,-3.7272,-3.7566,-3.7658,-3.8336,-3.8574,-3.8574,-3.8574,-4.098,-4.4142,-4.414,-4.7281,-5.1586,-5.3734,-5.3624,-5.291,-5.3429,-5.361,-5.385,-5.4831,-5.5474,-5.6194,-5.7272,-5.8183,-5.8746,-5.8746,-5.9832,-6.0434,-5.9068,-6.0577,-6.1716,-6.0459,-5.9908,-5.9132,-5.7624,-5.7432,-5.756,-5.7941,-5.7687,-5.7751,-5.8509,-5.8257,-5.8005,-5.8005,-5.8005,-5.6994,-5.4612,-5.2671,-5.0524,-4.8121,-4.6735,-4.5723,-4.5073,-4.7636,-4.9009,-4.9009,-5.1607,-5.4634,-5.8005,-5.8005,-6.0758,-1.0907,-1.1016,-1.1172,-1.0985,-1.0327,-0.9486,-0.8666,-0.7497,-0.674,-0.7294,-0.6659,-0.6247,-0.6894,-0.6279,0.0,0.0,0.0,0.0,0.0,-0.6863,-0.8244,-1.0545,-1.0966,-1.1955,-1.4189,-1.6808,-2.0501,-2.5635,-2.7329,-3.0021,-3.4275,-3.427,-3.4719,-3.5956,-3.5626,-3.5027,-3.4227,-3.4176,-3.324,-3.1299,-3.0113,-2.9242,-2.8738,-2.7511,-2.8205,-3.0444,-3.2114,-3.4062,-3.6087,-3.787,-3.8574,-3.8574,-3.8574,-3.8574,-3.8574,-3.8574,-3.9176,-3.9919,-3.9919,-4.2208,-4.5028,-4.4823,-4.8061,-5.2367,-5.4336,-5.4653,-5.4505,-5.5035,-5.5211,-5.5532,-5.7015,-5.7823,-5.8619,-6.0119,-6.1122,-6.1696,-6.1696,-6.239,-6.2731,-6.1896,-6.2415,-6.2725,-6.1898,-6.2491,-6.238,-6.0327,-5.9839,-5.9503,-5.8946,-5.8884,-5.9132,-5.9777,-5.9839,-5.9994,-6.0485,-5.9972,-5.9149,-5.8,-5.5143,-5.274,-5.0923,-4.9034,-4.7686,-4.7029,-4.8938,-5.0292,-5.0853,-5.2847,-5.5578,-5.8884,-5.8884,-6.1878]},{"header":{"parameterUnit":"m.s-1","parameterCategory":1,"la1":30.6,"la2":29.2853,"lo1":-89.7004,"lo2":-87.6739,"dy":0.0162,"dx":0.0183,"nx":112,"ny":82,"refTime":"2024-06-15T12:00:00:Z","depth":0,"parameterNumber":3,"parameterNumberName":"V-component_of_WINDS"},"data":[0.0,0.0,0.0,0.0,0.0,0.0,0.0,0.0,0.0,0.0,0.0,0.0,0.0,0.0,0.0,0.0,0.0,0.0,0.0,0.0,0.0,0.0,0.0,0.0,0.0,0.0,0.0,0.0,0.0,0.0,0.0,0.0,0.0,0.0,0.0,0.0,0.0,0.0,0.0,0.0,0.0,0.0,0.0,0.0,0.0,0.0,0.0,0.0,0.0,0.0,0.0,0.0,0.0,0.0,0.0,0.0,0.0,0.0,0.0,0.0,0.0,0.0,0.0,0.0,0.0,0.0,0.0,0.0,0.0,0.0,0.0,0.0,0.0,0.0,0.0,0.0,0.0,0.0,0.0,0.0,0.0,0.0,0.0,0.0,0.0,0.0,0.0,0.0,0.0,0.0,4.4138,4.8177,5.2105,5.4297,5.4023,5.332,5.0273,4.4101,0.0,0.0,0.0,0.0,0.0,0.0,0.0,0.0,0.0,0.0,0.0,0.0,0.0,0.0,0.0,0.0,0.0,0.0,0.0,0.0,0.0,0.0,0.0,0.0,0.0,0.0,0.0,0.0,0.0,0.0,0.0,0.0,0.0,0.0,0.0,0.0,0.0,0.0,0.0,0.0,0.0,0.0,0.0,0.0,0.0,0.0,0.0,0.0,0.0,0.0,0.0,0.0,0.0,0.0,0.0,0.0,0.0,0.0,0.0,0.0,0.0,0.0,0.0,0.0,0.0,0.0,0.0,0.0,0.0,0.0,0.0,0.0,0.0,0.0,0.0,0.0,0.0,0.0,0.0,0.0,0.0,0.0,0.0,0.0,0.0,0.0,0.0,0.0,0.0,0.0,0.0,0.0,0.0,0.0,0.0,0.0,0.0,0.0,0.0,0.0,0.0,0.0,0.0,0.0,4.6211,5.3358,5.5351,5.5625,5.4141,5.3867,5.0898,4.4141,0.0,0.0,0.0,0.0,0.0,0.0,0.0,0.0,0.0,0.0,0.0,0.0,0.0,0.0,0.0,0.0,0.0,0.0,0.0,0.0,0.0,0.0,0.0,0.0,0.0,0.0,0.0,0.0,0.0,0.0,0.0,0.0,0.0,0.0,0.0,0.0,0.0,0.0,0.0,0.0,0.0,0.0,0.0,0.0,0.0,0.0,0.0,0.0,0.0,0.0,0.0,0.0,0.0,0.0,0.0,0.0,0.0,0.0,0.0,0.0,0.0,0.0,0.0,0.0,0.0,0.0,0.0,0.0,0.0,0.0,0.0,0.0,0.0,0.0,0.0,0.0,0.0,0.0,0.0,0.0,0.0,0.0,0.0,0.0,0.0,0.0,0.0,0.0,0.0,0.0,0.0,0.0,0.0,0.0,0.0,0.0,0.0,0.0,0.0,0.0,0.0,0.0,0.0,4.5144,4.8704,5.4648,5.6094,5.5898,5.4141,5.3984,5.1055,4.4141,4.2148,0.0,0.0,0.0,0.0,0.0,0.0,0.0,0.0,0.0,0.0,0.0,0.0,0.0,0.0,0.0,0.0,0.0,0.0,0.0,0.0,0.0,0.0,0.0,0.0,0.0,0.0,0.0,0.0,0.0,0.0,0.0,0.0,0.0,0.0,0.0,0.0,0.0,0.0,0.0,0.0,0.0,0.0,0.0,0.0,0.0,0.0,0.0,0.0,0.0,0.0,0.0,0.0,0.0,0.0,0.0,0.0,0.0,0.0,0.0,0.0,0.0,0.0,0.0,0.0,0.0,0.0,0.0,0.0,0.0,0.0,0.0,0.0,0.0,0.0,0.0,0.0,0.0,0.0,0.0,0.0,0.0,0.0,0.0,0.0,0.0,0.0,0.0,0.0,0.0,0.0,0.0,0.0,0.0,0.0,0.0,0.0,0.0,0.0,0.0,0.0,0.0,0.0,4.8814,5.1384,5.5195,5.6211,5.5898,5.4141,5.3633,5.0625,4.4101,4.1562,0.0,0.0,0.0,0.0,0.0,0.0,0.0,0.0,0.0,0.0,0.0,0.0,0.0,0.0,0.0,0.0,0.0,0.0,0.0,0.0,0.0,0.0,0.0,0.0,0.0,0.0,0.0,0.0,0.0,0.0,0.0,0.0,0.0,0.0,0.0,0.0,0.0,0.0,0.0,0.0,0.0,0.0,0.0,0.0,0.0,0.0,0.0,0.0,0.0,0.0,0.0,0.0,0.0,0.0,0.0,0.0,0.0,0.0,0.0,0.0,0.0,0.0,0.0,0.0,0.0,0.0,0.0,0.0,0.0,0.0,0.0,0.0,0.0,0.0,0.0,0.0,0.0,0.0,0.0,0.0,0.0,0.0,0.0,0.0,0.0,0.0,0.0,0.0,0.0,0.0,0.0,0.0,0.0,0.0,0.0,0.0,0.0,0.0,0.0,0.0,0.0,0.0,5.0531,5.4234,5.6289,5.6562,5.5898,5.4141,5.25,4.9336,4.4023,3.9844,0.0,0.0,0.0,0.0,0.0,0.0,0.0,0.0,0.0,0.0,0.0,0.0,0.0,0.0,0.0,0.0,0.0,0.0,0.0,0.0,0.0,0.0,0.0,0.0,0.0,0.0,0.0,0.0,0.0,0.0,0.0,0.0,0.0,0.0,0.0,0.0,0.0,0.0,0.0,0.0,0.0,0.0,0.0,0.0,0.0,0.0,0.0,0.0,0.0,0.0,0.0,0.0,0.0,0.0,0.0,0.0,0.0,0.0,0.0,0.0,0.0,0.0,0.0,0.0,0.0,0.0,0.0,0.0,0.0,0.0,0.0,0.0,0.0,0.0,0.0,0.0,0.0,0.0,0.0,0.0,0.0,0.0,0.0,0.0,0.0,0.0,0.0,0.0,0.0,0.0,0.0,0.0,0.0,0.0,0.0,0.0,0.0,0.0,0.0,0.0,0.0,0.0,4.9802,5.3394,5.6289,5.6601,5.5898,5.4141,5.3398,5.0117,4.332,0.0,0.0,0.0,0.0,0.0,0.0,0.0,0.0,0.0,0.0,0.0,0.0,0.0,0.0,0.0,0.0,0.0,0.0,0.0,0.0,0.0,0.0,0.0,0.0,0.0,0.0,0.0,0.0,0.0,0.0,0.0,0.0,0.0,0.0,0.0,0.0,0.0,0.0,0.0,0.0,0.0,0.0,0.0,0.0,0.0,0.0,0.0,0.0,0.0,0.0,0.0,0.0,0.0,0.0,0.0,0.0,0.0,0.0,0.0,0.0,0.0,0.0,0.0,0.0,0.0,0.0,0.0,0.0,0.0,0.0,0.0,0.0,0.0,0.0,0.0,0.0,0.0,0.0,0.0,0.0,0.0,0.0,0.0,0.0,0.0,0.0,0.0,0.0,0.0,0.0,0.0,0.0,0.0,0.0,0.0,0.0,0.0,0.0,0.0,0.0,0.0,0.0,4.6133,5.0195,5.3672,5.6328,5.6601,5.5898,5.4141,5.3476,5.0078,4.2851,0.0,0.0,0.0,0.0,0.0,0.0,0.0,0.0,0.0,0.0,0.0,0.0,0.0,0.0,0.0,0.0,0.0,0.0,0.0,0.0,0.0,0.0,0.0,0.0,0.0,0.0,0.0,0.0,0.0,0.0,0.0,0.0,0.0,0.0,0.0,0.0,0.0,0.0,0.0,0.0,0.0,0.0,0.0,0.0,0.0,0.0,0.0,0.0,0.0,0.0,0.0,0.0,0.0,0.0,0.0,0.0,0.0,0.0,0.0,0.0,0.0,0.0,0.0,0.0,0.0,0.0,0.0,0.0,0.0,0.0,0.0,0.0,0.0,0.0,0.0,0.0,0.0,0.0,0.0,0.0,0.0,0.0,0.0,0.0,0.0,0.0,0.0,0.0,0.0,0.0,0.0,0.0,0.0,0.0,0.0,0.0,0.0,0.0,0.0,0.0,0.0,0.0,4.7187,5.2148,5.5664,5.6523,5.6601,5.5898,5.4141,5.2422,4.8828,0.0,0.0,0.0,0.0,0.0,0.0,0.0,0.0,0.0,0.0,0.0,0.0,0.0,0.0,0.0,0.0,0.0,0.0,0.0,0.0,0.0,0.0,0.0,0.0,0.0,0.0,0.0,0.0,0.0,0.0,0.0,0.0,0.0,0.0,0.0,0.0,0.0,0.0,0.0,0.0,0.0,0.0,0.0,0.0,0.0,0.0,0.0,0.0,0.0,0.0,0.0,0.0,0.0,0.0,0.0,0.0,0.0,0.0,0.0,0.0,0.0,0.0,0.0,0.0,0.0,0.0,0.0,0.0,0.0,0.0,0.0,0.0,0.0,0.0,0.0,0.0,0.0,0.0,0.0,0.0,0.0,0.0,0.0,0.0,0.0,0.0,0.0,0.0,0.0,0.0,0.0,0.0,0.0,0.0,0.0,0.0,0.0,0.0,0.0,0.0,0.0,0.0,0.0,4.8086,5.3555,5.7226,5.75,5.7539,5.6562,5.4219,5.3516,4.9883,4.2031,0.0,0.0,0.0,0.0,0.0,0.0,0.0,0.0,0.0,0.0,0.0,0.0,0.0,0.0,0.0,0.0,0.0,0.0,0.0,0.0,0.0,0.0,0.0,0.0,0.0,0.0,0.0,0.0,0.0,0.0,0.0,0.0,0.0,0.0,0.0,0.0,0.0,0.0,0.0,0.0,0.0,0.0,0.0,0.0,0.0,0.0,0.0,0.0,0.0,0.0,0.0,0.0,0.0,0.0,0.0,0.0,0.0,0.0,0.0,0.0,0.0,0.0,0.0,0.0,0.0,0.0,0.0,0.0,0.0,0.0,0.0,0.0,0.0,0.0,0.0,0.0,0.0,0.0,0.0,0.0,0.0,0.0,0.0,0.0,0.0,0.0,0.0,0.0,0.0,0.0,0.0,0.0,0.0,0.0,0.0,0.0,0.0,0.0,0.0,0.0,0.0,0.0,4.8945,5.4375,5.8047,5.8398,5.8125,5.7109,5.5195,5.4414,5.0937,4.3672,0.0,0.0,0.0,0.0,0.0,0.0,0.0,0.0,0.0,0.0,0.0,0.0,0.0,0.0,0.0,0.0,0.0,0.0,0.0,0.0,0.0,0.0,0.0,0.0,0.0,0.0,0.0,0.0,0.0,0.0,0.0,0.0,0.0,0.0,0.0,0.0,0.0,0.0,0.0,0.0,0.0,0.0,0.0,0.0,0.0,0.0,0.0,0.0,0.0,0.0,0.0,0.0,0.0,0.0,0.0,0.0,0.0,0.0,0.0,0.0,0.0,0.0,0.0,0.0,0.0,0.0,0.0,0.0,0.0,0.0,0.0,0.0,0.0,0.0,0.0,0.0,0.0,0.0,0.0,0.0,0.0,0.0,0.0,0.0,0.0,0.0,0.0,0.0,0.0,0.0,0.0,0.0,0.0,0.0,0.0,0.0,0.0,0.0,0.0,0.0,0.0,0.0,4.9766,5.4805,5.8359,5.9219,5.8555,5.7656,5.668,5.5,5.1836,4.6758,0.0,0.0,0.0,0.0,0.0,0.0,0.0,0.0,0.0,0.0,0.0,0.0,0.0,0.0,0.0,0.0,0.0,0.0,0.0,0.0,0.0,0.0,0.0,0.0,0.0,0.0,0.0,0.0,0.0,0.0,0.0,0.0,0.0,0.0,0.0,0.0,0.0,0.0,0.0,0.0,0.0,0.0,0.0,0.0,0.0,0.0,0.0,0.0,0.0,0.0,0.0,0.0,0.0,0.0,0.0,0.0,0.0,0.0,0.0,0.0,4.3008,4.0508,0.0,0.0,0.0,0.0,0.0,0.0,0.0,0.0,0.0,0.0,0.0,0.0,0.0,0.0,0.0,0.0,0.0,0.0,0.0,0.0,0.0,0.0,0.0,0.0,0.0,0.0,0.0,0.0,0.0,0.0,0.0,0.0,0.0,0.0,0.0,0.0,0.0,0.0,0.0,0.0,5.0586,5.5703,5.9258,6.0078,5.9414,5.8281,5.6719,5.5,5.2109,4.7617,4.3906,0.0,0.0,0.0,0.0,0.0,0.0,0.0,0.0,0.0,0.0,0.0,0.0,0.0,0.0,0.0,0.0,0.0,0.0,0.0,0.0,0.0,0.0,0.0,0.0,0.0,0.0,0.0,0.0,0.0,0.0,0.0,0.0,0.0,0.0,0.0,0.0,0.0,0.0,0.0,0.0,0.0,0.0,0.0,0.0,0.0,0.0,0.0,0.0,0.0,0.0,0.0,0.0,0.0,0.0,0.0,0.0,0.0,0.0,0.0,4.8555,4.6211,0.0,0.0,0.0,0.0,0.0,0.0,0.0,0.0,0.0,0.0,0.0,0.0,0.0,0.0,0.0,0.0,0.0,0.0,0.0,0.0,0.0,0.0,0.0,0.0,0.0,0.0,0.0,0.0,0.0,0.0,0.0,0.0,0.0,0.0,0.0,0.0,0.0,0.0,0.0,0.0,5.1406,5.6211,5.9687,6.0898,6.0273,5.9258,5.7969,5.625,5.375,5.0273,4.6753,0.0,0.0,0.0,0.0,0.0,0.0,0.0,0.0,0.0,0.0,0.0,0.0,0.0,0.0,0.0,0.0,0.0,0.0,0.0,0.0,0.0,0.0,0.0,0.0,0.0,0.0,0.0,0.0,0.0,0.0,0.0,0.0,0.0,0.0,0.0,0.0,0.0,0.0,0.0,0.0,0.0,0.0,0.0,0.0,0.0,0.0,0.0,0.0,0.0,0.0,0.0,0.0,0.0,5.6367,5.6992,5.8359,5.7656,5.8125,5.9219,5.4805,5.3164,5.3281,4.9297,0.0,0.0,0.0,0.0,0.0,0.0,0.0,0.0,0.0,0.0,0.0,0.0,0.0,0.0,0.0,0.0,0.0,0.0,0.0,0.0,0.0,0.0,5.2539,5.375,5.5273,5.4609,4.8047,0.0,0.0,0.0,0.0,0.0,0.0,0.0,0.0,0.0,0.0,0.0,5.2305,5.6719,6.0,6.1523,6.0937,6.0078,5.9258,5.7617,5.5586,5.328,4.982,4.6506,0.0,0.0,0.0,0.0,0.0,0.0,0.0,0.0,0.0,0.0,0.0,0.0,0.0,0.0,0.0,0.0,0.0,0.0,0.0,0.0,0.0,0.0,0.0,0.0,0.0,0.0,0.0,0.0,0.0,0.0,0.0,0.0,4.1585,4.2849,0.0,0.0,0.0,0.0,0.0,0.0,0.0,0.0,0.0,0.0,0.0,0.0,0.0,5.6172,5.7031,6.0234,6.1875,6.1992,6.418,6.5312,6.5547,6.543,6.5508,6.5625,6.418,0.0,5.6992,5.4141,0.0,0.0,0.0,0.0,0.0,0.0,0.0,0.0,0.0,0.0,0.0,0.0,0.0,0.0,0.0,0.0,0.0,0.0,0.0,0.0,0.0,0.0,6.0039,5.9492,6.0156,6.0351,5.8594,5.3047,4.75,4.457,4.3555,4.2305,0.0,0.0,0.0,0.0,0.0,0.0,5.3476,5.7578,6.0625,6.1601,6.0937,6.0078,5.9258,5.7617,5.609,5.4843,5.1555,4.9058,4.7738,4.3034,0.0,0.0,0.0,0.0,0.0,0.0,0.0,0.0,0.0,0.0,0.0,0.0,0.0,0.0,0.0,0.0,0.0,0.0,0.0,0.0,0.0,0.0,0.0,0.0,0.0,0.0,0.0,0.0,0.0,4.132,4.4529,4.4453,4.4961,4.4414,0.0,0.0,0.0,0.0,0.0,0.0,0.0,0.0,0.0,5.9492,6.0469,6.1836,6.3672,6.5664,6.664,6.668,6.7773,6.832,6.8359,6.8232,6.8182,6.818,6.7666,6.6155,6.3737,5.9297,5.6265,5.4154,0.0,0.0,0.0,0.0,5.1714,5.1654,5.4859,5.534,5.4355,5.3416,0.0,0.0,0.0,0.0,0.0,0.0,0.0,5.4179,5.6819,5.9548,6.1846,6.2818,6.3315,6.351,6.312,5.9638,5.5252,5.0896,4.9766,4.8047,4.3555,4.3906,0.0,0.0,0.0,5.2734,5.5781,5.8633,6.0742,6.1601,6.1367,6.0545,5.9164,5.8342,5.707,5.5108,5.3517,5.1808,4.9938,4.664,4.3477,0.0,0.0,0.0,0.0,0.0,0.0,0.0,0.0,0.0,0.0,0.0,0.0,0.0,0.0,0.0,0.0,0.0,0.0,0.0,0.0,0.0,0.0,0.0,0.0,0.0,0.0,0.0,0.0,4.5273,4.7773,4.6484,4.8633,4.8789,0.0,0.0,0.0,0.0,0.0,0.0,5.8789,5.9726,6.1758,6.5195,6.6133,6.7539,6.9492,7.0351,7.0781,7.0781,7.0701,7.0698,7.0736,7.0519,7.0433,7.039,6.9811,6.9529,6.9104,6.3891,6.0859,5.9295,5.7342,5.614,5.5682,5.7207,5.7255,5.7112,6.0828,6.1432,6.0385,5.9367,5.8156,5.646,5.3187,0.0,0.0,0.0,0.0,5.7237,6.0577,6.1924,6.2921,6.4965,6.5447,6.5447,6.5447,6.4072,6.144,5.676,5.5645,5.3889,4.8782,4.8979,0.0,4.9838,5.2377,5.5305,5.8069,5.9904,6.1117,6.1546,6.1585,6.0948,5.9332,5.8975,5.7879,5.5629,5.4999,5.3817,5.1896,4.9842,4.7394,4.4432,0.0,0.0,0.0,0.0,0.0,0.0,0.0,0.0,0.0,0.0,0.0,0.0,0.0,0.0,0.0,0.0,0.0,0.0,0.0,0.0,0.0,0.0,0.0,0.0,0.0,0.0,0.0,0.0,0.0,5.0234,5.4336,0.0,0.0,0.0,0.0,5.6094,5.789,6.0742,6.4922,6.5976,6.8008,7.1445,7.2383,7.289,7.3047,7.3906,7.4336,7.4336,7.415,7.4073,7.4066,7.3859,7.3773,7.3657,7.2054,7.124,7.0825,6.741,6.5453,6.4396,6.1869,6.0346,5.9691,6.0643,6.0915,6.1142,6.3028,6.31,6.2504,6.3249,6.1758,5.9625,5.9145,5.7521,0.0,0.0,5.9558,6.0448,6.3935,6.4869,6.5142,6.6114,6.6348,6.6348,6.6348,6.4973,6.3178,6.1194,6.0176,5.8776,5.6166,0.0,5.587,5.587,5.7434,5.8889,5.9783,6.1373,6.2118,6.1384,6.1312,6.0956,6.0005,5.9199,5.824,5.7148,5.5583,5.4602,5.4311,5.1905,4.9702,4.7894,4.4547,0.0,0.0,0.0,0.0,0.0,0.0,0.0,0.0,0.0,0.0,0.0,0.0,0.0,0.0,0.0,0.0,0.0,0.0,0.0,0.0,0.0,0.0,0.0,0.0,0.0,0.0,0.0,0.0,5.5195,5.8242,0.0,5.668,5.875,6.0859,6.2265,6.4531,6.7226,7.039,7.0859,7.1836,7.3633,7.3984,7.414,7.414,7.4323,7.4423,7.4382,7.4202,7.4092,7.4086,7.3898,7.383,7.3782,7.3093,7.2749,7.2585,7.1436,6.9494,6.7238,6.6308,6.5848,6.5725,6.6043,6.6081,6.5967,6.6101,6.5847,6.535,6.4549,6.3688,6.2787,6.2148,6.1832,6.1871,6.2758,6.3511,6.4325,6.5452,6.573,6.5804,6.6041,6.6077,6.6077,6.6077,6.5603,6.4964,6.4335,6.2796,6.0954,5.8976,5.9537,5.9927,5.8792,6.0082,6.1518,6.2322,6.2983,6.3028,6.2172,6.2061,6.1473,6.0002,5.9063,5.7893,5.6329,5.5201,5.4034,5.2895,5.1727,5.0275,4.8581,4.661,4.2997,0.0,0.0,0.0,0.0,0.0,0.0,0.0,0.0,0.0,0.0,0.0,0.0,0.0,0.0,0.0,0.0,0.0,0.0,0.0,0.0,0.0,0.0,0.0,0.0,0.0,5.5508,5.8633,5.8359,6.2148,6.3867,6.1562,6.4219,6.664,6.8086,6.9996,7.21,7.4404,7.4701,7.5236,7.6095,7.6193,7.6194,7.6134,7.6032,7.5998,7.5913,7.5704,7.5638,7.559,7.5139,7.4922,7.4871,7.4189,7.3899,7.3899,7.363,7.2212,7.0197,6.9629,6.9273,6.9109,6.8837,6.8665,6.8469,6.7939,6.766,6.7321,6.5897,6.5436,6.5282,6.4436,6.4617,6.5167,6.5167,6.5683,6.6191,6.6059,6.6018,6.6003,6.5921,6.5897,6.5897,6.5897,6.5897,6.5897,6.5897,6.4693,6.3183,6.1803,6.2524,6.2803,6.1352,6.2369,6.3363,6.3618,6.3882,6.3693,6.2644,6.2296,6.1582,6.0177,5.8368,5.6956,5.6167,5.4426,5.3096,5.2356,5.1294,5.0203,4.9074,4.7146,4.4065,3.9802,0.0,0.0,0.0,0.0,0.0,0.0,0.0,0.0,0.0,0.0,0.0,0.0,0.0,0.0,0.0,0.0,0.0,0.0,0.0,0.0,0.0,0.0,0.0,5.5664,5.9883,6.2226,5.9883,6.6172,6.9453,6.6211,6.9648,7.2422,7.3359,7.4025,7.5144,7.6864,7.7514,7.8233,7.9057,7.9299,7.931,7.9096,7.9299,7.9299,7.9081,7.8882,7.8778,7.8778,7.7764,7.7323,7.7207,7.5515,7.4784,7.4668,7.3899,7.3553,7.336,7.1668,7.0475,6.9667,6.8821,6.8513,6.8423,6.8423,6.8436,6.8282,6.7398,6.7128,6.6936,6.6167,6.5897,6.5897,6.5897,6.5897,6.5897,6.5897,6.5897,6.5897,6.5897,6.5897,6.5897,6.5897,6.5897,6.5897,6.5897,6.5897,6.5637,6.4938,6.4822,6.4551,6.3729,6.4271,0.0,6.3474,6.4052,6.4076,6.2734,6.188,6.1194,6.0597,5.718,5.5546,5.6765,5.3366,5.1863,5.3081,5.0854,4.9622,4.9608,4.6317,4.4018,4.2843,0.0,0.0,0.0,0.0,0.0,0.0,0.0,0.0,0.0,0.0,0.0,0.0,0.0,0.0,0.0,0.0,0.0,0.0,0.0,0.0,0.0,5.7851,6.1172,6.0937,6.3203,6.5781,6.8203,7.0351,7.1758,7.2109,7.3072,7.4296,7.5816,7.5947,7.6716,7.839,7.866,7.8863,7.9096,7.9148,7.9148,7.9096,7.8997,7.8952,7.8871,7.8683,7.8599,7.856,7.8305,7.7861,7.7284,7.6784,7.6245,7.563,7.5399,7.4938,7.4284,7.3206,7.2245,7.1475,7.1245,7.0398,6.936,6.936,6.8936,6.8359,6.8129,6.7628,6.7051,6.6821,6.6359,6.5897,6.5897,6.5897,6.5897,6.5897,6.5897,6.5897,6.5897,6.5897,6.5897,6.5897,6.5897,6.5897,6.5897,6.5583,6.5273,6.5053,6.5029,6.4829,6.4257,6.4362,6.4405,6.4137,6.431,6.3841,6.2263,6.1885,6.1228,5.9842,5.7661,5.6015,5.5201,5.3044,5.1697,5.1413,5.0456,4.9843,4.9602,4.7457,4.5651,0.0,0.0,0.0,0.0,0.0,0.0,0.0,0.0,0.0,0.0,0.0,0.0,0.0,0.0,0.0,0.0,0.0,0.0,0.0,0.0,0.0,0.0,6.1953,6.5117,6.6562,6.7656,6.9178,7.159,7.2837,7.4002,7.53,7.5634,7.6326,7.7724,7.7992,7.8485,7.9456,7.9784,7.9953,7.9953,8.0029,8.0029,7.9953,7.9908,7.9852,7.9752,7.9659,7.9592,7.9592,7.9208,7.8784,7.8323,7.7938,7.7323,7.6553,7.6553,7.6015,7.5168,0.0,0.0,0.0,0.0,7.1591,7.0706,7.0321,6.986,6.9398,6.9052,6.859,6.8129,6.7744,6.7321,6.6936,6.6936,6.6936,6.6936,6.6936,6.6936,6.6859,6.6474,6.6397,6.632,6.5974,6.5897,6.5821,6.5597,6.5306,0.0,6.4516,6.4661,6.4582,6.3954,6.4143,6.4275,6.3917,6.4181,6.3955,6.2745,6.2312,6.1633,6.0421,5.8016,0.0,0.0,0.0,5.1253,5.0247,4.9987,0.0,0.0,0.0,0.0,0.0,4.8122,0.0,0.0,4.5973,4.6318,0.0,0.0,0.0,0.0,0.0,0.0,0.0,0.0,0.0,0.0,0.0,0.0,0.0,0.0,0.0,0.0,6.5546,6.8514,7.1678,7.2263,7.2291,7.2161,7.425,7.5991,7.666,7.7447,7.8287,7.9134,7.9724,8.0097,8.0213,8.0772,0.0,0.0,0.0,8.1285,8.1093,8.1285,8.1285,8.1093,8.1093,8.1093,8.1054,8.0285,7.99,7.9746,7.8977,7.8169,7.7438,7.7323,7.6784,7.5899,7.5053,7.4284,7.3553,7.2668,7.236,7.2206,7.136,0.0,0.0,7.009,6.9783,6.9552,6.8783,6.8475,6.8385,6.8385,6.8385,6.8385,6.8385,6.8385,6.8205,6.7436,6.7167,6.6898,6.6205,6.591,6.5676,6.5177,6.5019,6.4661,6.3766,6.3978,6.4049,6.32,6.3708,6.3934,6.3162,6.3746,6.3981,6.3438,6.2724,0.0,6.1496,5.8393,5.6832,5.7799,5.3927,5.1194,5.0088,5.0198,5.0235,5.0161,5.0912,5.2013,5.3314,5.4216,5.473,5.4693,4.9517,4.9003,0.0,0.0,0.0,0.0,0.0,0.0,0.0,0.0,0.0,0.0,0.0,0.0,0.0,0.0,0.0,6.3789,6.7835,7.124,7.2603,7.3861,7.4722,7.4843,7.5769,7.6728,7.747,7.8195,7.8956,7.9847,7.9868,8.0159,8.0853,8.1023,8.1093,8.1093,8.1131,8.1131,8.1093,8.1131,8.1131,8.1093,8.1093,0.0,8.1093,8.0939,8.0477,7.9785,7.9631,7.9054,7.8207,7.7553,7.6784,7.5899,7.5053,7.4591,7.4361,7.3553,7.3245,7.3129,7.2245,7.1937,7.1822,7.0937,7.0244,6.9667,6.9513,6.8975,0.0,6.8385,6.8385,6.8385,6.8385,6.8385,6.8359,6.8205,6.7628,6.7051,6.6898,6.603,6.5245,6.5115,6.4425,6.385,6.3615,6.368,6.3556,6.2946,6.2986,6.306,6.2875,6.3023,6.2828,6.2069,6.1861,6.1445,6.0676,5.9388,5.8162,5.7116,5.5,5.3676,5.3445,5.4069,5.4106,5.3482,5.4252,5.4509,5.4179,5.5647,5.6675,5.7262,5.55,5.4766,0.0,0.0,0.0,0.0,0.0,0.0,0.0,0.0,0.0,0.0,0.0,5.7265,5.9414,0.0,6.5664,6.7812,7.052,7.2814,7.4102,7.4774,7.5357,7.5899,7.6626,7.7554,7.8696,7.9121,7.9673,8.0522,8.0891,8.1246,8.167,8.2093,8.2362,8.2362,8.2362,8.2362,8.2362,8.2362,8.2362,8.2362,8.2362,8.2131,8.1708,8.1708,8.1246,8.0439,8.0439,7.9977,7.9054,7.7823,7.7053,7.6553,7.5707,7.5361,7.5245,7.4399,7.4091,7.3976,7.3129,7.2552,7.2129,7.1668,7.0975,7.0283,7.0283,7.0014,6.9667,6.9667,6.9667,6.9667,6.9667,6.9667,6.9552,6.9167,6.8706,6.8089,6.6974,6.6208,6.5465,6.4538,6.3937,6.352,6.3262,6.3191,6.3097,6.283,6.278,6.278,6.278,6.278,6.2658,6.2254,6.2218,6.2034,6.163,6.086,5.9722,5.8084,5.7262,5.6638,5.6235,5.6602,5.6602,5.6198,5.7005,5.7189,5.6822,5.8033,5.8804,5.9208,5.9208,5.8767,0.0,0.0,0.0,0.0,0.0,0.0,0.0,5.2031,5.3906,5.8203,6.0351,6.2265,6.5039,6.6953,6.9062,7.1797,7.2944,7.3977,7.5365,7.5369,7.5553,7.6413,7.7237,7.8297,7.9661,7.9939,8.04,8.1285,8.1939,8.2362,8.2554,8.3208,8.3593,8.3593,8.3593,8.3593,8.3593,8.3593,8.3593,8.3593,8.3593,8.3208,8.2554,8.2362,8.1939,8.1323,8.117,8.0592,7.9708,7.8323,7.7592,7.7207,7.6515,7.613,7.5899,7.5207,7.4938,7.4861,7.4014,7.3283,7.2629,7.2322,7.1706,7.1129,7.0937,7.0898,7.0898,7.0898,7.0898,7.0898,7.0898,7.0898,7.0744,7.009,6.9821,6.9187,6.7293,6.6521,6.5758,6.4161,6.3632,6.3331,6.288,6.278,6.278,6.278,6.278,6.278,6.278,6.278,6.278,6.278,6.278,6.278,6.278,6.2071,6.1043,5.9758,5.9515,5.9134,5.8474,5.8474,5.8474,5.8474,5.9098,5.9404,5.9404,6.0236,6.0639,6.0639,6.1447,6.141,4.1751,4.4347,4.8016,5.1872,5.3046,5.5273,0.0,6.3086,6.2812,6.7148,6.8789,6.9531,6.9922,7.1406,7.2695,7.3086,7.4351,7.5322,7.5346,7.5817,7.6413,7.7116,7.7896,7.8752,7.9708,8.0516,8.1285,8.2093,8.2247,8.2631,8.3401,8.3555,8.3593,8.3593,8.3593,8.3593,8.3593,8.3593,8.3593,8.3593,8.3593,8.3555,8.3439,8.2631,8.2247,8.2131,8.14,8.0592,7.9785,7.9592,7.8631,7.7284,7.7169,7.6669,7.5976,7.5899,7.5861,7.5745,7.4861,7.4514,7.4168,7.2668,7.2129,7.1898,7.1129,7.0898,7.0898,7.0898,7.0898,7.0898,7.0898,7.0898,7.0898,7.0783,7.0206,6.9495,6.8689,6.7043,6.55,6.4784,6.3696,6.288,6.2805,6.278,6.278,6.278,6.278,6.278,6.278,6.278,6.278,6.278,6.278,6.278,6.278,6.2071,6.152,6.1337,6.0676,6.0236,6.0126,6.0126,6.0126,6.0126,6.0236,6.0272,6.0272,6.108,6.1484,6.1484,6.2291,6.2254,4.9672,5.152,5.3317,5.5664,5.8164,6.082,6.3906,6.457,6.5586,6.9414,7.0859,7.1601,7.2109,7.3633,7.4961,7.5508,7.6308,7.6858,7.683,7.6831,7.68,7.6568,7.7284,7.8323,7.9669,8.0592,8.1439,8.2247,8.2747,8.3439,8.4324,8.4786,8.5055,8.5055,8.5055,8.5055,8.5055,8.5055,8.5055,8.5055,8.5055,8.4824,8.4324,8.3978,8.3247,8.2247,8.1439,8.09,8.0516,8.0015,7.94,7.8669,7.7669,7.7092,7.6707,7.6207,7.6015,7.5938,7.5592,7.513,7.4591,7.3899,7.2976,7.2129,7.1783,7.1283,7.0898,7.0898,7.0898,7.0898,7.0898,7.0898,7.0898,7.0898,7.0629,7.0052,6.8689,6.7676,6.6527,6.4739,6.396,6.3392,6.289,6.278,6.278,6.278,6.278,6.278,6.278,6.278,6.278,6.278,6.278,6.278,6.278,6.2511,6.2291,6.2291,6.1998,6.1814,6.1814,6.1814,6.1814,6.1814,6.1814,6.1814,6.1814,6.2144,6.2291,6.2328,6.2658,6.2622,5.4457,5.6166,5.7344,5.8906,6.2187,6.5039,6.5074,6.6049,6.7726,7.0372,7.162,7.2404,7.308,7.4643,7.6088,7.6985,7.7563,7.7864,7.7843,7.7373,7.6759,7.6068,7.6553,7.7592,7.9285,8.0246,8.1285,8.2554,8.3247,8.4093,8.517,8.5786,8.6094,8.6094,8.6094,8.6094,8.6094,8.6094,8.6094,8.6094,8.6094,8.5786,8.5209,8.5016,8.3939,8.2285,8.167,8.1323,8.1054,8.0439,8.0015,7.9669,7.8477,7.7707,7.7207,7.6592,7.6207,7.6015,7.6015,7.5592,7.5014,7.4784,7.3899,7.286,7.2629,7.1937,7.1245,7.1245,7.1091,7.0898,7.0898,7.0898,7.0898,7.0898,7.0898,7.0469,6.8812,6.8258,6.7443,6.5213,6.4383,6.3906,6.3282,6.2989,6.278,6.278,6.278,6.278,6.278,6.278,6.278,6.278,6.278,6.278,6.278,6.278,6.278,6.278,6.278,6.278,6.278,6.278,6.278,6.278,6.278,6.278,6.278,6.278,6.278,6.278,6.278,6.278,5.2537,5.5273,5.8672,6.1992,6.4844,6.742,6.9759,7.0327,7.0571,7.1336,7.2166,7.2801,7.2966,7.4431,7.5872,7.6759,7.7571,7.7991,7.7648,7.6876,7.6246,7.602,7.6015,7.6707,7.8361,7.9323,8.0862,8.3362,8.3593,8.4324,8.5978,8.6094,8.6094,8.6094,8.6094,8.6094,8.6094,8.6094,8.6094,8.6094,8.6094,8.6094,8.6055,8.5247,8.3939,8.2285,8.2285,8.1823,8.1093,8.1054,8.0554,7.9785,7.9746,7.8746,7.7284,7.7284,7.6746,7.6015,7.6015,7.5976,7.5822,7.4976,7.4668,7.4476,7.3707,7.286,7.2168,7.2168,7.1552,7.0898,7.0898,7.0898,7.0898,7.0898,7.0898,7.0608,6.9493,6.8653,6.7781,6.6651,6.5154,6.409,6.4053,6.3356,6.278,6.278,6.278,6.278,6.278,6.278,6.278,6.278,6.278,6.278,6.278,6.278,6.278,6.278,6.278,6.278,6.278,6.278,6.278,6.278,6.278,6.278,6.278,6.278,6.278,6.278,6.278,6.278,5.5976,5.9101,6.1952,6.4704,6.7351,6.9483,7.0152,7.0742,7.1048,7.0726,7.0875,7.094,7.0453,7.1711,7.3542,7.5513,7.6918,7.7932,7.8342,7.8542,7.7775,7.5414,7.6169,7.7092,7.763,7.8977,8.0862,8.3401,8.3593,8.4324,8.6017,8.6094,8.6094,8.6094,8.6094,8.6094,8.6094,8.6094,8.6094,8.6094,8.6094,8.6094,8.6055,8.5286,8.4247,8.3131,8.2554,8.1823,8.1093,8.1093,8.0939,8.0592,8.0015,7.9477,7.8823,7.7707,7.7092,7.6784,7.6207,7.6015,7.5938,7.5668,7.5168,7.4668,7.4399,7.3707,7.2937,7.236,7.1975,7.1629,7.1052,7.0898,7.0898,7.0898,7.0898,7.0681,6.9992,6.9342,6.8542,6.729,6.6307,6.5338,6.4273,6.387,6.3466,6.289,6.278,6.278,6.278,6.278,6.278,6.278,6.278,6.2941,6.3308,6.3014,6.2941,6.3331,6.299,6.278,6.278,6.278,6.278,6.278,6.278,6.278,6.278,6.278,6.278,6.278,6.278,6.278,5.9602,6.2334,6.4472,6.72,6.9167,7.0424,7.0518,7.0751,7.0774,7.0153,6.93,6.8635,6.845,6.932,7.0875,7.3426,7.545,7.7036,7.8128,7.8637,7.8207,7.6284,7.6784,7.7553,7.813,7.9169,8.0746,8.2978,8.3401,8.4209,8.5593,8.594,8.6094,8.6094,8.6094,8.6094,8.6094,8.6094,8.6094,8.6094,8.6094,8.6094,8.6094,8.5555,8.4709,8.3555,8.3016,8.2131,8.1093,8.1093,8.1093,8.1054,8.0477,8.0092,7.9669,7.8592,7.7823,7.7169,7.6284,7.6015,7.6015,7.6015,7.563,7.5168,7.5168,7.4591,7.3822,7.3245,7.2668,7.2052,7.1514,7.1129,7.0898,7.0898,7.0762,7.0478,6.9918,6.9413,6.8697,6.7664,6.6934,6.6182,6.5118,6.4714,6.4237,6.3392,6.3282,6.3172,6.2842,6.278,6.278,6.278,6.2965,6.3238,6.3587,6.3476,6.3543,6.3871,6.355,6.3271,6.3073,6.311,6.299,6.2805,6.278,6.278,6.278,6.278,6.278,6.278,6.278,6.278,6.2909,6.4762,6.6299,6.9396,7.0212,7.0394,7.098,7.0465,6.9811,6.9502,6.7436,6.597,6.6757,6.7048,6.7958,7.0522,7.322,7.5514,7.7121,7.737,7.7731,7.8477,7.7938,7.813,7.9785,7.9939,8.0631,8.2247,8.3131,8.3978,8.4901,8.5709,8.6094,8.6094,8.6094,8.6094,8.6094,8.6094,8.6094,8.6094,8.6094,8.6094,8.6094,8.6094,8.5209,8.367,8.3593,8.267,8.117,8.1131,8.1093,8.1093,8.1093,8.0592,7.9862,7.9823,7.8784,7.7246,7.6361,7.6053,7.6015,7.6015,7.6015,7.6015,7.6015,7.5438,7.4784,7.4707,7.3538,7.2255,7.2178,7.1511,7.0882,7.0843,7.0448,6.9901,6.9413,6.8869,6.8344,6.7836,6.7053,6.6512,6.6512,6.5852,6.5044,6.4273,6.4163,6.3833,6.289,6.278,6.278,6.278,6.3285,6.3593,6.3615,6.4099,6.4389,6.4426,6.4389,6.4158,6.3659,6.3593,6.334,6.2855,6.2805,6.278,6.278,6.278,6.278,6.278,6.278,6.278,6.3387,6.6346,6.9117,6.9804,7.0457,7.0777,7.0218,6.9913,6.9001,6.641,6.4397,6.2586,6.0933,6.2311,6.458,6.7117,7.1447,7.5208,7.7276,7.8632,7.9407,7.9469,7.9862,8.0516,8.1554,8.167,8.2093,8.317,8.3478,8.4247,8.5709,8.5978,8.6094,8.6094,8.6094,8.6094,8.6094,8.6094,8.6094,8.6094,8.6094,8.6094,8.6094,8.6094,8.5555,8.4516,8.3862,8.2978,8.1939,8.1362,8.1093,8.1093,8.1093,8.0977,8.0708,8.0054,7.9131,7.8092,7.7246,7.6553,7.6015,7.6015,7.6015,7.6015,7.6015,7.5822,7.5515,7.4899,7.4098,7.3165,7.1904,7.1114,7.0441,6.9853,6.9607,6.9472,6.9333,6.8869,6.8464,6.8333,6.7317,6.6512,6.6512,6.5852,6.5228,6.5044,6.5007,6.4457,6.2964,6.278,6.278,6.278,6.3285,6.3766,6.4138,6.4313,6.4536,6.4883,6.459,6.4332,6.4178,6.3808,6.3543,6.3385,6.3014,6.278,6.278,6.278,6.278,6.278,6.278,6.278,6.5973,6.8333,7.0222,7.0028,6.9921,6.9419,6.7806,6.6843,6.5367,6.2032,5.9991,5.8257,5.6473,5.8606,6.1446,6.3951,6.9018,7.3569,7.6362,7.8692,8.0182,8.0455,8.1519,8.2362,8.2824,8.2862,8.3208,8.4093,8.417,8.4593,8.5517,8.5901,8.6094,8.6094,8.6094,8.6094,8.6094,8.6094,8.6094,8.6094,8.6094,8.6094,8.6094,8.6094,8.567,8.4863,8.3978,8.3093,8.2247,8.1439,8.1093,8.1093,8.1093,8.1093,8.1054,8.0554,7.9823,7.8938,7.813,7.7284,7.6515,7.613,7.6015,7.6015,7.6015,7.5818,7.5523,7.5009,7.4229,7.3231,7.1902,7.1044,7.0311,6.9501,6.9127,6.8935,6.8935,6.8535,6.8173,6.8173,6.7535,6.7026,6.7026,6.6659,6.6219,6.5888,6.5852,6.5375,6.4053,6.3613,6.3209,6.2842,6.3285,6.3829,6.4332,6.459,6.4938,6.5417,6.5199,6.4854,6.4407,6.4099,6.3723,6.3262,6.2941,6.278,6.278,6.278,6.278,6.278,6.278,6.278,6.903,7.0041,7.0306,7.0052,6.9038,6.7447,6.4879,6.3061,6.0918,5.746,5.5428,5.3973,5.3101,5.5539,5.858,6.1317,6.6455,7.1401,7.5065,7.8057,8.0231,8.1322,8.2681,8.3598,8.378,8.3819,8.4143,8.5,8.5055,8.5055,8.5055,8.5709,8.6094,8.6094,8.6094,8.6094,8.6094,8.6094,8.6094,8.6094,8.6094,8.6094,8.6094,8.6094,8.567,8.4863,8.3978,8.3093,8.2247,8.1439,8.1093,8.1093,8.1093,8.1093,8.1093,8.1093,8.0554,7.9669,7.8784,7.7977,7.7169,7.6284,7.6015,7.6,7.5917,7.5535,7.5091,7.5017,7.404,7.2881,7.2074,7.1234,7.0379,6.9461,6.8877,6.8541,6.8429,6.8021,6.7687,6.7687,6.7687,6.7687,6.7687,6.7687,6.7467,6.6769,6.6659,6.6366,6.5558,6.464,6.3796,6.3062,6.3322,6.3787,6.4236,6.4782,6.5276,6.5676,6.5768,6.5374,6.4426,6.4313,6.3871,6.2917,6.283,6.278,6.278,6.278,6.278,6.278,6.278,6.278,6.8961,6.9572,7.0035,6.955,6.8751,6.7276,6.4142,6.2399,6.0114,5.5434,5.335,5.2027,5.0862,5.3028,5.6324,6.0472,6.511,6.9987,7.5121,7.744,7.9367,8.1405,8.2475,8.3519,8.4706,8.4842,8.5131,8.5829,8.5901,8.5901,8.5901,8.6017,8.6094,8.6094,8.6094,8.6094,8.6094,8.6094,8.6094,8.6094,8.6094,8.6094,8.6094,8.6094,8.567,8.4863,8.3978,8.3093,8.2247,8.1439,8.1093,8.1093,8.1093,8.1093,8.1093,8.1093,8.0554,7.9669,7.8784,7.7977,7.7169,7.6284,7.6015,7.5917,7.5413,7.5163,7.5017,7.4568,7.3913,7.3155,7.2334,7.165,7.0797,6.9321,6.891,6.8646,6.7984,6.7794,6.7687,6.7687,6.7687,6.7687,6.7687,6.7687,6.7677,6.7504,6.7467,6.7173,6.6402,6.5007,6.4016,6.387,6.3715,6.3615,6.3723,6.459,6.4987,6.4699,6.5019,6.4987,6.4407,6.3958,6.3637,6.3476,6.3038,6.278,6.278,6.278,6.278,6.278,6.278,6.278,6.9371,6.9579,6.9455,6.8495,6.7135,6.4852,6.0506,5.8368,5.588,5.0727,4.9531,4.8933,4.7504,5.0415,5.4029,5.7043,6.1826,6.7091,7.2434,7.5633,7.8478,8.1363,8.3089,8.4307,8.5041,8.5399,8.5627,8.557,8.5919,8.6094,8.6094,8.6094,8.6094,8.6094,8.6094,8.6094,8.6094,8.6094,8.6094,8.6094,8.6094,8.6094,8.6094,8.6094,8.567,8.4863,8.3978,8.3093,8.2247,8.1439,8.1093,8.1093,8.1093,8.1093,8.1093,8.1093,8.0823,8.0285,7.8938,7.8246,7.7707,7.6438,7.6015,7.5902,7.5289,7.4924,7.4551,7.4003,7.3391,7.2731,7.1918,7.1499,7.1027,6.9816,6.9522,6.9302,6.8495,6.8311,6.8201,6.776,6.7687,6.7687,6.7687,6.7687,6.7687,6.7687,6.7687,6.754,6.7173,6.6072,6.5191,6.4787,6.4586,6.4567,6.4815,6.5295,6.5426,6.503,6.5216,6.4953,6.4016,6.3745,6.3476,6.3191,6.2917,6.278,6.278,6.278,6.278,6.278,6.278,6.3062,6.9546,6.9549,6.9022,6.7747,6.5835,6.2852,5.7496,5.4839,5.2111,4.6962,4.6315,4.6354,4.518,4.8239,5.1737,5.4145,5.8666,6.392,6.9892,7.3958,7.758,8.0906,8.343,8.485,8.4718,8.53,8.5514,8.5141,8.5719,8.6094,8.6094,8.6094,8.6094,8.6094,8.6094,8.6094,8.6094,8.6094,8.6094,8.6094,8.6094,8.6094,8.6094,8.6094,8.5555,8.4593,8.3901,8.3016,8.1977,8.1362,8.1093,8.1093,8.1093,8.1093,8.1093,8.1093,8.1093,8.0808,7.8961,7.8416,7.8207,7.6386,7.5902,7.5887,7.5165,7.4612,7.4139,7.3417,7.2871,7.2349,7.1725,7.155,7.1358,7.055,7.022,6.9926,6.9302,6.9009,6.8715,6.8091,6.7797,6.7687,6.7687,6.7687,6.7687,6.7687,6.7687,6.7687,6.7687,6.7136,6.6512,6.5888,6.5521,6.5432,6.5835,6.5961,6.5866,6.5553,6.5622,6.5099,6.375,6.3728,6.3423,6.2805,6.278,6.278,6.278,6.2989,6.3099,6.3099,6.3282,6.3723,6.8684,6.9094,6.9066,6.8138,6.6352,6.3419,5.805,5.489,5.1757,4.72,4.5952,4.5832,4.6096,4.7108,4.9554,5.4576,5.7123,6.1316,6.9558,7.3471,7.6642,7.9614,8.2532,8.4054,8.3433,8.3979,8.4583,8.5041,8.5719,8.6094,8.6094,8.6094,8.6094,8.6094,8.6094,8.6094,8.6094,8.6094,8.6094,8.6094,8.6094,8.6094,8.6094,8.6094,8.5247,8.3708,8.3632,8.267,8.1208,8.1131,8.1093,8.1093,8.1093,8.1093,8.1093,8.1093,8.1093,8.0776,7.8532,7.8096,7.8123,7.5914,7.5551,7.5787,7.469,7.4336,7.4049,7.2926,7.2553,7.2496,7.2422,7.2386,7.2202,7.1394,7.0624,7.0073,7.0,6.9412,6.8898,6.8788,6.8201,6.7687,6.7687,6.7687,6.7687,6.7687,6.7687,6.7687,6.7687,6.7614,6.754,6.7467,6.6182,6.5327,6.5379,6.574,6.5821,6.5359,6.5723,6.5399,6.4106,6.4044,6.3688,6.2842,6.278,6.278,6.278,6.3576,6.398,6.398,6.4751,6.5118,6.8237,6.9271,6.936,6.7693,6.5332,6.2055,5.6932,5.3565,5.0476,4.6658,4.5715,4.5675,4.5832,4.6569,4.8345,5.1992,5.4027,5.7391,6.3993,6.8205,7.2201,7.6565,7.9942,8.226,8.3125,8.3798,8.43,8.4537,8.5141,8.5514,8.5514,8.5864,8.6094,8.6094,8.6094,8.6094,8.6094,8.6094,8.6094,8.6094,8.6094,8.6094,8.6094,8.5593,8.4747,8.3555,8.3054,8.217,8.1093,8.1093,8.1093,8.1093,8.1093,8.1093,8.1093,8.1093,8.0855,8.0234,7.835,7.7589,7.717,7.5606,7.5036,7.4904,7.4443,7.4293,7.4049,7.2844,7.2496,7.2496,7.2496,7.2496,7.2422,7.2092,7.1798,7.1394,7.0954,7.0587,7.022,6.9706,6.9339,6.8972,6.8495,6.8421,6.8238,6.776,6.7687,6.7687,6.7687,6.7687,6.7687,6.7687,6.7136,6.6733,6.6733,6.692,6.6724,6.6061,6.622,6.5877,6.4861,6.4824,6.4677,6.431,6.431,6.431,6.431,6.464,6.4824,6.4824,6.5154,6.5558,6.6751,6.8422,6.8938,6.7303,6.4463,6.0902,5.6248,5.2734,4.95,4.6254,4.5594,4.5594,4.5594,4.6317,4.7663,4.9933,5.1933,5.5125,6.0708,6.4726,6.8941,7.3957,7.698,7.9537,8.1767,8.3338,8.4104,8.3902,8.449,8.4893,8.51,8.5551,8.5919,8.6094,8.6094,8.6094,8.6094,8.6094,8.6094,8.6094,8.6094,8.6094,8.6055,8.5286,8.4439,8.3555,8.267,8.1823,8.1093,8.1093,8.1093,8.1093,8.1093,8.1093,8.1093,8.1093,8.063,7.976,7.8008,7.7065,7.6402,7.5046,7.4447,7.4271,7.4094,7.4026,7.3818,7.2789,7.2496,7.2496,7.2496,7.2496,7.2496,7.2496,7.2496,7.2349,7.1798,7.1439,7.1138,7.055,7.0257,6.9926,6.9339,6.9265,6.8972,6.8164,6.8054,6.7944,6.7724,6.7687,6.7687,6.7687,6.7687,6.7687,6.7687,6.7687,6.7467,6.688,6.6843,6.6476,6.5705,6.5668,6.5558,6.5301,6.5301,6.5301,6.5301,6.5558,6.5668,6.5668,6.5888,6.6329,6.3822,6.6112,6.7544,6.719,6.4225,6.0394,5.6548,5.2747,4.917,4.6215,4.5594,4.5594,4.5594,4.6317,4.7471,4.9125,5.1548,5.5355,6.1522,6.4731,6.8005,7.2316,7.3867,7.5782,7.8818,8.2206,8.3902,8.3275,8.3836,8.4467,8.5079,8.5121,8.5399,8.6077,8.6094,8.6094,8.6094,8.6094,8.6094,8.6094,8.6094,8.6094,8.6055,8.5286,8.4439,8.3555,8.267,8.1823,8.1093,8.1093,8.1093,8.1093,8.1093,8.1093,8.1093,8.1093,8.0554,7.9505,7.75,7.6624,7.6065,7.408,7.3818,7.4183,7.3578,7.3417,7.3264,7.2686,7.2496,7.2496,7.2496,7.2496,7.2496,7.2496,7.2496,7.2496,7.2496,7.1872,7.1293,7.1293,7.066,7.011,7.0073,7.0073,6.9816,6.9009,6.8898,6.8605,6.7797,6.7687,6.7687,6.7687,6.7687,6.7687,6.7687,6.7687,6.7687,6.7687,6.7687,6.732,6.6512,6.6476,6.6109,6.5338,6.5301,6.5301,6.5301,6.6109,6.6476,6.6512,6.7283,6.7677,5.8823,6.0685,6.1748,6.0515,5.8617,5.623,5.3025,5.0653,4.8506,4.6108,4.5594,4.5594,4.5594,4.5825,4.7317,5.1356,5.2664,5.5122,6.0559,6.4672,6.8493,7.2149,7.7241,8.0634,8.1193,8.22,8.2732,8.2528,8.3132,8.3772,8.4467,8.4872,8.5399,8.6077,8.6094,8.6094,8.6094,8.6094,8.6094,8.6094,8.6094,8.5824,8.5247,8.4401,8.3555,8.267,8.1823,8.1323,8.1093,8.1093,8.1093,8.1093,8.1093,8.1093,8.1093,8.1093,8.0019,7.8397,7.7209,7.5812,7.4446,7.3652,7.3275,7.3093,7.3315,7.3391,7.3264,7.2658,7.2496,7.2496,7.2496,7.2496,7.2496,7.2496,7.2496,7.2496,7.2496,7.2312,7.2129,7.2129,7.1908,7.1578,7.1027,7.0917,7.066,6.9853,6.9706,6.9412,6.8605,6.8531,6.8311,6.7787,6.7687,6.7687,6.7687,6.7687,6.7687,6.7687,6.7687,6.7577,6.732,6.732,6.7173,6.6953,6.6953,6.6953,6.6953,6.7173,6.732,6.732,6.7577,6.7687,5.4846,5.678,5.7819,5.678,5.5174,5.3318,5.1201,4.9332,4.7629,4.5935,4.5594,4.5594,4.5594,4.5744,4.706,5.0682,5.2235,5.471,5.9615,6.3719,6.7695,7.1595,7.7717,8.1299,8.0446,8.1702,8.2465,8.2219,8.2585,8.3103,8.3772,8.4443,8.5058,8.57,8.5971,8.6094,8.6094,8.6094,8.6094,8.6094,8.6094,8.567,8.4863,8.3978,8.3131,8.2247,8.1439,8.1093,0.0,8.1093,8.1093,8.1077,8.0838,8.0733,8.0716,8.0463,7.9145,7.7402,7.6705,7.5196,7.3536,7.3172,7.2816,7.2582,7.2943,7.304,7.2997,7.2602,7.2496,7.2496,7.2496,7.2496,7.2496,7.2496,7.2496,7.2496,7.2496,7.2496,7.2496,7.2496,7.2496,7.2349,7.1835,7.1762,7.1505,7.066,7.055,7.0257,6.9449,6.9339,6.9045,6.8238,6.8128,6.8017,6.7724,6.7687,6.7687,6.7687,6.7687,6.7687,6.7687,6.7687,6.7687,6.7687,6.7687,6.7687,6.7687,6.7687,6.7687,6.7687,6.7687,6.7687,0.0,5.378,5.5049,5.5011,5.3241,5.1308,5.051,4.8548,0.0,4.5787,4.5594,4.5671,4.5825,4.6117,4.6827,4.8472,5.107,5.4484,5.9134,6.2802,6.6715,7.1333,7.6315,7.8913,7.7684,8.0948,8.2883,8.2251,8.2186,8.2497,8.3161,8.3824,8.449,8.51,8.5737,8.6094,8.6094,8.6094,8.6094,8.6094,8.6055,8.5593,8.4786,8.3901,8.3016,8.217,8.14,8.1093,8.1093,8.1093,8.1077,8.0975,8.0333,8.0048,7.9969,7.9403,7.8119,7.6549,7.6069,7.477,7.3212,7.2686,7.2496,7.2496,7.2496,7.2496,7.2496,7.2496,7.2496,7.2496,7.2496,7.2496,7.2496,7.2496,7.2496,7.2496,7.2496,7.2496,7.2496,7.2496,7.2496,7.2496,7.2496,7.2496,7.2275,7.1476,7.1366,7.1101,7.0293,7.0183,6.9889,6.9082,6.8935,6.8605,6.7834,6.7724,6.7687,6.7687,6.7687,6.7687,6.7687,6.7687,6.7687,6.7687,6.7687,6.7687,6.7687,6.7687,6.7687,6.7687,6.7687,6.7687,4.5932,0.0,4.8817,4.8134,4.8009,4.7855,0.0,4.6855,4.6663,4.5787,4.5594,4.621,4.8163,4.7294,4.8192,5.3979,5.4709,5.6471,6.2022,6.8603,7.4033,7.7179,8.0311,8.1669,8.0262,8.1534,8.2375,8.2219,8.2186,8.2497,8.3161,8.3824,8.449,8.51,8.5737,8.6094,8.6094,8.6094,8.6094,8.6094,8.5478,8.4747,8.3862,8.3016,8.217,8.1362,8.117,8.1093,8.1093,8.1093,8.0822,8.0315,8.0163,7.9827,7.9403,7.9267,7.7899,7.6069,7.5928,7.4492,7.2686,7.2553,7.2496,7.2496,7.2496,7.2496,7.2496,7.2496,7.2496,7.2496,7.2496,7.2496,7.2496,7.2496,7.2496,7.2496,7.2496,7.2496,7.2496,7.2496,7.2496,7.2496,7.2496,7.2496,7.2459,7.2275,7.2239,7.1945,7.1138,7.1027,7.0734,6.9889,6.9265,6.8825,6.8641,6.8054,6.7687,6.7687,6.7687,6.7687,6.7687,6.7687,6.7687,6.7687,6.7687,6.7687,6.7687,6.7687,6.7687,6.7687,6.7687,6.7687,4.4085,4.5586,4.6894,4.6778,4.7086,4.7317,4.6855,4.6509,4.6163,4.571,4.5594,4.6133,4.7932,4.8137,4.9446,5.3651,5.5603,5.878,6.503,7.0884,7.5621,7.8718,8.0585,8.1625,8.1558,8.1929,8.2186,8.2186,8.2186,8.2375,8.2702,8.335,8.4029,8.4673,8.532,8.5793,8.6094,8.6094,8.5901,8.5555,8.5132,8.4247,8.2978,8.2242,8.1448,8.0626,8.0372,8.0221,8.0221,8.0221,8.0027,7.9642,7.938,7.9058,7.8754,7.8447,7.7105,7.544,7.544,7.4154,7.2496,7.2496,7.2496,7.2496,7.2496,7.2496,7.2496,7.2496,7.2496,7.2496,7.2496,7.2496,7.2496,7.2496,7.2496,7.2496,7.2496,7.2496,7.2496,7.2496,7.2496,7.2496,7.2496,7.2496,7.2496,7.2496,7.2496,7.2349,7.1908,7.1872,7.1541,7.0734,7.0257,6.9853,6.9486,6.9045,6.8495,6.7724,6.7687,6.7687,6.7687,6.7687,6.7687,6.7687,6.7687,6.7687,6.7687,6.7687,6.7687,6.7714,6.8091,6.8238,4.4018,4.5697,4.7213,4.7606,4.7894,4.8048,4.7778,4.6624,4.5594,4.5594,4.571,4.6201,4.7625,4.9182,5.0796,5.2412,5.6467,6.1657,6.818,7.1665,7.4791,7.8173,7.9307,8.0314,8.1709,8.1929,8.2003,8.2003,8.2003,8.2003,8.2003,8.2557,8.3161,8.3841,8.4309,8.484,8.5427,8.5757,8.5517,8.4709,8.4489,8.361,8.2134,8.1404,8.0654,7.9929,7.9425,7.9198,7.9198,7.9198,7.9152,7.901,7.851,7.8228,7.8063,7.7363,7.6203,7.4882,7.4625,7.3634,7.2496,7.2496,7.2496,7.2496,7.2496,7.2496,7.2496,7.2496,7.2496,7.2496,7.2496,7.2496,7.2496,7.2496,7.2496,7.2496,7.2496,7.2496,7.2496,7.2496,7.2496,7.2496,7.2496,7.2496,7.2496,7.2496,7.2496,7.2496,7.2496,7.2496,7.2239,7.155,7.1394,7.1027,7.033,7.0183,6.9467,6.7927,6.7853,6.7834,6.7714,6.7797,6.7834,6.7687,6.7687,6.776,6.7871,6.7871,6.7944,6.8054,6.8752,6.9027,4.3753,4.6189,4.7669,4.6321,4.7048,4.774,4.6317,4.5787,4.5594,4.5594,4.6201,4.7817,5.1548,5.1633,5.2931,5.8446,6.2113,6.6156,7.1476,7.3632,7.5564,7.8026,7.9201,7.9874,8.0131,8.0791,8.1195,8.1195,8.1195,8.1195,8.1195,8.1148,8.1522,8.2304,8.2234,8.2263,8.2354,8.4173,8.4632,8.3785,8.2526,8.1824,8.15,8.0152,7.9449,7.9335,7.9244,7.9198,7.9198,7.9198,7.8889,7.8432,7.8336,7.796,7.7346,7.6564,7.5689,7.4735,7.334,7.2716,7.2496,7.2496,7.2496,7.2496,7.2496,7.2496,7.2496,7.2496,7.2496,7.2496,7.2496,7.2496,7.2496,7.2496,7.2496,7.2496,7.2496,7.2496,7.2496,7.2496,7.2496,7.2496,7.2496,7.2496,7.2496,7.2496,7.2496,7.2496,7.2496,7.2496,7.2459,7.2349,7.1725,7.1219,7.1138,7.0477,6.9644,6.8609,6.8645,6.8421,6.7724,6.8348,6.8385,6.7687,6.7687,6.8017,6.8715,6.8715,6.9082,6.9706,6.9853,6.9485,4.2872,4.4962,4.6716,4.7453,4.9764,5.1626,5.086,5.0159,4.9586,4.9086,4.9317,5.0462,5.3356,5.4913,5.7799,6.4158,6.6906,6.9286,7.2131,7.3773,7.5486,7.7509,7.8179,7.8809,7.969,8.0131,8.0351,8.0351,8.0351,8.0351,8.0351,8.0284,8.0592,8.1354,8.127,8.1182,8.1056,8.201,8.2297,8.1915,8.125,8.0645,8.0168,7.9174,7.8704,7.8704,7.8352,7.8163,7.8163,7.8163,7.8007,7.7768,7.7768,7.757,7.7127,7.5909,7.4955,7.4074,7.2899,7.2496,7.2496,7.2496,7.2496,7.2496,7.2496,7.2496,7.2496,7.2496,7.2496,7.2496,7.2496,7.2496,7.2496,7.2496,7.2496,7.2496,7.2496,7.2496,7.2496,7.2496,7.2496,7.2496,7.2496,7.2496,7.2496,7.2496,7.2496,7.2496,7.2496,7.2496,7.2496,7.2496,7.2165,7.1945,7.1945,7.1165,7.009,6.8791,6.8264,6.8125,6.8248,6.8575,6.8633,6.8348,6.8788,6.8972,6.8898,6.9339,6.9482,6.9368,6.9805,6.9493,4.2792,4.4235,4.587,4.8914,5.1505,5.3544,5.4638,5.3721,5.2664,5.2779,5.2962,5.3538,5.5126,5.8473,6.2657,6.7773,7.0191,7.1886,7.3062,7.4486,7.5977,7.7558,7.7622,7.8129,7.9566,7.9595,7.9507,7.9507,7.9507,7.9507,7.9507,7.9323,7.9523,8.0254,8.0097,7.9901,7.9742,7.9767,7.9916,8.0165,8.0061,7.965,7.8962,7.8352,7.8072,7.8044,7.751,7.7273,7.7273,7.7273,7.7273,7.7273,7.7273,7.7053,7.6576,7.5359,7.4258,7.334,7.2716,7.2496,7.2496,7.2496,7.2496,7.2496,7.2496,7.2496,7.2496,7.2496,7.2496,7.2496,7.2496,7.2496,7.2496,7.2496,7.2496,7.2496,7.2496,7.2496,7.2496,7.2496,7.2496,7.2496,7.2496,7.2496,7.2496,7.2496,7.2496,7.2496,7.2496,7.2496,7.2496,7.2496,7.2496,7.2409,7.2197,7.1127,6.9897,6.8684,6.8143,6.8,6.8371,6.8546,6.861,6.8517,6.9129,6.9238,6.8808,6.942,6.9455,6.8941,6.9584,6.9337,4.4764,4.5392,4.6059,4.9597,4.9313,4.9263,5.3541,5.2654,5.1751,5.478,5.6088,5.6923,5.7857,6.2089,6.592,6.7365,7.0996,7.4296,7.6126,7.7191,7.8073,7.8968,7.8551,7.8563,7.9456,7.9046,7.8699,7.8699,7.8699,7.8699,7.8699,7.7928,7.7886,7.8719,7.7984,7.7543,7.753,7.753,7.8137,7.9274,7.874,7.8427,7.8363,7.768,7.7365,7.7365,7.7304,7.7273,7.7273,7.7273,7.7273,7.7273,7.7273,7.6393,7.5065,7.4955,7.3927,7.2569,7.2532,7.2496,7.2496,7.2496,7.2496,7.2496,7.2496,7.2496,7.2496,7.2496,7.2496,7.2496,7.2496,7.2496,7.2496,7.2496,7.2496,7.2496,7.2496,7.2496,7.2496,7.2496,7.2496,7.2496,7.2496,7.2496,7.2496,7.2496,7.2496,7.2496,7.2496,7.2496,7.2496,7.2496,7.2496,7.2167,7.1255,6.9494,6.8385,6.8208,6.9064,6.8893,6.7476,6.8148,6.8183,6.7403,6.7438,6.7827,6.8535,6.8571,6.8962,6.9636,6.9707,6.9171,4.2563,4.4812,4.7188,4.931,5.0482,5.2023,5.5594,5.7143,5.8138,5.9407,6.0781,6.182,6.2166,6.5513,6.8537,6.9457,7.274,7.5697,7.7072,7.8,7.8711,7.9131,7.8986,7.8991,7.9291,7.914,7.8985,7.8985,7.8985,7.881,7.8413,7.8117,7.7887,7.7781,7.7457,7.7273,7.7273,7.7273,7.757,7.8035,7.7789,7.768,7.7651,7.7426,7.7273,7.7273,7.7273,7.7273,7.7273,7.7273,7.7273,7.7273,7.7273,7.6319,7.4918,7.4918,7.3891,7.2496,7.2496,7.2496,7.2496,7.2496,7.2496,7.2496,7.2496,7.2496,7.2496,7.2496,7.2496,7.2496,7.2496,7.2496,7.2496,7.2496,7.2496,7.2496,7.2496,7.2496,7.2496,7.2496,7.2496,7.2496,7.2496,7.2496,7.2496,7.2496,7.2496,7.2496,7.2496,7.2496,7.2285,7.1665,7.1095,7.0331,6.9387,6.8613,6.795,6.7373,6.7662,6.7899,6.7848,6.8129,6.8214,6.8045,6.854,6.8681,6.8504,6.9,6.9068,6.876,6.876,6.8262,4.2823,4.5012,4.7562,4.9784,5.1585,5.3838,5.7853,6.0185,6.1902,6.3385,6.4397,6.5089,6.5359,6.7744,6.9975,7.0783,7.4014,7.6678,7.7402,7.8247,7.8941,7.9333,7.922,7.9226,7.9453,7.9313,7.9198,7.9198,7.9198,7.8914,7.8336,7.8309,7.7988,7.7304,7.7273,7.7273,7.7273,7.7273,7.7273,7.7273,7.7273,7.7273,7.7273,7.7273,7.7273,7.7273,7.7273,7.7273,7.7273,7.7273,7.7127,7.6937,7.6937,7.5946,7.4515,7.4515,7.367,7.2496,7.2496,7.2496,7.2496,7.2496,7.2496,7.2496,7.2496,7.2496,7.2496,7.2496,7.2496,7.2496,7.2496,7.2496,7.2496,7.2496,7.2496,7.2496,7.2496,7.2496,7.2496,7.2496,7.2496,7.2496,7.2496,7.2496,7.2409,7.2101,7.2041,7.1951,7.1671,7.164,7.1386,7.0734,6.9813,6.8947,6.8266,6.7911,6.7461,6.6854,6.6812,6.7078,6.7708,6.7747,6.7826,6.7952,6.8478,6.8513,6.7955,6.8513,6.8416,6.7747,6.7747,6.7414,4.6503,4.6313,4.6838,5.1253,5.2201,5.3656,5.9908,6.0699,6.1492,6.6179,6.6474,6.6167,6.6974,6.8513,6.9975,7.0783,7.4476,7.7284,7.7284,7.7977,7.8823,7.9669,7.9236,7.9209,8.001,7.9556,7.9221,7.9221,7.9221,7.8938,7.8363,7.8309,7.8016,7.7304,7.7273,7.7273,7.7273,7.7273,7.7273,7.7273,7.7273,7.7273,7.7273,7.7273,7.7273,7.7273,7.7273,7.7273,7.7273,7.7273,7.6827,7.6093,7.6093,7.5102,7.3707,7.3707,7.3193,7.2496,7.2496,7.2496,7.2496,7.2496,7.2496,7.2496,7.2496,7.2496,7.2496,7.2496,7.2496,7.2496,7.2496,7.2496,7.2496,7.2496,7.2496,7.2496,7.2496,7.2496,7.2496,7.2496,7.2496,7.2496,7.2496,7.2496,7.2197,7.1223,7.1095,7.0734,6.9814,6.9708,6.9708,6.9708,6.8798,6.8189,6.8189,6.7332,6.6812,6.6812,6.6812,6.6812,6.6812,6.6812,6.6812,6.6812,6.6812,6.6812,6.6812,6.6812,6.6812,6.6812,6.6812,6.6812,4.3286,4.6618,5.0232,5.0998,5.5339,5.9893,6.1744,6.2895,6.4688,6.8425,6.8359,6.7626,6.7454,6.9141,7.0629,7.086,7.3476,7.5899,7.713,7.7515,7.7938,7.8784,7.8714,7.8941,7.9824,7.9744,7.9887,8.0499,8.0537,8.0066,7.8986,7.8914,7.842,7.7335,7.7273,7.7273,7.7273,7.7273,7.7273,7.7273,7.7273,7.7273,7.7273,7.7273,7.7273,7.7273,7.7273,7.7273,7.7237,7.6717,7.5983,7.5285,7.5285,7.4625,7.3707,7.3707,7.3193,7.2496,7.2496,7.2496,7.2496,7.2496,7.2496,7.2496,7.2496,7.2496,7.2496,7.2496,7.2496,7.2496,7.2496,7.2496,7.2496,7.2496,7.2496,7.2496,7.2496,7.2496,7.2496,7.2496,7.2496,7.2496,7.2496,7.1981,7.1448,7.1159,7.0535,6.9988,6.9743,6.9058,6.8648,6.8648,6.7787,6.7243,6.7243,6.6946,6.6812,6.6812,6.6812,6.6812,6.6812,6.6812,6.6812,6.6812,6.6812,6.6812,6.6812,6.6812,6.6812,6.6812,6.6812,6.6812,4.5256,4.8802,5.242,5.4391,5.8525,6.2559,6.4305,6.5524,6.6926,6.9281,6.896,6.8335,6.8691,6.9836,7.0937,7.1625,7.351,7.5232,7.6284,7.6617,7.7092,7.79,7.8015,7.8361,7.9208,7.9285,7.9515,8.0015,8.0164,7.9762,7.8754,7.8774,7.8379,7.7335,7.7273,7.7127,7.6827,7.6827,7.665,7.6319,7.6319,7.6319,7.6356,7.668,7.6827,7.6827,7.6466,7.6533,7.679,7.5983,7.5139,7.4441,7.4441,7.3927,7.323,7.323,7.2936,7.2496,7.2496,7.2496,7.2496,7.2496,7.2496,7.2496,7.2496,7.2496,7.2496,7.2496,7.2496,7.2496,7.2496,7.2496,7.2496,7.2496,7.2496,7.2496,7.2496,7.2496,7.2496,7.2496,7.2496,7.2496,7.2496,7.2041,7.1417,7.0668,6.9386,6.8531,6.8531,6.8024,6.7628,6.7628,6.712,6.6812,6.6812,6.6812,6.6812,6.6812,6.6812,6.6812,6.6812,6.6812,6.6812,6.6812,6.6812,6.6812,6.6812,6.6812,6.6812,6.6812,6.6812,6.6812,4.9946,5.1813,5.3669,5.9625,6.1469,6.2911,6.724,6.8083,6.8227,6.9022,6.8631,6.8555,7.006,7.0495,7.1141,7.2649,7.4103,7.5036,7.5036,7.5518,7.6156,7.7008,7.7085,7.7447,7.8323,7.84,7.8385,7.8431,7.8665,7.8496,7.7771,7.794,7.7794,7.7084,7.7053,7.6754,7.6019,7.5983,7.5616,7.4918,7.4918,7.4918,7.4918,7.5652,7.5983,7.5946,7.5212,7.5285,7.5836,7.5102,7.4331,7.3597,7.3597,7.312,7.2496,7.2496,7.2496,7.2496,7.2496,7.2496,7.2496,7.2496,7.2496,7.2496,7.2496,7.2496,7.2496,7.2496,7.2496,7.2496,7.2496,7.2496,7.2496,7.2496,7.2496,7.2496,7.2496,7.2438,7.2343,7.2343,7.2285,7.2255,7.2255,7.2233,7.1625,6.9885,6.8078,6.6914,6.6914,6.6846,6.6812,6.6812,6.6812,6.6812,6.6812,6.6812,6.6812,6.6812,6.6812,6.6812,6.6812,6.6812,6.6812,6.6812,6.6812,6.6812,6.6812,6.6812,6.6812,6.6812,6.6812,6.6812,4.7194,5.0919,5.4921,5.8882,6.2788,6.622,6.854,6.8375,6.7951,6.853,6.8849,6.898,6.8937,7.0336,7.1652,7.1991,7.3418,7.4485,7.4485,7.4588,7.4884,7.5521,7.5556,7.6092,7.7408,7.7553,7.7662,7.7847,7.7911,7.748,7.6381,7.6364,7.6087,7.5432,7.5432,7.5359,7.5175,7.5175,7.5065,7.4918,7.4918,7.4918,7.4918,7.5102,7.5175,7.5175,7.4992,7.4661,7.4184,7.4037,7.3487,7.2753,7.2753,7.2642,7.2496,7.2496,7.2496,7.2496,7.2496,7.2496,7.2496,7.2496,7.2496,7.2496,7.2496,7.2496,7.2496,7.2496,7.2496,7.2496,7.2496,7.2496,7.2496,7.2496,7.2496,7.2496,7.2496,7.1915,7.1381,7.1381,7.08,7.0298,7.0298,7.0168,6.9875,6.9289,6.8328,6.7658,6.7658,6.7184,6.6812,6.6812,6.6812,6.6812,6.6812,6.6812,6.6812,6.6812,6.6812,6.6812,6.6812,6.6812,6.6812,6.6812,6.6812,6.6812,6.6812,6.6812,6.6812,6.6812,6.6812,6.6812,4.7972,5.1994,5.6125,6.1452,6.4812,6.708,6.8093,6.7987,6.7757,6.8047,6.832,6.8418,6.8131,6.9015,6.9762,6.9714,7.0988,7.2106,7.2559,7.3175,7.3868,7.4632,7.473,7.5037,7.5795,7.5852,7.5912,7.606,7.6171,7.5952,7.5306,7.5345,7.5281,7.4918,7.4918,7.4735,7.4331,7.4331,7.4147,7.3744,7.3744,7.3744,7.378,7.4147,7.4331,7.4294,7.3927,7.3744,7.367,7.3266,7.2899,7.2496,7.2496,7.2496,7.2496,7.2496,7.2496,7.2496,7.2496,7.2496,7.2496,7.2496,7.2496,7.2496,7.2496,7.2496,7.2496,7.2496,7.2496,7.2606,7.2973,7.3083,7.3156,7.356,7.3083,7.238,7.1951,7.1448,7.0962,7.0535,7.0058,6.9814,7.0168,6.978,6.9238,6.8741,6.7928,6.7387,6.7387,6.7049,6.6812,6.6812,6.6812,6.6812,6.6812,6.6812,6.6812,6.6812,6.6812,6.6812,6.6812,6.6812,6.6812,6.6812,6.6812,6.6812,6.6812,6.6812,6.6812,6.6812,6.6812,6.6812,4.873,5.3129,5.7443,6.4421,6.6382,6.6681,6.7008,6.7296,6.744,6.7268,6.7378,6.7477,6.7385,6.7358,6.7298,6.722,6.8252,6.9348,7.0084,7.1296,7.2429,7.3358,7.3709,7.3951,7.4026,7.419,7.4249,7.4161,7.4286,7.4357,7.4253,7.4392,7.4515,7.4515,7.4515,7.4184,7.3487,7.3487,7.3156,7.2496,7.2496,7.2496,7.2532,7.3193,7.3487,7.345,7.2789,7.2899,7.345,7.2789,7.2496,7.2496,7.2496,7.2496,7.2496,7.2496,7.2496,7.2496,7.2496,7.2496,7.2496,7.2496,7.2496,7.2496,7.2496,7.2496,7.2496,7.2496,7.2496,7.2642,7.3303,7.3487,7.3707,7.4515,7.367,7.2475,7.1685,7.1395,7.0962,7.0026,6.97,6.9765,7.0185,6.978,6.9118,6.8571,6.7632,6.7015,6.7049,6.6914,6.6812,6.6812,6.6812,6.6812,6.6812,6.6812,6.6812,6.6812,6.6812,6.6812,6.6812,6.6812,6.6812,6.6812,6.6812,6.6812,6.6812,6.6812,6.6812,6.6812,6.6812,6.6812,4.4649,5.1641,5.9149,6.4053,6.551,6.5873,6.6172,6.647,6.6426,6.5612,6.6046,6.6559,6.6578,6.6463,6.637,6.6376,6.7116,6.7712,6.7845,6.8623,6.9376,7.0005,7.1382,7.2499,7.2969,7.3778,7.4094,7.3553,7.3553,7.332,7.2814,7.281,7.2826,7.2826,7.2826,7.2789,7.2679,7.2679,7.2606,7.2496,7.2496,7.2496,7.2496,7.2606,7.2679,7.2642,7.2569,7.2569,7.2642,7.2532,7.2496,7.2496,7.2496,7.2496,7.2496,7.2496,7.2496,7.2496,7.2496,7.2496,7.2496,7.2496,7.2496,7.2496,7.2496,7.2496,7.2496,7.2496,7.2496,7.2532,7.2642,7.2679,7.2863,7.367,7.3707,7.3463,7.3172,7.2437,7.158,7.0593,6.9735,6.8965,6.8387,6.8778,6.9228,6.9533,6.8522,6.7827,6.8064,6.7354,6.6812,6.6812,6.6812,6.6812,6.6812,6.6812,6.6812,6.6812,6.6812,6.6812,6.6812,6.6812,6.6812,6.6812,6.6812,6.6812,6.6812,6.6812,6.6812,6.6812,6.6812,6.6812,4.7094,5.2794,5.8102,6.2823,6.4424,6.4908,6.4934,6.5421,6.5567,6.4664,6.4417,6.4425,6.4827,6.4845,6.4637,6.4131,6.416,6.4384,6.4922,6.5095,6.5443,6.6174,6.7938,6.9185,6.9397,7.129,7.2392,7.2152,7.2604,7.2789,7.2496,7.2496,7.2496,7.2496,7.2496,7.2496,7.2496,7.2496,7.2496,7.2496,7.2496,7.2496,7.2496,7.2496,7.2496,7.2496,7.2496,7.2496,7.2496,7.2496,7.2496,7.2496,7.2496,7.2496,7.2496,7.2496,7.2496,7.2496,7.2496,7.2496,7.2496,7.2496,7.2496,7.2409,7.1854,7.1732,7.1604,7.1063,7.0934,7.1171,7.2118,7.2387,7.2802,7.4432,7.4588,7.4462,7.4613,7.325,7.1385,6.946,6.871,6.8335,6.7963,6.8199,6.8504,6.8707,6.7929,6.7354,6.7455,6.7083,6.6812,6.6812,6.6812,6.6981,6.7387,6.7049,6.6981,6.7387,6.7049,6.6812,6.6812,6.6812,6.6812,6.6812,6.6812,6.6812,6.6812,6.6812,6.6812,6.6812,6.6812,6.6812,4.8341,5.2259,5.5238,6.0449,6.2385,6.3158,6.3548,6.4338,6.4725,6.3868,6.3147,6.2793,6.3065,6.3086,6.2922,6.2464,6.2111,6.2099,6.2815,6.2507,6.2472,6.3175,6.4687,6.5783,6.6121,6.847,7.024,7.077,7.1654,7.2255,7.2467,7.2496,7.2496,7.2496,7.2496,7.2496,7.2496,7.2496,7.2496,7.2496,7.2496,7.238,7.213,7.213,7.213,7.2167,7.2409,7.2496,7.2496,7.2496,7.2496,7.2496,7.2496,7.2496,7.2496,7.2496,7.2496,7.2496,7.2496,7.2496,7.2496,7.2496,7.232,7.2021,7.1313,7.0915,7.0604,6.9885,6.9706,6.9991,7.1287,7.1798,7.2481,7.4389,7.4732,7.4615,7.4733,7.3223,7.1101,6.8413,6.8233,6.8368,6.7963,6.8064,6.8166,6.803,6.7658,6.7354,6.7218,6.732,6.732,6.7117,6.7286,6.7624,6.8166,6.7692,6.7624,6.8166,6.7489,6.7083,6.7083,6.6914,6.6812,6.6812,6.6812,6.6812,6.6812,6.6812,6.6812,6.6812,6.6812,6.6812,4.4972,4.7566,5.0261,5.6444,5.8768,6.006,6.1938,6.3292,6.3884,6.2952,6.276,6.2476,6.1675,6.1468,6.1646,6.2279,6.2375,6.2375,6.2415,6.2032,6.1758,6.1801,6.2293,6.3099,6.4227,6.5941,6.7869,6.9877,7.0726,7.1573,7.2467,7.2496,7.2496,7.2496,7.2496,7.2496,7.2496,7.2496,7.2496,7.2496,7.2496,7.2041,7.1191,7.1191,7.1191,7.1223,7.2101,7.2496,7.2496,7.2496,7.2496,7.2496,7.2496,7.2496,7.2496,7.2496,7.2496,7.2496,7.2496,7.2496,7.2496,7.2496,7.1896,7.115,7.1121,7.0486,6.9778,6.9727,6.9718,6.9725,6.9813,7.0505,7.138,7.2243,7.313,7.3471,7.2442,7.1893,7.0877,6.8379,6.9079,6.962,6.8132,6.8538,6.8876,6.8335,6.8673,6.8808,6.8267,6.8673,6.8707,6.7929,6.8538,6.9011,6.9045,6.9011,6.9011,6.9045,6.8301,6.7827,6.7827,6.7184,6.6812,6.6812,6.6812,6.6812,6.6812,6.6812,6.6812,6.6812,6.6812,6.6812,4.338,4.607,4.8842,5.3308,5.6359,5.8418,5.8982,6.1063,6.262,6.1435,6.1631,6.1722,6.084,6.1021,6.14,6.1637,6.1455,6.1235,6.1235,6.0443,5.9524,5.8801,5.9949,6.0663,6.0302,6.3233,6.5474,6.6227,6.7833,6.934,7.0841,7.0908,7.1374,7.2467,7.2496,7.2496,7.2496,7.2496,7.2496,7.2496,7.1885,7.1448,7.1095,7.0501,7.023,7.0264,7.1191,7.1915,7.2496,7.2496,7.2496,7.2496,7.2496,7.2496,7.2496,7.2496,7.2496,7.2496,7.2496,7.2496,7.2496,7.2496,7.2283,7.1882,7.1262,7.0728,7.0199,6.9801,6.8819,6.8148,6.9352,6.9458,6.9457,7.0413,7.0554,7.031,6.9683,6.9463,6.925,6.8752,6.8707,6.8808,6.9079,6.9113,6.935,7.0128,6.9586,6.9045,6.8842,6.8977,6.8977,6.8707,6.8944,6.9282,6.9755,6.9383,6.9316,6.9755,6.9079,6.8436,6.7929,6.7658,6.7286,6.6812,6.6812,6.6812,6.6812,6.6812,6.6812,6.6812,6.6812,6.6363,4.1615,4.3934,4.6707,5.1004,5.3392,5.5326,5.7667,5.9832,6.122,6.108,6.1464,6.164,6.0878,6.1085,6.1371,6.1312,6.1046,6.0894,6.1201,6.0161,5.9125,5.8282,5.8969,5.9211,5.8405,6.101,6.3041,6.3774,6.5371,6.7165,6.902,6.9665,7.0774,7.243,7.2496,7.2496,7.2496,7.2496,7.2496,7.2496,7.1895,7.1251,7.0601,6.9778,6.931,6.9241,6.9883,7.0865,7.2041,7.238,7.2496,7.2496,7.2496,7.2496,7.2496,7.2496,7.2496,7.2496,7.2496,7.2496,7.2496,7.2496,7.221,7.1816,7.162,7.1115,7.0538,7.0097,6.866,6.7576,6.8881,6.8685,6.8458,6.9458,6.935,6.8873,6.8305,6.8397,6.8566,6.8379,6.8301,6.8504,6.918,6.9383,6.9891,7.1142,7.0466,6.9755,6.9485,6.9688,6.9755,6.9485,6.9688,7.0026,7.0534,7.0128,7.006,7.0534,6.9891,6.9214,6.8673,6.8166,6.7658,6.7184,6.6948,6.6812,6.6812,6.6812,6.6812,6.6812,6.6812,6.5898,0.0,0.0,0.0,4.9328,4.9737,5.0664,5.7981,5.9393,5.9702,6.1778,6.2267,6.2215,6.1725,6.1569,6.1511,6.1381,6.1346,6.1579,6.2363,6.1447,6.0679,6.0628,5.961,5.8857,5.8812,5.9466,6.075,6.287,6.3712,6.5095,6.7231,6.9053,7.0774,7.243,7.2496,7.2496,7.2496,7.2496,7.2467,7.2438,7.2434,7.1455,6.9637,6.8965,6.847,6.815,6.8189,6.9278,7.1127,7.2071,7.2467,7.2467,7.2496,7.2496,7.2496,7.2496,7.2496,7.2496,7.2496,7.2496,7.2496,7.2496,7.1647,7.0901,7.2108,7.1647,7.0661,7.0646,6.946,6.8186,6.8158,6.815,6.8381,6.935,6.9637,6.935,6.8343,6.8769,6.8871,6.7191,6.8098,6.8977,6.847,6.9383,7.0466,7.121,7.1312,7.1041,7.0297,7.0872,7.1041,7.0297,7.0872,7.1312,7.1312,7.1312,7.1312,7.1312,7.0635,7.0195,7.0195,6.8741,6.7929,6.7895,6.7184,6.6812,6.6812,6.6812,6.6812,6.6812,6.6728,6.5382,3.9258,0.0,0.0,0.0,0.0,0.0,5.0511,5.3225,5.6011,5.8705,6.0227,6.1409,6.2484,6.2669,6.2475,6.2007,6.2134,6.2505,6.3275,6.3136,6.2563,6.1672,6.1267,6.0481,5.8959,5.9772,6.068,6.1244,6.2287,6.3683,6.5508,6.8404,7.0774,7.243,7.2496,7.2496,7.2496,7.2496,7.2167,7.148,7.0783,6.9813,6.8572,6.7731,6.727,6.7243,6.7911,6.8947,7.0162,7.1095,7.148,7.1542,7.2226,7.2496,7.2496,7.2496,7.2496,7.2496,7.2496,7.2496,7.2496,7.2496,7.2247,7.2034,7.2393,7.2247,7.1831,7.1143,6.981,6.835,6.7439,6.7202,6.7284,6.7535,6.7616,6.7535,6.7243,6.7373,6.7732,6.8344,6.9248,7.0026,7.0398,7.077,7.1075,7.1278,7.1312,7.1244,7.1041,7.1176,7.1244,7.1041,7.1176,7.1312,7.1312,7.1312,7.1312,7.1312,7.1109,7.077,7.0195,6.9282,6.8504,6.7895,6.7184,6.6812,6.6812,6.6812,6.6812,6.677,6.4901,6.3929,4.0039,4.1641,4.3827,4.4298,0.0,0.0,4.9436,5.1663,5.4051,5.7325,5.965,6.134,6.2077,6.273,6.3061,6.2709,6.3025,6.3345,6.3286,6.3306,6.3017,6.2295,6.2496,6.1855,5.9802,6.0548,6.0986,6.0628,6.1276,6.2785,6.5337,6.7323,6.9353,7.1439,7.1505,7.1505,7.1505,7.1505,7.1385,7.1162,6.9868,6.9139,6.876,6.7414,6.6812,6.6854,6.7787,6.8534,6.9168,7.0532,7.1318,7.1763,7.2285,7.2496,7.2496,7.2496,7.2496,7.2438,7.2041,7.1948,7.1984,7.2356,7.2118,7.1526,7.0428,7.0505,7.0802,7.0221,6.9318,6.8226,6.7093,6.644,6.6148,6.6652,6.6363,6.6148,6.6686,6.7049,6.7455,6.803,6.9011,6.9925,7.0567,7.1041,7.1312,7.1312,7.1312,7.1312,7.1312,7.1312,7.1312,7.1312,7.1312,7.1312,7.1312,7.1312,7.1312,7.1312,7.1312,7.1109,7.0669,6.9958,6.918,6.8402,6.7658,6.7252,6.7252,6.6948,6.6812,6.6728,6.4803,6.3932,4.1797,4.2773,4.4608,4.6644,4.5577,0.0,5.1303,5.2241,5.2891,5.6411,5.9056,6.0703,6.0508,6.1657,6.2633,6.2551,6.3415,6.3771,6.297,6.2831,6.284,6.2758,6.3364,6.3024,6.1105,6.1639,6.1801,6.1009,6.1027,6.2615,6.6166,6.6335,6.7505,7.0045,7.011,7.011,7.011,7.011,7.0384,7.0967,6.9523,6.9105,6.9495,6.7747,6.7029,6.7161,6.7906,6.8305,6.8685,7.0398,7.1573,7.2343,7.2467,7.2438,7.2343,7.2343,7.2285,7.2071,7.1214,7.0905,7.0993,7.1886,7.1291,6.9795,6.7728,6.7868,6.8681,6.8645,6.8264,6.7639,6.6829,6.5646,6.4992,6.6105,6.5514,6.4992,6.6148,6.6987,6.742,6.6803,6.8079,6.935,6.9755,7.0669,7.1312,7.1312,7.1312,7.1312,7.1312,7.1312,7.1312,7.1312,7.1312,7.1312,7.1312,7.1312,7.1312,7.1312,7.1312,7.1312,7.1312,7.0601,6.9891,6.9214,6.8436,6.7987,6.7781,6.7201,6.6897,6.6794,6.5653,6.4697,4.4023,4.5,4.6601,4.5701,4.6079,0.0,4.6535,4.7926,4.9839,5.1907,5.3294,5.4751,5.6706,5.787,5.8407,5.7986,6.0226,6.2591,6.4169,6.4352,6.4211,6.3696,6.3765,6.3474,6.2352,6.2954,6.3376,6.317,6.3764,6.5048,6.7209,6.7307,6.8199,7.0045,7.011,7.011,7.011,7.011,6.9798,6.9188,6.9489,6.9328,6.8717,6.8142,6.8378,6.9093,6.8458,6.9096,7.0566,7.093,7.1223,7.1448,7.2226,7.2041,7.135,7.135,7.0901,7.0227,7.0036,6.9616,6.9267,7.0015,6.9021,6.7757,6.8803,6.8916,6.8623,6.836,6.6977,6.5503,6.5304,6.4322,6.3402,6.3671,6.3576,6.3434,6.3718,6.4649,6.5624,6.6055,6.8227,6.9992,7.0094,7.077,7.1312,7.1312,7.1312,7.1312,7.1312,7.1312,7.1312,7.1312,7.1312,7.1312,7.1312,7.1312,7.1312,7.1312,7.1312,7.1312,7.1312,7.0601,7.0128,6.9992,6.9248,6.8293,6.7168,6.752,6.741,6.6924,6.5675,6.4736,4.582,4.6289,4.7617,4.7578,4.7224,0.0,0.0,4.7788,4.8667,5.0764,5.1893,5.3022,5.4729,5.6051,5.6762,5.6478,5.9226,6.1329,6.1347,6.3219,6.4497,6.4187,6.4498,6.4324,6.3148,6.3791,6.4111,6.3831,6.4188,6.5145,6.6915,6.7011,6.7586,6.8834,6.8898,6.8898,6.8898,6.8898,6.8851,6.8815,6.8723,6.8894,6.9154,6.861,6.8853,6.9708,6.9672,7.0229,7.1159,7.1604,7.1794,7.1794,7.1794,7.1223,7.04,7.04,7.0127,6.9637,6.9317,6.8854,6.8428,6.8328,6.7579,6.6969,6.7947,6.7588,6.6758,6.6625,6.5293,6.3952,6.3952,6.2972,6.2193,6.2828,6.2487,6.2193,6.2859,6.3497,6.4049,6.4406,6.6195,6.8188,6.9917,7.0804,7.1312,7.1312,7.1312,7.1312,7.1312,7.1312,7.1312,7.1312,7.1312,7.1312,7.1312,7.1312,7.1312,7.1312,7.1312,7.1312,7.1312,7.0939,7.0567,7.0195,6.8808,6.7908,6.7556,6.7194,6.6635,6.5966,6.5333,6.4293,4.8201,4.8236,4.9209,4.9953,4.8901,4.8044,0.0,0.0,0.0,5.0038,5.0936,5.1639,5.2342,5.3645,5.4585,5.4635,5.752,5.9134,5.735,6.0533,6.3078,6.3214,6.4351,6.4599,6.3305,6.3702,6.3974,6.3831,6.3563,6.4135,6.5838,6.6053,6.6553,6.7433,6.746,6.7515,6.7687,6.7687,6.8017,6.8678,6.8066,6.853,6.9911,6.9116,6.9311,7.0264,7.0832,7.1191,7.1448,7.2197,7.2409,7.2167,7.1417,7.0535,6.9672,6.9458,6.9313,6.9091,6.8505,6.8141,6.7752,6.6694,6.6229,6.6065,6.6095,6.5382,6.4551,6.4551,6.3591,6.2585,6.2585,6.1596,6.0918,6.1977,6.1426,6.0918,6.2027,6.2211,6.2291,6.2776,6.3797,6.5577,6.869,7.0095,7.0882,7.1267,7.1312,7.1312,7.1312,7.0837,7.0574,7.0745,7.0574,7.0482,7.0482,7.0482,7.0482,7.0482,7.0745,7.0882,7.0882,7.1176,7.1041,7.0398,6.844,6.7626,6.7897,6.6566,6.5587,6.4913,6.4737,6.3411,5.2491,5.2902,5.3371,5.0538,5.1424,5.1826,4.7541,0.0,4.8358,4.7006,0.0,4.688,4.6997,0.0,0.0,4.8552,5.1993,5.455,5.4301,5.6523,5.8356,5.8851,6.1568,6.3013,6.2071,6.1749,6.2274,6.3841,6.2587,6.2475,6.4127,6.4809,6.5586,6.6523,6.6553,6.691,6.7687,6.7687,6.7724,6.7834,6.8449,6.92,7.0079,6.9834,7.0625,7.2167,7.1417,7.1573,7.2343,7.2467,7.2011,7.1255,7.1159,7.0535,6.9601,6.8685,6.7827,6.7112,6.7063,6.6988,6.6694,6.5128,6.4031,6.3449,6.342,6.3339,6.3244,6.3244,6.2242,6.1243,6.1243,6.0307,5.9339,5.9499,5.9446,5.9339,5.9499,5.9342,5.9796,6.1898,6.2617,6.3444,6.5381,6.7427,6.9361,7.1052,7.1312,7.1312,7.1312,6.9202,6.7957,6.8748,6.8157,6.7705,6.7705,6.7705,6.7705,6.7705,6.8748,6.9409,6.9409,7.062,7.1278,7.1176,6.9703,6.8405,6.7323,6.5869,6.5173,6.5025,6.3563,6.2053,5.2944,5.3594,5.4247,5.1862,5.2177,5.208,4.843,4.749,4.7303,4.6921,0.0,0.0,0.0,0.0,0.0,0.0,5.0256,5.2028,5.1076,5.3355,5.5885,5.8099,5.9139,6.0046,6.1012,6.118,6.18,6.3197,6.1792,6.1738,6.3789,6.4182,6.4734,6.5586,6.5586,6.6028,6.6939,6.6939,6.7202,6.7687,6.8017,6.8862,7.011,7.0025,7.0895,7.2438,7.1511,7.1318,7.1635,7.1095,7.0635,7.0229,6.9637,6.9169,6.8723,6.7747,6.712,6.6812,6.6812,6.6812,6.6574,6.5111,6.3918,6.2995,6.2982,6.2461,6.1846,6.1846,6.0866,5.9675,5.8782,5.8103,5.7496,5.6565,5.6394,5.6394,5.6394,5.6308,5.6479,5.7447,5.8311,5.9121,5.9812,6.4284,6.7974,6.883,6.8927,6.8732,6.8157,6.7061,6.6751,6.7622,6.7419,6.7164,6.7164,6.7164,6.7164,6.7164,6.8454,6.9217,6.9217,7.0574,7.1312,7.1312,6.9121,6.7774,6.7164,6.5032,6.3414,6.2405,6.1704,5.9399,5.4543,5.5041,5.5426,5.2563,5.2119,5.1611,4.8603,4.7584,4.7293,4.7297,4.7432,0.0,0.0,0.0,4.7705,4.7572,0.0,5.0085,4.8658,5.0317,5.2795,5.5777,5.633,5.729,5.9386,5.9459,5.9856,6.1076,5.9837,5.9959,6.2021,6.2786,6.3412,6.3833,6.4388,6.5101,6.6033,6.6033,6.6457,6.7314,6.7314,6.8192,6.9779,6.9779,7.0511,7.1742,7.1091,7.075,7.0668,6.9989,6.9708,6.9601,6.861,6.8189,6.8107,6.7161,6.6812,6.6812,6.6812,6.6177,6.5327,6.4586,6.3241,6.1827,6.1419,6.0927,6.0402,5.9953,5.9165,5.8166,5.7018,5.6366,5.5791,5.4682,5.4386,5.4386,5.4386,5.4029,5.385,5.4327,5.4569,5.4924,5.5702,6.1511,6.6048,6.6048,6.6048,6.5482,6.3853,6.3939,6.4131,6.423,6.4505,6.4699,6.4699,6.4699,6.5056,6.5922,6.7253,6.8372,6.9169,7.0216,7.0882,7.1312,6.8634,6.7164,6.7164,6.4457,6.1969,5.9782,5.9782,5.7177,5.8983,5.8809,5.7956,5.2194,5.1434,5.1036,4.6836,4.7972,4.9337,4.7409,4.9218,5.0606,4.8794,4.8581,0.0,0.0,4.8162,0.0,0.0,4.7332,4.8059,4.9868,5.2746,5.5234,5.6852,5.5632,5.5374,5.6894,5.6152,5.6206,5.7541,5.9996,6.1278,6.1015,6.28,6.4148,6.5032,6.5032,6.5522,6.6434,6.6434,6.7317,6.8935,6.8935,6.9318,6.9972,6.994,6.9851,6.9743,6.9708,6.9708,6.9601,6.861,6.8189,6.8107,6.7161,6.6812,6.6812,6.6812,6.4629,6.1998,6.2796,6.1305,5.8947,5.7367,5.7941,5.8852,5.7299,5.6849,5.6792,5.6736,5.556,5.4446,5.4386,5.4386,5.4386,5.4386,5.3187,5.2516,5.4089,5.2523,5.1725,5.4538,5.9572,6.3222,6.3222,6.3222,6.2028,5.8669,5.9194,5.9042,5.6892,5.766,5.8292,5.8292,5.8292,5.9546,6.26,6.4328,6.6438,6.9121,6.9265,6.9902,7.1267,6.8634,6.7164,6.7164,6.4457,6.1347,5.8068,5.8068,5.6072,6.0271,6.1004,6.0742,5.5357,5.4293,5.3367,4.8551,4.8688,4.927,4.7398,4.9117,5.0419,4.8696,4.8382,0.0,0.0,0.0,0.0,0.0,4.6318,4.6558,4.7409,5.0905,5.3124,5.2824,5.366,5.4723,5.5865,5.5259,5.5914,5.8312,5.9317,6.0182,6.1134,6.1779,6.2758,6.4148,6.4148,6.4598,6.549,6.6125,6.6987,6.808,6.864,6.899,6.9183,6.9039,6.8611,6.795,6.7817,6.7782,6.7742,6.7414,6.725,6.7243,6.6904,6.6812,6.6812,6.6812,6.4949,6.2604,6.2892,6.0517,5.7418,5.6872,5.6385,5.5877,5.5327,5.5152,5.4918,5.3882,5.322,5.2516,5.1455,5.0244,4.9403,4.9403,4.802,4.7323,4.9017,4.9273,4.9977,5.221,5.4655,5.6855,5.8383,5.8571,5.8446,5.8068,5.832,5.8257,5.7496,5.7751,5.8005,5.8005,5.8005,5.889,6.1053,6.2632,6.4377,6.6385,6.7368,6.8107,6.8585,6.6783,6.5781,6.5781,6.4015,6.1347,5.8005,5.8005,5.4707,6.1858,6.2474,6.2168,5.7515,5.6406,5.5206,5.0433,5.0541,5.1199,4.9544,5.0579,5.1812,5.1927,5.0234,0.0,0.0,0.0,0.0,0.0,4.558,4.5589,4.5673,4.8462,5.0278,5.01,5.0972,5.2381,5.4507,5.4072,5.4862,5.7469,5.847,5.9384,6.0287,6.0936,6.1911,6.3202,6.3274,6.3683,6.4529,6.5133,6.5871,6.6689,6.7246,6.7467,6.7387,6.7517,6.7213,6.6637,6.6765,6.6812,6.6812,6.6812,6.6812,6.6812,6.6812,6.6507,6.6109,6.6109,6.4531,6.2548,6.2551,5.9749,5.628,5.5535,5.4892,5.4268,5.373,5.3549,5.316,5.1449,5.0598,4.9735,4.8036,4.6689,4.5862,4.5862,4.4914,4.4436,4.5592,4.7247,4.8896,5.0124,5.1743,5.3632,5.5643,5.6168,5.6466,5.7048,5.7112,5.6855,5.6233,5.6168,5.5945,5.5182,5.5681,5.6499,5.7622,6.0309,6.2575,6.4162,6.5665,6.6699,6.7164,6.5835,6.4806,6.4218,6.2842,6.0387,5.7112,5.7112,5.3436]}]]